GFSGL_500_rhum_000.txt.gz
RH
61 64 65 63 55 53 53 50 46 43 38 36 44 47 40 26 15 11 14 18 21 39 90 90 91 68 60 48 45 43 32 27 22 21 22 27 31 34 36 32 38 49 66
70 73 66 59 58 57 54 52 47 39 40 49 48 34 23 13 10 12 19 33 66 80 78 66 59 52 47 41 25 27 38 38 45 47 43 36 28 28 30 32 26 26 37
79 69 65 65 62 60 59 49 42 41 48 47 31 22 13 10 15 20 20 44 61 62 59 57 51 45 32 21 35 38 53 71 77 74 66 71 61 38 37 25 25 29 31
76 72 70 68 68 64 52 42 43 49 46 29 22 13 10 14 27 40 48 58 60 63 62 52 47 39 21 31 44 61 73 84 92 92 95 94 86 71 48 61 27 55 70
80 75 77 75 65 53 42 45 50 46 31 25 13 10 12 21 35 45 53 60 57 63 66 53 46 34 24 44 58 74 80 83 87 87 97 100 100 95 67 70 70 35 100
85 84 79 58 49 44 48 52 50 32 25 14 11 10 14 30 40 48 57 57 51 70 61 55 49 26 36 56 79 91 93 94 96 94 100 100 100 91 91 80 94 72 57
92 74 52 47 48 48 50 54 37 27 15 12 10 12 16 34 48 54 61 67 70 78 66 55 44 25 47 71 90 92 100 100 98 94 100 100 76 46 66 85 100 98 66
71 57 55 54 56 57 59 42 29 16 13 12 12 16 34 51 55 60 71 78 80 83 69 54 38 29 54 83 91 100 100 100 100 100 98 75 66 84 97 100 100 91 75
68 62 59 59 63 60 41 29 16 13 14 11 16 28 46 50 52 69 78 84 85 80 65 50 31 39 71 86 97 100 100 100 80 64 51 86 100 100 100 100 100 90 66
72 72 70 70 62 40 29 16 14 15 14 15 22 41 52 54 60 73 80 83 80 71 63 47 28 49 79 89 100 98 100 100 48 35 27 89 93 91 99 85 82 78 64
84 80 74 66 39 28 16 14 15 17 14 24 29 38 53 56 57 65 81 77 71 69 55 43 28 59 83 94 100 96 100 100 46 30 24 50 84 79 60 69 76 70 61
82 80 64 37 27 16 14 14 18 17 23 35 36 34 41 56 64 76 77 71 69 55 46 38 28 63 89 100 100 100 100 100 90 31 23 22 24 26 33 44 40 29 20
82 54 30 26 15 14 15 18 21 23 35 40 40 44 56 62 72 78 73 69 59 48 38 36 29 63 90 99 100 100 98 100 100 72 23 16 14 12 12 13 14 15 16
42 25 22 14 14 15 18 25 27 33 37 48 64 64 62 67 76 73 67 61 50 41 34 38 31 50 99 100 99 100 95 92 99 100 81 22 9 9 10 12 13 14 16
23 20 14 16 17 18 26 34 37 45 63 71 66 62 65 71 70 66 62 50 43 36 34 40 39 32 87 96 99 100 100 97 86 77 100 100 70 22 10 9 11 12 14
18 13 17 20 18 23 34 42 48 47 46 64 68 64 68 64 66 66 56 47 41 36 34 42 45 32 71 100 100 100 100 99 91 82 73 60 63 90 95 60 36 28 20
14 16 23 22 23 31 40 51 58 55 49 63 68 64 65 67 70 61 53 45 40 35 34 43 52 39 35 95 100 100 100 100 97 94 85 79 84 59 45 38 44 51 47
16 19 25 25 35 42 49 58 65 56 61 77 72 72 72 70 69 62 53 44 38 34 36 45 55 52 42 42 96 100 100 100 100 100 91 79 66 64 66 49 40 37 33
18 24 27 33 44 49 56 64 68 73 92 90 88 79 76 73 74 66 56 45 37 33 37 47 55 61 59 44 42 94 99 100 100 100 100 92 65 47 37 45 46 40 34
23 29 28 46 52 55 62 77 84 94 93 93 93 88 82 80 79 70 62 49 39 34 34 41 50 53 58 50 38 37 79 97 100 100 100 100 100 98 62 35 33 31 28
28 34 36 55 58 59 63 78 94 96 99 99 99 94 92 93 88 78 69 58 43 36 33 33 36 39 41 41 45 44 35 40 89 100 100 100 100 100 100 100 88 80 71
40 39 47 61 66 71 67 82 96 100 100 98 93 96 99 100 100 92 81 68 53 43 35 32 32 32 31 31 30 30 32 35 30 54 95 100 100 100 100 100 100 98 91
51 51 58 72 78 84 82 83 95 100 100 99 93 98 100 100 100 100 98 85 67 53 41 34 31 32 32 32 34 34 33 31 31 29 30 71 99 100 100 100 100 100 100
59 60 71 82 93 94 96 98 99 100 100 100 100 100 100 100 100 100 100 100 90 71 52 41 40 39 34 34 34 34 34 32 31 32 30 30 35 82 100 100 100 100 100
64 65 83 92 95 100 100 100 98 100 100 100 100 100 100 100 100 100 100 100 100 100 84 62 53 52 52 39 37 36 35 34 34 33 32 33 33 34 42 91 100 100 100
59 68 83 100 100 100 100 100 100 100 100 100 100 100 100 100 100 100 100 100 100 100 100 97 73 68 74 65 47 42 42 42 48 53 53 53 50 49 49 48 70 100 100

GFSGL_500_rhum_003.txt.gz
RH
36 35 45 58 66 66 63 60 60 58 51 42 40 39 38 42 38 17 10 10 12 22 32 34 48 55 57 54 50 46 41 27 23 34 36 40 47 46 40 26 29 37 57
42 47 54 60 63 61 63 68 61 49 45 44 41 41 42 31 12 10 11 18 35 38 44 51 60 63 65 58 48 45 27 27 40 42 52 58 64 61 54 50 34 32 39
48 47 59 63 63 68 75 67 56 51 46 43 43 43 24 8 10 11 13 31 42 45 53 58 60 70 74 54 46 33 27 41 50 58 62 73 77 74 68 73 65 41 32
48 59 64 67 75 79 72 63 59 49 46 45 41 20 8 10 12 12 19 44 47 50 56 59 67 80 69 49 43 26 38 52 64 74 81 87 89 88 76 85 94 77 42
57 68 76 85 90 76 70 62 49 46 46 39 19 9 10 12 11 15 31 44 47 51 62 74 81 80 63 46 38 29 48 62 73 88 95 96 100 92 88 95 100 99 62
75 84 91 91 84 77 58 50 49 49 33 18 8 10 12 11 14 24 43 52 56 60 72 81 81 72 53 44 30 42 61 71 90 98 100 99 98 94 100 98 100 100 88
96 100 100 92 77 57 51 53 50 30 15 10 11 12 12 14 22 43 54 50 64 71 72 77 76 62 46 41 30 53 69 87 94 100 98 73 75 96 96 93 97 99 100
100 100 97 81 65 55 56 48 33 13 10 13 12 14 13 22 42 60 58 56 62 71 81 73 67 55 41 36 38 69 77 93 100 100 53 35 46 64 72 69 44 44 85
100 93 83 71 63 60 52 33 10 10 14 14 15 15 20 29 36 47 54 61 82 85 69 62 52 46 38 30 54 70 85 100 100 100 38 26 30 85 89 83 99 97 97
100 90 78 68 62 56 36 11 10 14 17 14 18 19 30 38 36 43 62 77 76 68 62 53 46 37 36 30 68 74 95 100 100 100 38 23 34 81 87 94 100 100 100
92 80 75 67 62 38 11 10 14 19 17 19 22 26 35 42 53 64 68 68 62 56 54 46 38 33 33 38 73 81 96 100 100 100 44 19 20 43 83 83 90 79 97
83 79 69 65 40 13 11 14 18 20 20 27 30 37 55 68 64 62 64 58 56 50 44 39 32 34 32 45 81 92 100 100 94 100 80 15 13 15 28 66 66 83 86
91 72 66 48 15 11 15 16 20 20 28 34 44 59 68 63 60 66 60 59 52 46 41 37 32 35 34 41 85 100 100 100 96 91 100 41 7 9 12 18 41 68 71
75 67 50 22 12 14 16 19 22 27 39 43 45 45 60 64 66 63 63 58 50 45 40 36 32 37 40 37 94 100 99 100 100 82 89 100 35 1 6 10 14 18 21
72 56 29 13 14 17 17 21 29 38 48 53 49 49 68 69 68 64 62 55 48 43 38 34 32 36 45 32 67 93 99 100 100 93 76 66 99 76 5 1 5 11 13
59 36 16 15 17 18 19 26 36 42 47 55 51 68 78 76 69 66 63 55 49 41 36 33 34 40 50 42 41 88 96 99 100 100 91 94 73 63 99 44 7 4 6
36 18 17 15 20 19 22 34 38 44 50 54 73 91 88 81 76 72 68 60 52 42 36 32 36 44 52 56 40 66 97 99 100 100 100 87 88 76 51 63 99 70 45
21 19 17 18 22 21 28 40 44 49 57 69 85 88 88 86 82 81 76 67 57 47 36 32 34 44 49 60 55 39 70 98 99 100 100 100 82 75 75 51 44 45 51
21 19 19 24 24 27 38 48 52 56 67 84 89 87 88 88 91 92 90 81 67 55 42 32 31 34 42 49 55 47 38 58 91 96 100 100 100 63 56 72 61 50 45
21 22 24 30 30 35 46 56 64 66 73 85 86 86 88 92 95 99 100 98 82 66 54 40 31 29 30 32 36 38 43 43 38 77 91 97 100 100 76 33 48 47 40
20 24 31 35 35 44 50 66 76 76 75 82 90 93 96 96 94 96 100 100 100 81 60 46 36 28 27 28 28 29 30 31 32 34 42 85 94 98 100 99 51 28 28
23 30 35 38 41 56 62 78 89 94 96 98 99 98 96 96 94 97 100 100 100 100 86 56 41 36 32 30 29 28 27 29 31 30 30 29 63 91 96 100 100 94 77
28 37 39 41 42 62 81 90 96 100 100 100 100 100 98 92 93 95 99 100 100 100 100 95 58 46 41 41 37 31 30 28 27 27 28 28 26 32 83 98 100 99 100
32 42 40 41 39 62 78 98 100 98 98 100 100 100 100 100 100 100 100 100 100 100 100 100 100 86 58 54 54 47 36 33 32 31 30 27 27 27 26 48 97 100 100
46 46 42 41 35 55 74 87 100 100 100 100 100 100 100 100 100 99 100 100 100 100 100 100 100 100 100 74 62 60 59 50 42 38 37 40 40 34 30 29 29 65 100
49 46 42 38 34 46 66 81 100 100 100 100 99 96 96 97 97 64 57 95 100 100 100 100 100 100 100 100 88 74 71 73 64 55 46 45 51 54 51 45 39 38 39

GFSGL_500_rhum_006.txt.gz
RH
48 47 47 46 46 41 53 64 70 76 74 70 70 53 34 32 33 32 12 5 8 11 11 17 34 41 48 55 62 66 60 50 36 36 28 24 30 36 42 45 48 48 42
51 50 50 53 49 46 68 78 81 78 74 76 55 34 34 36 26 4 6 8 11 12 16 31 40 44 50 58 67 70 63 51 40 32 27 36 44 52 55 56 63 65 62
54 53 52 48 38 60 85 87 84 82 77 56 36 34 35 18 4 8 9 10 10 13 24 41 44 47 58 71 78 78 56 45 40 27 37 50 55 67 77 79 79 77 74
58 55 47 38 57 84 92 89 81 70 57 38 33 35 15 5 9 11 10 10 14 24 41 50 56 61 72 76 78 67 50 42 31 33 50 59 70 84 82 86 85 85 90
58 50 44 60 86 91 92 82 74 60 42 37 38 18 6 10 12 12 11 13 19 34 45 46 59 65 69 74 68 57 43 37 30 50 66 74 84 86 88 86 75 93 94
51 52 71 90 95 95 94 82 64 48 42 42 23 8 10 13 13 13 15 19 31 43 49 51 57 60 65 59 58 45 37 30 46 67 79 85 92 86 43 41 69 96 100
62 83 95 98 98 97 87 70 56 44 47 31 9 11 13 14 16 16 23 27 29 40 48 57 65 60 53 48 42 36 34 36 70 80 88 94 94 44 21 33 72 92 100
93 100 100 99 93 88 79 70 49 51 40 12 11 13 15 17 20 25 32 34 34 50 62 62 55 51 46 41 34 35 31 64 81 88 90 100 82 22 20 34 52 74 93
100 100 100 97 81 73 72 58 52 46 19 9 14 15 17 22 28 34 36 48 63 63 60 48 47 42 40 34 32 32 47 79 84 94 99 100 56 16 23 69 88 76 70
100 100 98 92 80 80 75 56 53 27 9 13 14 17 23 29 37 46 63 62 62 61 48 46 43 41 38 32 32 32 69 78 95 100 98 100 42 13 19 84 89 93 100
100 100 98 92 84 84 70 65 36 13 10 14 15 21 31 39 51 63 62 59 59 51 50 45 42 39 35 31 35 33 77 85 100 100 92 100 50 10 14 47 83 90 100
100 100 100 98 99 79 75 48 21 10 14 15 20 30 39 47 45 58 60 58 53 52 49 43 38 36 31 31 38 36 84 96 100 100 88 99 78 6 11 23 68 70 84
100 100 100 100 100 88 64 32 11 12 16 17 26 37 48 50 54 66 60 56 55 53 47 41 36 32 31 35 39 38 90 100 100 100 95 77 100 29 3 15 53 76 75
100 100 100 100 86 72 48 15 10 16 16 23 32 43 51 50 72 71 66 61 58 54 47 39 33 30 31 36 44 37 83 100 100 100 100 95 74 100 16 3 16 32 68
100 100 100 92 78 60 21 11 14 18 20 31 37 46 49 70 82 79 74 66 64 58 50 40 34 29 29 33 43 41 56 92 97 100 100 100 96 68 98 26 2 10 18
100 100 100 92 70 23 12 13 19 19 27 38 43 52 68 83 86 84 80 76 73 63 54 44 34 30 29 36 46 53 39 75 95 100 100 100 97 90 61 100 47 11 5
100 100 99 78 31 14 15 18 24 21 35 43 50 67 77 82 85 84 85 85 82 72 63 52 39 30 30 36 44 55 41 43 85 96 100 100 100 91 85 56 95 84 52
100 98 69 26 16 17 20 26 28 27 38 52 56 62 73 82 82 84 88 92 93 84 75 64 51 35 28 29 34 42 50 41 44 85 98 100 100 100 82 81 58 62 96
90 42 21 19 19 20 27 33 33 34 45 61 64 67 79 85 87 93 94 95 94 89 85 75 66 52 35 26 26 29 32 35 42 41 61 90 100 100 99 68 79 65 58
29 18 22 24 23 24 33 39 38 47 55 70 82 84 85 87 88 93 94 96 97 96 97 93 77 62 47 33 25 25 26 26 26 29 36 40 74 96 100 100 55 70 76
20 29 30 28 27 29 43 43 45 61 72 80 88 89 90 95 96 97 97 94 98 99 100 100 100 81 53 41 36 29 25 25 24 24 27 28 32 57 90 100 100 59 42
22 36 39 33 33 36 44 44 44 60 91 97 99 98 96 97 100 100 100 100 97 100 100 100 100 100 90 62 49 43 36 26 26 25 24 26 27 29 40 83 100 100 93
30 38 42 42 39 38 47 46 44 49 79 100 100 100 100 99 99 100 100 100 100 100 100 100 100 100 100 100 85 57 46 34 32 32 28 28 26 26 27 29 66 97 100
40 40 40 47 43 42 49 46 43 41 64 91 100 100 100 100 100 100 100 100 100 100 100 100 100 100 100 100 100 93 64 52 45 39 36 33 31 30 26 25 26 38 89
34 36 32 41 44 44 48 47 43 39 56 79 96 100 100 99 98 100 99 100 100 86 66 89 100 100 100 100 100 100 100 80 53 49 51 38 33 35 35 37 30 27 27
36 36 38 39 46 47 48 49 45 41 55 72 100 100 100 98 95 94 96 99 99 98 89 60 82 100 100 100 100 100 100 100 74 49 55 58 44 34 38 41 42 44 37

GFSGL_500_rhum_009.txt.gz
RH
24 25 27 30 47 56 51 49 45 59 83 84 77 69 57 40 27 18 17 9 6 8 10 10 9 11 13 22 35 38 40 43 40 38 50 37 31 30 25 25 30 36 38
28 30 32 41 47 53 50 52 65 87 86 80 72 59 46 31 25 22 20 8 10 11 11 11 12 15 28 42 46 47 48 55 53 44 43 35 33 27 28 35 43 49 56
33 34 43 51 56 55 55 70 92 90 87 76 62 49 41 32 32 33 15 10 11 13 12 14 17 25 40 42 48 55 56 54 56 47 38 33 28 29 41 52 57 68 76
39 53 57 60 57 57 80 98 97 93 83 70 58 52 44 35 36 23 11 12 13 15 14 19 24 33 40 42 47 58 58 51 45 41 32 29 32 52 54 67 74 80 81
62 62 60 58 66 88 100 100 95 92 81 65 50 46 36 41 29 11 12 12 16 16 19 25 26 31 42 55 59 58 47 43 38 31 29 31 58 62 75 77 79 62 37
63 63 59 70 100 100 100 100 95 90 83 59 64 52 46 37 12 10 12 15 22 23 25 29 29 40 51 49 45 49 44 34 29 28 30 57 67 75 80 85 46 14 16
62 59 72 97 100 100 96 100 98 82 84 76 80 49 45 29 10 13 14 21 26 26 30 39 52 51 46 44 41 38 36 30 30 31 58 76 80 85 85 59 14 12 22
66 86 100 100 100 93 98 95 90 93 89 99 81 57 39 13 12 14 19 28 39 45 54 53 54 47 43 42 39 37 33 30 31 46 67 78 80 83 86 12 11 18 52
91 100 100 100 100 100 100 96 100 100 100 100 75 53 13 9 14 16 27 34 49 57 52 54 50 45 42 38 35 34 30 34 37 75 82 87 84 90 55 9 11 31 74
100 100 100 100 100 100 100 100 100 100 99 96 68 32 9 13 14 22 31 35 40 55 57 50 48 46 40 35 33 30 31 34 52 92 92 92 82 93 34 8 12 39 81
96 92 99 100 100 100 100 100 100 100 100 95 60 13 11 15 17 27 34 37 53 61 55 52 48 43 38 33 29 27 31 35 77 90 96 96 80 89 36 8 16 56 74
100 100 100 100 100 100 100 100 100 100 78 53 19 10 16 16 26 30 32 46 65 64 59 56 51 44 36 30 27 28 36 35 75 97 100 98 93 84 72 5 20 59 62
100 100 100 100 100 100 100 100 98 88 68 29 10 14 18 20 26 34 41 64 74 67 62 60 54 47 36 29 29 32 40 38 71 100 100 100 97 85 94 8 16 64 75
100 100 100 100 100 100 100 100 88 70 29 12 14 20 22 29 34 40 65 76 76 74 71 68 58 49 36 30 30 33 43 42 59 97 100 100 100 99 78 82 4 22 65
100 100 100 100 100 100 100 88 42 18 15 16 21 24 29 40 48 65 73 73 72 74 77 75 66 54 40 29 28 31 43 48 41 82 100 100 100 100 96 79 72 6 20
100 100 100 100 100 88 40 16 16 18 18 22 29 28 40 50 58 75 78 75 74 79 84 84 73 61 47 32 27 29 36 49 40 51 93 100 100 100 99 89 82 87 26
100 100 100 97 63 20 12 15 19 21 21 30 35 33 50 62 71 82 83 81 83 85 90 86 78 70 59 41 27 25 27 32 45 43 48 88 100 100 100 97 84 82 100
100 98 71 23 13 12 16 20 26 26 27 33 39 42 50 70 74 82 88 86 83 88 91 90 86 82 72 59 43 26 23 25 26 29 39 41 72 100 100 100 90 82 73
61 29 19 16 13 13 20 28 37 35 34 43 44 45 60 80 90 94 94 91 90 91 89 92 93 95 90 72 55 43 32 24 22 23 24 27 36 52 97 100 100 85 86
19 20 18 13 12 19 28 33 36 43 40 46 48 57 67 78 99 100 99 97 95 99 99 97 95 97 98 98 75 55 43 39 27 22 22 23 24 31 38 90 100 99 72
24 18 14 12 17 25 28 32 34 45 46 49 51 50 77 92 96 100 100 100 100 100 100 100 100 100 100 100 100 96 72 51 38 26 22 22 22 24 28 31 77 100 100
25 19 15 19 23 27 31 39 37 42 47 50 54 48 60 97 100 100 100 100 100 100 100 100 100 100 100 100 100 100 100 83 52 40 29 24 23 24 24 26 28 53 100
24 16 19 26 31 35 36 39 42 42 50 50 52 48 56 83 100 100 100 100 100 100 100 100 100 100 100 100 99 100 100 100 90 60 46 34 30 26 25 24 24 26 35
16 18 27 31 32 35 42 44 45 47 52 51 52 50 55 83 100 100 100 100 100 100 100 100 100 94 80 96 100 100 100 100 100 99 72 42 34 37 30 28 28 26 25
18 22 26 29 33 36 41 50 51 52 56 55 53 54 59 77 88 100 100 100 100 100 100 100 100 100 100 80 96 100 100 100 100 100 100 60 39 41 45 41 31 31 32
24 24 23 22 24 27 33 40 52 56 61 61 58 61 70 83 97 100 100 100 100 100 100 100 100 100 100 100 86 87 100 100 100 100 100 97 72 59 44 36 43 38 33

GFSGL_500_rhum_012.txt.gz
RH
26 27 28 30 33 34 47 56 60 58 55 74 82 75 76 77 72 61 43 31 41 31 20 13 10 10 12 13 14 16 23 29 27 32 43 43 41 42 34 30 28 27 26
31 32 33 35 43 55 63 59 58 58 68 82 82 69 76 67 48 48 36 61 64 30 13 9 10 14 15 19 21 24 30 31 31 32 46 45 38 34 31 26 28 26 25
36 55 59 52 85 74 72 59 60 74 78 91 87 72 79 63 60 65 68 95 84 32 10 10 13 17 18 24 24 24 33 39 46 41 37 35 31 29 27 26 27 33 43
66 67 63 67 82 66 60 60 90 84 78 99 89 79 75 69 68 90 100 80 31 16 10 12 19 20 22 28 26 40 45 43 39 36 35 32 28 28 27 32 46 54 63
62 72 83 86 76 67 61 87 89 99 97 98 94 88 80 80 99 100 85 37 31 13 11 15 23 24 27 44 42 50 43 38 36 37 36 31 29 28 44 56 64 67 76
76 79 73 72 62 85 100 95 90 96 97 100 100 100 100 100 100 95 55 31 16 11 13 19 27 33 37 42 42 43 44 39 37 34 30 26 30 50 65 76 76 72 52
74 77 71 76 96 97 98 100 99 100 100 100 100 100 100 100 98 55 29 16 11 15 18 22 27 36 42 40 40 39 38 34 30 26 27 32 58 83 80 78 75 62 12
83 78 90 90 92 100 100 100 100 99 95 100 100 100 99 98 81 31 16 12 14 18 21 23 28 36 42 43 44 42 36 32 26 24 30 42 78 83 81 76 73 17 12
78 82 85 97 88 81 97 100 100 100 100 100 100 98 96 90 34 12 11 14 20 22 24 25 40 47 44 44 44 39 32 27 26 28 34 71 84 89 83 77 56 9 15
80 89 100 95 100 100 100 100 100 100 100 100 99 94 85 33 12 13 15 19 22 24 28 37 52 56 52 50 46 38 31 26 26 35 52 91 90 93 84 76 28 12 27
100 100 94 96 90 100 100 100 100 100 100 100 97 83 38 15 14 20 20 22 27 33 45 61 57 60 58 54 46 37 30 26 29 36 59 92 92 93 86 75 25 11 43
96 96 92 92 100 100 100 100 100 100 100 92 63 27 15 15 16 22 26 27 34 46 64 71 71 69 66 58 48 36 29 27 31 38 53 95 95 93 90 78 45 11 54
100 100 100 100 100 100 100 100 100 100 97 81 42 17 18 18 20 24 29 38 46 62 67 70 70 73 71 63 50 35 28 29 41 43 47 96 99 95 95 82 80 12 40
100 100 100 100 100 100 100 100 96 77 39 13 17 19 22 25 27 27 28 46 60 72 71 74 83 85 79 66 52 36 27 31 39 45 40 85 100 97 98 94 88 35 15
100 100 100 100 100 100 100 97 73 24 13 16 24 28 28 33 36 34 33 52 63 79 81 82 83 85 80 71 59 41 26 26 30 45 42 53 96 100 98 98 89 96 20
100 100 100 100 100 99 77 35 16 14 19 26 29 35 37 39 42 42 54 67 71 77 80 77 80 87 87 81 70 54 31 23 24 27 34 43 50 94 100 100 98 92 99
89 100 100 98 67 32 25 21 16 13 16 23 31 37 44 45 47 52 63 84 92 91 90 85 81 85 89 89 84 70 55 40 26 22 23 25 36 41 89 100 100 98 95
98 95 70 52 40 34 31 24 19 15 14 22 27 30 48 50 52 59 74 94 100 98 96 90 92 94 93 91 95 91 69 52 46 36 23 21 23 29 36 85 100 100 99
58 57 48 48 45 44 37 28 20 17 20 28 33 40 48 52 57 62 79 100 100 100 100 99 100 100 100 100 95 97 99 79 61 49 39 26 21 23 27 32 84 100 94
48 63 79 80 66 42 25 20 17 23 32 37 39 43 46 53 58 62 78 100 100 100 100 100 96 99 100 100 100 97 95 98 100 81 49 40 29 21 23 26 30 81 100
60 86 80 51 36 30 24 20 20 26 30 37 43 46 49 54 54 56 64 100 100 100 100 100 100 100 100 100 100 99 98 95 95 100 78 54 43 30 22 23 24 28 66
93 68 50 41 36 31 24 24 29 31 34 36 42 47 50 59 59 58 56 84 100 100 100 100 100 100 100 100 100 100 100 100 92 99 100 90 61 38 27 23 24 23 27
64 54 46 36 26 23 24 29 34 34 34 38 47 52 54 61 60 57 59 98 100 100 100 100 100 97 100 98 99 97 97 100 100 95 94 100 98 50 36 37 25 25 24
50 40 31 23 21 23 25 27 29 26 24 26 37 55 61 64 64 60 69 99 100 100 100 100 100 100 100 100 100 100 99 87 100 100 93 96 100 84 41 38 36 29 26
34 24 18 18 20 21 21 20 20 21 23 27 35 47 63 70 72 71 88 100 100 100 100 100 100 100 100 100 100 100 100 100 92 99 100 97 99 100 78 60 49 38 32
17 17 18 17 15 13 13 15 17 21 27 32 49 54 68 77 78 80 97 100 100 100 100 100 100 100 100 100 100 100 100 100 100 89 94 100 100 99 100 90 69 66 50

GFSGL_500_rhum_015.txt.gz
RH
43 43 41 42 54 80 79 76 78 82 76 69 58 68 71 87 79 82 100 100 100 97 100 100 100 38 14 8 9 11 13 14 14 21 30 31 30 31 32 30 27 25 24
38 46 55 73 80 68 61 71 80 79 68 68 77 77 75 73 88 100 100 76 77 100 100 100 88 27 10 10 13 13 15 20 21 25 33 28 27 27 27 27 27 26 24
68 58 62 70 68 59 66 69 72 64 78 73 78 87 80 88 100 94 95 82 100 100 97 88 30 10 10 15 19 20 24 29 32 28 26 29 30 31 31 32 30 27 25
80 56 50 57 46 58 76 76 67 75 74 83 90 89 97 99 100 100 100 97 100 96 74 45 16 11 13 21 21 30 35 34 32 29 30 32 30 29 28 25 26 28 40
66 44 43 46 62 80 70 70 76 78 64 64 76 100 100 100 100 100 100 99 100 72 30 14 12 15 18 20 23 34 36 34 34 34 34 31 27 22 22 27 35 49 66
47 62 64 58 67 73 84 89 88 73 96 100 100 100 100 100 100 100 99 99 51 19 9 11 16 20 23 22 36 41 40 35 39 36 31 24 21 20 26 49 58 65 78
77 70 64 74 79 88 96 76 99 100 97 100 100 100 100 100 100 100 98 61 29 12 12 18 23 26 28 33 44 44 44 43 40 33 27 21 21 25 53 73 67 65 64
59 62 76 82 87 85 93 100 100 100 100 98 100 100 100 100 99 92 71 36 13 16 19 25 27 31 41 53 58 55 53 47 40 31 25 21 25 39 62 66 69 67 64
66 72 72 71 83 100 100 100 100 100 100 100 100 100 100 98 86 58 26 14 14 22 28 31 36 50 60 61 62 62 58 48 38 30 25 24 28 53 67 75 69 62 44
70 67 69 81 90 92 100 100 99 98 86 100 100 100 99 86 43 18 17 16 20 26 35 35 50 61 62 64 68 68 61 47 35 29 27 28 34 68 77 78 69 69 26
74 74 78 94 92 100 100 100 100 100 100 100 100 97 74 32 15 20 22 24 29 34 42 49 57 63 60 65 71 72 60 47 33 28 29 37 41 85 88 80 72 72 24
65 68 74 79 97 100 100 100 100 100 100 100 95 57 15 14 17 28 28 32 37 42 54 58 59 61 66 71 81 73 60 46 30 27 32 41 43 93 94 84 75 73 37
59 45 42 70 81 100 100 100 100 100 98 76 34 18 15 15 20 27 33 37 41 48 60 64 68 72 73 78 82 75 62 46 28 26 34 43 42 86 100 90 81 80 69
10 6 6 14 51 99 100 100 100 78 53 37 29 22 19 17 21 25 30 38 41 48 60 69 77 79 78 86 88 82 70 49 26 23 26 34 43 53 98 98 86 88 92
4 4 5 9 44 98 100 80 48 47 50 45 34 26 19 20 26 29 33 41 44 49 73 86 90 90 84 80 85 86 83 68 46 28 22 24 28 41 58 100 94 93 95
4 5 6 9 23 82 60 58 69 77 69 42 23 20 20 27 34 37 40 47 50 56 81 97 98 95 90 90 91 93 91 86 70 54 36 22 22 24 36 63 100 93 92
6 7 10 20 44 52 38 50 67 78 62 27 22 22 26 35 38 45 50 53 57 54 79 94 100 98 95 98 98 100 99 98 91 80 60 44 25 22 24 33 82 100 96
8 11 23 45 51 38 43 76 88 61 45 42 31 24 31 37 38 45 55 54 66 65 90 100 100 100 100 100 96 96 98 100 98 94 89 62 49 28 22 26 33 99 100
11 22 53 57 54 82 91 84 63 51 40 37 28 29 39 38 38 43 52 54 66 68 80 100 100 100 100 100 100 100 100 100 95 95 95 89 60 50 27 23 28 37 100
20 41 72 84 85 84 78 67 57 47 38 30 26 30 35 41 42 45 52 55 64 69 71 100 100 100 100 100 100 100 100 100 99 97 91 98 85 67 46 24 23 28 43
38 64 78 80 71 66 62 54 45 34 28 26 28 34 38 39 36 39 53 58 64 69 70 100 100 100 100 98 100 100 100 100 100 96 90 87 97 97 65 35 23 24 26
68 57 50 52 52 50 43 34 26 22 23 23 26 29 30 33 31 38 54 60 65 67 67 93 100 100 100 100 100 99 94 99 100 100 98 90 95 99 92 41 32 24 24
54 56 56 49 40 32 24 19 20 20 20 21 22 23 46 56 39 44 57 68 68 67 71 99 100 100 100 100 100 100 99 95 98 100 100 96 99 92 99 61 40 32 27
55 45 39 33 23 17 19 20 16 12 11 13 21 90 79 48 47 56 68 75 76 77 97 100 100 100 100 100 100 100 99 99 99 100 100 99 98 95 93 98 62 50 38
41 28 19 16 19 20 13 9 10 10 11 12 17 28 41 32 46 72 70 80 85 88 100 100 100 100 100 100 100 100 100 100 100 100 100 100 100 100 92 93 97 76 65
19 17 15 21 17 10 10 9 9 9 12 14 16 46 50 67 50 72 99 100 99 100 100 100 100 100 100 100 100 100 100 98 98 100 100 99 100 97 95 91 98 100 88

GFSGL_500_rhum_018.txt.gz
RH
53 62 65 76 97 100 98 71 94 73 66 71 79 73 74 87 83 74 84 92 100 100 100 99 97 100 100 96 39 18 11 11 11 12 19 25 28 28 25 23 23 24 25
61 85 98 99 98 92 80 43 55 74 83 87 79 79 86 85 82 86 95 99 95 90 87 92 98 100 80 41 15 11 12 14 16 16 27 33 31 24 23 26 28 27 24
85 96 100 100 99 61 50 67 82 80 77 77 79 78 84 99 99 100 96 82 80 89 99 100 100 77 37 13 11 14 19 20 20 29 30 34 30 28 29 26 24 19 18
93 86 98 77 50 61 70 63 57 74 76 75 78 82 75 72 97 99 98 80 92 99 99 98 77 30 13 11 15 21 23 25 34 38 36 37 35 34 27 22 18 16 20
84 72 73 62 64 59 53 55 70 73 75 76 80 82 94 94 84 100 90 100 100 100 100 50 23 12 12 18 24 26 25 36 43 44 46 44 40 32 25 19 15 20 43
74 66 56 58 50 51 66 75 77 80 66 64 91 86 95 100 100 100 100 100 100 96 40 17 12 13 22 26 29 36 47 48 51 49 51 45 36 28 22 18 21 42 62
48 46 50 55 69 77 75 70 60 63 83 82 92 100 87 100 100 100 100 100 82 34 14 13 16 22 28 32 37 56 59 57 52 51 50 41 32 26 20 26 43 56 57
45 58 61 76 82 66 55 55 59 98 84 100 96 100 100 100 100 100 97 62 17 12 13 18 20 28 34 39 52 58 59 60 64 60 48 38 30 25 25 36 65 68 60
53 64 77 69 59 62 78 65 73 86 100 87 100 100 100 100 100 92 40 19 16 14 18 24 27 33 38 50 59 60 62 66 67 59 47 36 28 25 28 48 69 66 63
69 68 64 65 94 59 100 100 29 98 70 80 100 100 100 100 86 47 26 21 17 17 20 27 34 38 47 60 64 67 73 75 68 56 44 31 28 32 34 53 80 75 64
68 70 68 72 50 31 21 7 7 12 40 79 100 100 98 73 50 39 27 19 18 22 26 34 39 44 64 69 68 69 74 75 68 58 37 26 29 34 37 59 87 79 71
71 69 60 33 10 5 5 5 6 9 15 76 100 82 59 64 63 38 22 19 22 29 34 42 46 55 76 75 73 72 72 75 71 60 36 24 25 39 41 62 92 86 74
70 52 20 6 4 5 5 6 6 11 55 82 51 58 55 75 62 30 25 23 24 35 44 52 54 61 77 78 77 75 76 81 80 66 44 27 22 24 40 46 85 94 82
43 16 6 5 5 5 5 6 9 25 62 54 42 61 75 71 45 33 30 26 27 36 47 60 61 66 83 85 87 84 89 89 87 82 67 44 25 21 23 38 63 92 96
19 7 6 5 6 6 7 9 18 38 41 37 53 90 89 66 39 36 32 28 30 34 45 64 67 71 90 90 91 92 99 96 97 96 84 74 48 23 21 25 36 78 100
7 6 6 7 7 8 10 17 34 44 58 77 98 100 78 55 45 38 34 31 32 36 42 65 69 79 93 96 98 97 96 93 95 100 96 91 76 49 24 21 29 41 96
6 7 7 8 9 11 14 26 48 87 100 100 98 87 74 61 48 40 34 34 34 40 45 60 70 79 96 100 100 97 98 96 98 97 95 97 92 68 47 23 22 30 69
6 8 9 11 13 18 32 54 71 72 66 66 82 75 63 50 41 34 33 34 37 46 47 57 69 75 86 100 100 97 97 98 100 98 93 92 92 87 67 40 23 25 32
9 10 11 13 17 29 52 64 59 53 55 53 49 48 41 35 30 28 34 36 41 43 48 57 66 76 80 100 100 100 98 97 100 100 99 99 85 93 84 67 29 23 27
11 13 15 21 42 68 69 61 57 55 49 42 36 29 22 22 24 26 34 34 35 37 49 67 71 79 80 100 100 100 100 100 100 100 100 99 94 87 93 86 48 24 23
14 17 28 54 67 65 57 51 46 40 32 22 18 19 20 20 19 30 30 28 49 47 56 73 78 82 80 99 100 100 100 100 100 100 100 100 100 93 91 93 67 33 25
27 46 58 56 51 48 45 34 22 19 16 18 20 15 12 12 14 22 24 48 94 83 53 75 78 83 83 100 100 100 100 100 100 97 95 96 100 100 92 92 81 44 30
52 42 42 46 46 34 24 20 17 15 19 17 10 10 10 12 16 20 45 60 64 96 72 74 83 85 99 100 100 100 100 100 100 100 100 97 96 98 92 90 92 61 43
54 39 38 38 28 19 18 15 14 20 18 11 11 10 10 12 16 24 64 60 82 99 68 93 97 100 100 100 100 100 100 100 100 100 100 100 97 100 100 100 87 90 69
41 36 26 20 20 19 15 15 21 18 13 13 12 11 12 14 18 33 78 100 100 89 94 99 100 100 100 100 100 100 100 100 100 100 100 100 100 98 99 100 100 90 91
29 20 22 24 20 18 23 24 18 16 16 16 14 12 13 16 22 40 95 92 88 98 100 100 100 100 100 100 100 100 100 100 100 100 100 100 100 98 97 98 100 97 92

GFSGL_500_rhum_021.txt.gz
RH
39 45 54 77 92 98 89 88 91 99 74 62 69 79 68 75 77 80 83 92 100 100 100 100 100 99 95 90 100 94 61 27 17 12 12 17 18 17 20 29 29 29 24
40 52 64 89 91 96 98 100 100 87 72 80 73 69 82 92 100 98 90 100 87 86 99 96 98 96 100 100 81 34 17 14 14 18 21 22 21 23 27 30 32 31 27
79 93 97 94 83 92 95 100 93 80 83 75 77 86 86 92 100 100 97 83 77 94 96 88 91 100 97 59 23 13 12 16 21 24 24 24 27 31 35 36 36 36 30
76 81 93 90 88 98 99 85 78 69 70 82 87 82 80 74 76 84 81 88 66 81 89 91 100 86 43 17 10 13 16 23 26 28 33 37 42 44 44 41 40 32 25
54 54 50 47 50 66 76 59 51 65 72 68 66 74 75 51 63 82 100 100 72 94 100 100 78 31 14 12 16 19 24 27 30 38 46 55 59 57 52 44 35 27 21
12 30 43 45 39 56 39 52 62 66 65 60 100 100 87 81 44 99 100 62 100 100 100 64 23 17 15 15 21 26 31 32 39 45 49 55 65 60 48 38 30 23 23
38 44 37 36 38 52 62 69 68 64 76 100 73 100 94 44 21 46 67 86 100 90 49 35 23 18 17 20 28 34 35 39 44 45 52 60 63 53 43 32 26 22 23
43 38 30 57 78 74 76 72 67 73 100 58 31 72 18 10 33 82 62 100 72 43 47 29 25 19 20 26 36 39 44 48 56 55 61 64 56 48 37 28 25 29 36
40 34 62 80 81 74 66 100 75 92 62 7 7 21 26 12 31 47 98 74 45 44 50 32 31 22 23 31 42 44 53 61 60 61 62 60 54 43 29 27 31 34 71
41 51 79 80 72 56 58 58 40 14 5 4 5 6 7 13 33 60 59 54 48 58 39 36 32 24 24 34 46 48 60 72 65 67 63 64 55 37 24 26 34 39 72
59 73 77 64 61 62 52 31 10 6 5 6 7 8 9 18 58 57 52 70 84 59 33 34 34 26 26 37 50 53 70 78 72 73 71 70 62 44 24 22 32 40 75
79 74 68 67 64 51 26 8 6 6 7 8 8 9 12 32 47 41 44 86 96 55 36 37 34 30 29 40 55 59 79 83 80 82 80 76 72 55 34 22 23 36 57
76 73 71 65 54 28 11 7 7 8 8 9 10 12 26 38 38 47 79 100 90 60 46 42 36 36 34 42 61 68 89 89 80 86 87 82 78 72 50 26 20 28 41
81 77 67 54 36 14 8 7 7 8 9 11 13 24 50 81 99 100 100 100 88 70 52 44 38 41 42 45 65 76 91 90 83 85 87 85 84 82 75 46 21 20 31
88 82 67 45 17 8 7 8 9 10 12 15 26 52 90 100 100 100 100 96 82 67 54 42 38 46 50 50 69 83 98 93 86 86 86 84 84 86 82 69 33 20 25
91 79 57 26 11 8 8 9 12 14 18 32 56 82 98 98 82 81 84 75 63 49 38 36 41 51 55 58 72 88 100 100 90 90 90 86 83 83 84 80 62 22 22
93 65 27 11 9 10 11 12 13 17 39 62 85 89 82 77 73 66 55 43 33 27 26 33 42 53 59 65 77 92 100 100 96 94 92 88 89 86 83 85 77 38 21
69 27 12 10 10 12 13 16 25 38 47 55 60 57 56 53 45 33 26 23 26 23 26 31 40 50 57 70 80 96 100 100 100 97 95 94 94 96 88 83 84 66 23
19 11 10 11 12 15 21 31 44 40 39 44 47 45 33 24 20 19 19 20 21 22 25 34 41 41 53 77 87 99 100 100 100 100 93 99 94 95 97 83 85 82 37
11 10 11 16 23 27 34 52 54 37 36 36 32 26 20 16 15 17 19 16 13 15 23 64 32 37 59 83 86 98 100 100 100 100 95 95 93 94 97 98 88 87 49
10 13 23 30 31 37 46 42 31 26 19 18 18 19 16 13 17 17 11 10 11 13 41 60 38 73 77 97 92 99 100 100 100 100 99 98 92 91 92 99 95 88 64
22 32 35 34 35 36 34 23 18 18 20 20 19 17 17 20 18 13 11 10 11 14 42 40 81 100 97 90 96 100 100 100 100 100 100 100 95 92 92 94 86 85 81
41 42 40 43 39 30 22 23 24 24 21 19 22 26 22 16 14 14 13 12 14 17 77 63 74 82 86 76 97 100 100 100 100 100 100 100 100 93 93 91 96 93 86
52 44 43 34 24 23 25 24 26 24 26 38 36 27 21 18 17 16 14 14 20 21 33 88 86 95 89 94 100 100 100 100 100 100 100 100 100 100 95 95 92 97 98
45 40 31 25 24 19 8 18 29 31 33 23 22 24 22 21 20 18 15 17 24 38 99 100 100 100 96 100 100 100 100 100 100 100 100 100 100 100 100 100 94 95 97
41 28 26 24 13 7 10 28 34 30 22 20 20 20 18 16 15 15 17 20 33 100 100 100 100 100 96 100 100 100 100 100 100 100 100 100 100 100 100 100 100 95 96

GFSGL_500_rhum_024.txt.gz
RH
57 80 75 87 87 90 94 100 94 85 79 94 91 99 74 55 57 74 69 62 78 87 78 64 25 14 44 13 52 80 75 35 18 13 13 15 19 22 26 28 30 30 28
67 73 88 95 97 100 100 100 98 99 84 73 95 79 59 70 85 67 60 77 85 93 86 72 6 8 22 48 74 58 23 17 14 12 17 21 27 30 32 36 43 37 36
68 80 75 85 96 99 88 89 48 49 53 64 77 68 80 89 74 72 89 93 94 96 96 6 6 15 32 74 44 30 22 20 14 16 22 28 32 35 37 41 49 48 48
52 47 74 74 61 46 46 44 45 44 45 65 75 80 73 72 97 100 100 75 64 87 15 8 20 47 79 40 33 32 31 22 17 23 32 32 36 39 39 39 54 57 52
7 28 51 40 32 45 49 44 34 51 89 92 77 83 97 100 100 100 100 30 7 12 20 14 30 69 44 37 40 42 32 20 20 32 37 38 45 46 51 58 58 55 45
4 6 12 23 35 43 43 36 68 100 84 80 70 99 100 100 62 83 30 7 7 11 11 16 48 52 44 46 46 43 28 21 24 38 42 44 53 50 55 55 51 46 38
6 11 22 37 43 44 42 80 95 84 79 73 75 96 85 72 18 6 5 6 8 10 15 54 58 55 63 53 46 40 29 23 27 42 45 52 55 49 50 54 47 37 30
10 17 28 42 46 49 65 78 78 75 98 100 67 46 29 8 6 6 7 9 10 12 34 51 57 61 77 51 43 42 31 24 31 43 48 62 60 56 54 57 40 25 27
13 22 37 49 54 60 74 78 74 73 93 66 48 26 10 7 7 8 9 10 13 22 43 44 44 66 91 60 46 43 33 26 34 46 55 71 68 63 62 61 46 23 27
21 35 48 52 59 74 81 77 74 67 56 44 27 12 8 8 9 10 12 14 21 37 42 43 58 93 94 70 50 43 36 30 38 50 64 78 73 73 72 66 60 28 22
39 51 56 63 77 83 82 83 82 71 58 37 17 9 9 9 10 12 15 22 47 49 48 85 100 97 98 71 53 45 35 32 44 54 74 88 78 79 82 77 70 49 21
53 62 72 85 92 95 95 90 83 74 59 27 12 9 10 11 12 17 26 46 84 97 100 100 100 99 93 68 52 44 37 39 53 65 84 91 82 81 84 84 77 63 36
64 78 93 100 100 96 93 88 84 70 42 16 10 10 10 12 18 29 51 82 100 100 100 100 100 94 78 58 48 45 39 49 59 77 94 98 84 78 82 87 80 74 54
73 79 83 87 90 86 85 86 73 38 17 11 10 10 12 16 26 54 76 99 100 98 96 92 81 63 47 40 47 53 47 54 71 88 100 100 87 82 81 85 83 80 69
74 77 79 76 74 82 88 70 35 16 12 10 12 15 19 21 36 47 68 72 70 68 61 53 43 33 35 40 50 57 57 58 76 89 100 100 93 84 83 88 83 80 80
77 73 75 84 91 87 64 38 18 12 12 17 22 28 36 51 49 41 43 53 52 42 32 26 23 26 30 38 51 50 59 64 82 89 100 100 98 87 87 96 89 79 86
81 89 96 97 79 48 33 22 14 11 19 26 31 45 60 56 43 37 37 36 34 30 26 24 24 22 30 76 63 39 56 66 86 93 100 100 100 92 89 96 95 81 86
98 100 99 82 56 39 31 19 13 14 13 15 26 30 29 24 19 18 21 22 22 22 19 18 20 22 71 88 62 51 61 65 84 96 100 100 100 96 92 97 95 88 87
100 99 94 81 63 39 21 18 22 22 20 20 20 21 19 20 22 22 22 22 20 17 16 19 15 16 30 42 84 60 52 66 87 96 100 100 100 98 95 95 92 94 94
100 98 82 62 40 24 22 25 21 19 17 14 16 16 13 15 22 21 21 22 22 21 19 13 12 14 19 48 99 57 61 90 99 100 100 100 100 98 99 92 88 92 96
86 71 65 40 21 26 30 20 16 13 14 16 11 6 6 16 24 30 37 30 20 17 15 13 12 14 29 94 100 100 100 100 100 100 100 100 100 96 98 97 88 90 86
78 60 28 22 34 34 21 16 15 17 16 10 7 8 22 31 33 29 28 29 19 17 16 14 13 16 58 100 100 100 100 99 100 100 100 100 100 99 95 100 92 92 91
40 23 36 42 38 23 20 19 20 19 13 7 8 20 31 32 24 18 20 22 23 21 18 15 17 26 81 94 99 100 87 89 100 100 100 100 100 100 93 100 97 94 95
26 38 40 35 22 22 22 23 23 15 9 8 17 29 31 22 14 15 18 19 20 21 19 18 21 34 96 100 96 95 96 100 100 100 100 100 100 100 100 97 100 96 100
35 31 21 23 26 25 26 28 18 10 9 13 26 28 19 13 13 12 12 14 15 17 19 22 67 98 100 100 100 100 100 100 100 100 100 100 100 100 100 100 100 96 100
18 20 28 29 27 29 29 21 12 11 11 20 29 23 15 14 13 15 16 15 16 19 25 43 98 100 100 100 100 100 100 100 100 100 100 100 100 100 100 99 99 100 100

GFSGL_500_rhum_027.txt.gz
RH
25 56 93 93 93 90 93 89 96 100 100 99 94 98 90 55 58 72 88 76 78 76 67 68 74 88 72 13 6 7 9 15 24 34 37 39 25 17 18 25 28 28 28
87 95 90 85 77 73 76 95 99 100 100 87 58 66 46 52 85 93 72 74 84 82 78 100 91 37 6 7 8 10 14 37 42 44 48 30 24 18 26 32 34 34 33
75 94 70 52 42 59 82 66 69 58 65 44 47 41 43 81 94 78 73 90 78 98 99 96 8 5 7 8 10 15 39 51 52 51 41 32 22 22 34 37 42 39 39
59 43 22 24 24 33 43 37 31 37 41 43 44 48 87 92 88 92 73 93 98 92 92 22 6 8 9 11 16 40 57 57 55 57 43 37 22 27 37 41 47 46 43
14 7 5 6 14 14 16 25 35 39 42 45 53 86 84 99 97 93 100 98 59 35 18 13 8 9 11 15 38 43 58 55 68 62 50 40 23 32 42 50 51 48 48
6 6 7 8 8 10 15 24 37 44 50 59 87 84 78 71 100 100 94 65 33 12 8 8 9 11 14 24 42 41 46 70 81 72 54 38 27 35 47 58 54 51 48
9 10 12 12 11 12 18 32 46 54 64 78 82 97 85 85 82 79 63 40 21 10 9 10 11 15 24 41 44 46 68 88 90 75 56 35 30 40 51 62 59 58 54
15 20 21 19 15 16 27 46 54 60 75 96 86 92 92 91 73 60 47 33 16 10 10 12 14 23 46 53 49 72 92 99 88 73 54 35 33 44 56 66 61 65 61
30 31 29 21 17 22 38 52 59 71 84 93 97 100 91 84 72 60 41 20 11 11 12 14 20 46 70 74 81 100 99 100 88 75 50 37 39 49 59 70 63 60 63
39 37 27 21 24 35 48 61 74 93 100 100 98 91 85 81 64 35 16 12 11 11 14 20 39 86 100 100 100 100 100 99 89 66 44 41 45 56 69 75 64 58 63
47 35 26 24 34 51 62 74 84 89 96 93 82 82 84 71 39 18 14 12 12 15 22 33 59 95 100 100 98 100 100 93 67 49 47 49 54 64 80 85 71 62 63
46 33 30 40 56 65 70 75 78 79 75 73 72 78 61 33 21 16 13 14 18 21 35 42 48 72 88 95 91 89 73 54 49 45 53 58 62 74 88 93 80 71 63
43 39 43 55 64 70 72 70 71 70 69 72 78 72 61 42 25 17 18 19 25 46 52 54 47 47 60 65 58 48 41 39 43 42 60 68 70 82 97 98 87 76 69
46 47 55 63 70 75 73 74 80 79 79 82 81 78 70 49 24 16 16 23 39 53 65 60 51 42 44 44 36 34 33 33 40 42 75 70 82 90 100 100 92 82 77
55 61 65 71 79 88 90 85 83 87 87 84 79 70 56 32 14 10 10 13 23 32 36 32 26 25 28 33 35 33 30 29 35 68 62 64 88 97 100 100 96 87 85
68 70 72 78 83 84 81 86 92 92 87 75 61 38 20 14 12 11 11 15 20 23 24 24 25 25 29 34 32 72 99 44 39 86 92 60 97 100 100 100 96 91 91
76 76 77 81 81 85 86 89 92 85 76 52 26 17 16 13 11 11 13 15 15 13 14 21 27 26 24 26 25 25 38 51 78 90 99 65 98 100 100 100 98 95 95
80 80 80 83 84 88 92 90 86 79 55 18 13 13 11 10 11 14 13 9 6 7 16 26 25 25 24 22 22 20 21 28 96 100 86 70 99 100 100 100 100 97 97
86 89 90 91 94 92 89 84 72 43 14 11 10 11 11 14 16 14 8 6 8 18 29 34 36 28 23 20 17 16 23 90 70 100 56 83 100 100 100 100 100 96 92
94 96 97 93 90 89 80 62 29 14 12 11 11 12 15 14 14 10 7 16 26 32 31 30 32 20 18 16 15 17 24 59 99 80 63 100 100 100 100 100 100 97 91
94 96 94 94 89 76 49 22 13 12 12 12 15 17 16 15 10 7 9 26 32 29 20 18 23 19 17 15 15 22 45 100 100 95 100 100 100 100 100 100 100 98 93
100 96 94 90 73 36 17 13 12 12 14 18 19 18 14 9 9 8 14 26 21 12 11 16 24 23 19 16 18 23 74 100 100 100 100 100 100 100 100 100 100 100 98
95 93 90 60 20 14 14 13 13 17 20 21 18 13 8 10 10 10 16 21 16 12 12 13 16 22 21 19 21 57 95 100 100 100 92 99 100 100 100 100 100 100 100
96 77 30 14 15 14 14 15 20 23 23 21 15 8 10 11 11 12 16 17 14 13 14 15 16 18 20 23 96 100 100 100 100 92 86 100 100 100 100 100 100 100 100
46 18 17 16 15 15 18 22 26 26 25 20 10 10 12 13 14 16 19 18 18 17 16 14 16 21 22 31 95 100 100 100 100 87 98 100 100 100 100 100 100 100 100
26 18 16 15 17 21 24 28 30 31 28 20 10 12 13 16 18 21 21 21 21 20 18 17 15 33 67 96 100 100 100 100 91 97 100 100 100 100 100 100 100 100 100

GFSGL_500_rhum_030.txt.gz
RH
69 24 22 24 87 98 97 89 84 75 92 94 92 99 100 100 98 91 75 58 88 94 92 81 80 91 97 88 54 23 14 10 9 10 16 30 36 42 50 56 42 28 19
22 23 24 58 61 78 76 42 59 75 60 60 70 67 55 49 49 73 64 95 100 100 100 100 100 100 100 72 26 15 12 10 11 14 35 43 42 52 65 60 44 26 22
30 33 31 32 76 70 42 33 38 25 20 16 27 26 40 47 65 83 100 97 87 79 77 95 100 100 77 32 26 18 11 11 14 24 39 42 49 67 72 60 41 25 26
30 23 40 42 36 29 9 8 8 11 13 18 23 31 46 58 75 81 85 90 100 87 79 89 81 54 40 27 18 12 12 15 26 42 47 48 80 79 73 60 38 25 33
42 30 27 16 7 7 10 14 16 14 15 17 22 36 48 97 95 94 93 87 90 91 97 75 63 55 40 19 12 12 15 24 47 56 53 85 87 86 74 60 34 27 40
28 16 8 9 11 18 24 26 21 18 16 19 23 45 57 80 99 100 100 93 100 100 93 83 67 44 21 13 13 15 23 46 67 76 79 100 95 90 79 54 33 34 47
11 9 12 18 23 24 32 29 24 21 19 23 37 56 66 88 97 97 100 98 98 98 91 76 44 26 18 14 15 22 38 69 96 100 100 100 96 97 80 44 35 42 55
12 18 22 19 25 39 41 36 28 22 28 41 56 68 77 98 100 100 100 93 85 87 70 52 37 24 17 18 26 30 43 80 100 100 100 100 100 93 58 41 40 49 67
20 20 21 30 45 48 44 35 28 32 43 56 63 71 82 93 98 98 86 76 78 76 68 57 40 25 22 25 35 41 45 66 100 100 100 100 96 65 48 42 46 55 70
16 18 25 41 50 50 44 38 37 43 50 57 66 74 87 90 82 76 76 74 78 80 70 50 31 22 27 34 54 53 51 57 82 78 95 82 63 48 43 45 53 67 79
16 24 35 46 53 52 46 43 45 53 63 73 79 76 75 80 77 77 83 84 79 69 54 28 16 20 31 45 67 72 65 56 55 58 60 51 43 39 41 45 61 76 85
29 43 52 53 54 54 54 57 61 63 68 76 84 86 80 71 72 78 83 75 63 46 24 10 13 16 26 47 52 54 60 44 40 42 45 42 39 38 44 62 67 85 91
40 51 59 55 59 62 62 58 59 62 65 67 69 67 64 70 79 77 71 58 31 15 13 12 11 12 18 24 31 34 35 35 35 40 42 41 39 42 54 85 73 95 94
44 55 58 60 66 65 59 61 62 64 63 62 61 61 66 72 70 65 56 37 14 9 9 10 12 14 17 19 21 27 36 37 39 42 43 45 70 60 88 66 76 100 99
53 59 64 68 66 61 62 60 61 61 64 64 65 68 69 68 63 54 36 20 13 8 7 10 12 13 12 8 8 13 38 39 63 44 82 100 100 86 100 94 88 100 100
64 70 70 66 63 65 62 62 69 69 67 72 72 72 71 63 50 30 18 11 9 9 11 12 12 9 6 8 17 31 37 33 34 84 100 100 100 98 97 100 95 100 100
74 67 66 69 73 73 73 75 77 74 80 83 83 75 62 42 25 17 11 9 11 12 13 12 8 7 16 23 30 31 30 28 28 100 89 100 100 100 100 100 100 100 100
70 67 74 75 75 76 79 83 82 83 84 82 74 58 36 23 16 10 9 12 13 13 10 8 7 17 28 32 35 34 27 25 24 29 100 100 98 73 100 94 100 100 100
74 74 78 81 80 82 86 86 88 87 82 74 56 35 24 14 10 12 16 15 13 8 7 8 11 23 31 29 23 26 20 20 19 20 34 80 98 100 90 97 100 100 100
85 87 90 88 90 89 91 94 91 85 72 50 32 22 14 11 15 19 18 15 7 6 8 8 12 23 18 14 21 22 19 18 17 20 49 100 100 100 97 100 100 100 100
100 100 99 96 98 98 99 94 86 72 48 30 20 13 12 18 22 22 20 14 6 6 8 8 14 17 12 13 21 23 19 17 26 42 99 100 100 98 100 100 100 100 100
100 100 100 100 100 99 94 86 74 52 32 21 12 12 19 25 26 26 24 15 8 8 9 11 15 15 14 14 17 25 21 31 40 72 100 100 100 100 100 100 100 100 100
100 100 100 100 98 92 87 79 59 35 22 14 14 19 26 30 30 31 28 16 10 11 14 15 16 17 16 17 19 24 22 34 76 91 100 100 100 100 100 100 100 100 100
100 100 99 96 93 91 82 59 35 20 16 17 21 25 32 34 33 34 27 16 13 15 16 17 19 18 16 16 21 23 24 35 100 100 100 100 100 100 100 100 100 100 100
100 99 96 95 94 82 55 29 18 18 21 23 26 30 38 37 37 33 23 16 16 18 18 20 21 19 18 16 22 31 73 100 100 100 100 100 96 90 100 100 100 100 100
98 98 96 87 58 36 22 20 22 24 26 27 29 41 44 42 38 28 21 18 19 22 21 22 21 22 23 18 27 61 100 100 100 100 100 100 93 100 100 100 100 100 100

GFSGL_500_rhum_033.txt.gz
RH
28 33 31 58 40 45 46 40 47 63 54 30 32 24 20 29 29 80 76 53 35 36 44 55 72 91 93 100 100 96 96 83 74 66 44 30 19 14 17 26 44 54 60
21 22 22 44 30 35 61 49 72 66 54 33 12 10 12 15 37 37 27 41 47 53 64 75 76 87 100 93 100 100 96 84 72 62 44 20 15 20 31 47 56 81 70
40 32 28 27 36 40 37 46 46 28 10 11 10 15 18 45 48 35 47 56 68 100 97 86 100 100 99 100 100 94 91 82 64 49 32 18 22 29 50 66 84 82 75
48 36 28 33 53 58 43 25 13 7 11 20 24 25 22 25 35 43 49 63 92 98 100 97 100 100 100 100 95 95 77 62 54 31 23 26 30 46 77 88 94 79 80
39 46 64 74 55 29 19 9 10 17 28 28 31 30 27 24 26 40 47 61 75 86 92 100 100 100 95 96 86 73 62 47 28 26 31 34 37 77 99 98 94 95 95
63 58 44 31 24 11 10 15 23 25 27 37 41 36 28 28 34 47 60 65 73 88 100 100 96 89 88 87 79 73 57 38 30 34 40 45 51 86 100 100 97 98 81
40 33 30 17 11 14 21 23 24 27 34 46 48 39 34 38 48 55 58 63 70 86 92 88 81 82 83 79 70 57 40 30 29 34 46 50 76 73 93 98 100 91 62
38 32 15 14 20 22 21 23 25 32 47 51 49 44 45 50 52 59 67 74 80 89 88 79 66 71 72 67 51 34 22 16 21 32 58 66 58 59 63 68 73 70 48
23 14 18 19 17 17 18 20 28 37 43 50 51 54 54 56 59 61 65 76 90 82 66 64 68 66 62 50 28 16 14 15 27 36 56 74 82 74 63 58 58 52 40
18 16 14 15 16 17 22 30 46 52 53 56 61 57 52 55 57 68 73 67 60 56 57 60 60 58 48 27 12 12 10 14 25 28 34 43 54 49 43 47 51 48 40
15 16 17 20 23 26 32 43 50 55 54 64 63 58 60 62 60 62 62 58 51 51 56 56 54 47 34 22 12 9 12 16 20 28 34 39 34 41 45 44 50 47 42
19 23 26 29 33 35 40 42 50 63 69 62 58 60 58 60 55 54 56 57 62 60 60 56 48 39 27 15 9 10 13 16 16 18 25 38 47 45 44 45 45 43 47
26 29 32 36 39 39 44 56 65 64 58 56 59 58 59 60 60 60 62 66 66 66 58 48 39 27 12 8 10 12 13 13 10 9 11 37 62 51 48 48 71 82 79
29 36 40 44 44 51 62 65 62 57 55 56 57 58 60 63 62 63 65 68 68 61 50 44 32 11 7 11 12 12 10 7 8 10 18 53 73 100 84 100 100 99 95
50 54 53 53 57 64 65 65 61 56 55 57 59 64 65 65 66 71 73 72 64 52 47 34 10 8 10 12 10 6 7 12 18 24 36 63 100 100 100 100 100 100 94
70 55 52 67 69 61 59 67 69 64 66 71 73 78 80 77 80 81 76 65 54 45 28 10 9 13 14 10 5 7 10 24 30 30 32 34 46 100 99 100 100 100 97
57 64 75 76 71 69 68 70 71 79 93 96 91 87 94 93 88 79 68 56 46 22 9 11 16 18 15 8 5 7 10 29 32 34 34 29 33 100 100 100 100 100 96
60 78 89 86 86 89 82 80 91 93 95 89 85 92 94 96 86 73 56 46 19 10 14 19 22 21 16 9 5 7 12 24 24 26 25 24 44 100 100 100 100 100 91
74 86 88 88 96 97 92 92 100 100 100 100 98 95 93 89 78 64 46 17 12 14 21 27 27 25 15 9 7 9 16 18 20 23 21 21 57 100 100 100 100 100 94
99 99 100 99 100 98 99 100 100 100 100 99 98 94 90 83 68 44 17 14 14 18 27 31 31 29 15 9 11 15 16 15 24 22 20 20 23 36 100 95 100 100 99
100 100 100 100 100 100 100 100 100 100 100 99 96 90 84 69 37 18 16 15 18 22 33 34 35 26 14 13 14 14 15 16 24 22 19 21 61 77 100 100 100 100 100
100 100 100 100 100 100 100 100 100 100 98 97 91 76 54 23 20 19 18 19 22 30 38 38 34 20 14 15 16 17 17 19 24 24 22 48 94 100 100 100 100 100 100
100 100 100 100 100 100 100 100 99 99 98 94 67 32 24 23 21 20 20 22 28 42 44 42 28 18 18 18 17 18 16 20 26 28 58 99 91 100 100 100 100 100 100
100 100 100 100 100 100 100 100 99 95 80 51 34 30 27 23 22 22 24 29 46 55 49 37 22 18 21 20 20 19 18 21 27 60 100 100 100 100 100 100 100 100 100
100 100 100 100 100 100 100 91 69 49 36 30 31 29 25 26 26 28 36 53 66 59 42 28 21 20 23 22 20 22 22 23 29 87 100 100 100 100 100 100 100 100 100
100 100 100 100 97 81 49 31 28 27 28 28 26 27 29 32 39 49 66 76 70 48 34 25 22 23 24 24 22 25 23 26 56 82 100 100 100 100 100 100 100 100 100

GFSGL_500_rhum_036.txt.gz
RH
41 28 71 61 90 93 48 76 77 61 64 65 53 53 18 11 10 14 19 21 27 35 48 46 53 44 47 54 97 99 100 100 98 100 87 85 82 77 66 52 30 16 14
46 53 97 84 87 69 100 48 38 69 60 51 38 15 9 10 18 23 26 32 31 65 36 37 42 54 66 81 100 100 100 100 90 79 82 81 71 63 49 30 18 18 22
63 65 92 71 62 100 54 44 56 67 50 25 12 9 12 20 24 30 35 37 32 34 36 46 54 63 83 98 94 92 88 84 88 78 68 65 59 44 29 18 15 22 29
81 75 72 71 82 62 48 55 65 47 28 15 10 13 20 25 30 35 43 41 37 39 46 54 69 80 78 82 85 87 91 83 72 71 67 58 40 26 22 20 17 37 44
56 44 33 46 50 76 70 59 34 25 12 12 19 20 22 27 31 41 47 45 44 48 52 61 64 69 81 86 95 86 70 67 66 64 55 38 21 22 33 44 47 57 59
33 36 46 64 77 66 38 30 17 11 19 22 18 20 18 24 38 42 46 50 52 53 56 59 66 69 78 81 67 61 58 61 61 53 33 16 15 27 45 80 76 81 83
51 72 76 57 36 29 27 13 13 16 13 16 16 17 23 34 41 45 49 56 54 52 52 53 58 66 68 62 56 57 57 59 52 37 30 22 13 24 36 49 62 80 85
85 47 42 40 38 29 15 20 20 16 15 17 20 24 28 34 41 49 59 54 50 50 54 58 59 59 58 55 56 60 60 54 42 34 20 12 11 18 26 33 40 53 58
22 33 41 38 19 18 22 17 17 19 21 26 28 30 32 37 48 58 52 52 54 55 58 62 61 56 57 64 67 64 56 48 39 22 10 12 15 17 22 27 34 46 51
36 38 26 18 23 18 18 20 22 26 30 34 36 37 42 48 56 54 53 55 54 55 59 62 63 68 72 72 68 58 49 43 29 8 9 14 15 16 18 29 67 77 58
34 18 19 17 19 21 22 23 27 34 40 40 42 49 56 57 55 55 59 56 59 68 70 73 76 77 75 70 62 54 45 26 10 8 11 11 10 10 13 100 100 100 98
18 18 20 20 19 19 24 36 44 49 47 48 58 64 58 60 57 59 64 69 71 69 69 71 70 72 69 64 56 50 28 10 9 10 11 6 6 8 10 42 100 100 100
18 20 19 18 18 22 42 57 59 52 49 68 69 64 66 70 68 73 79 84 83 74 73 71 72 71 65 58 53 30 11 9 13 14 10 5 9 16 15 24 100 87 100
20 20 20 20 24 37 70 70 54 58 77 72 73 76 80 79 79 79 87 93 87 84 82 81 79 72 63 55 31 11 10 15 18 16 8 6 18 26 35 98 67 100 94
22 22 24 31 50 74 79 66 71 80 84 79 78 85 91 92 87 87 91 96 96 96 88 83 74 65 53 25 11 11 14 21 22 15 8 7 24 32 34 53 100 100 88
24 32 45 67 88 82 62 61 78 87 91 94 100 97 97 100 92 96 99 99 96 95 90 85 77 46 20 14 12 14 21 26 25 12 8 11 25 34 33 73 100 100 97
63 74 86 100 92 74 77 99 98 90 95 100 100 99 99 100 92 94 100 100 97 94 92 73 34 19 16 14 15 18 27 32 22 10 11 20 25 30 32 35 81 100 100
81 98 100 93 94 99 100 100 100 100 100 100 99 100 100 100 100 100 100 100 97 90 59 28 20 19 16 16 18 24 33 34 13 13 16 24 24 24 24 27 34 100 100
95 99 100 93 80 79 100 100 100 100 100 99 96 93 93 99 100 98 95 92 85 51 25 22 21 19 18 19 22 35 40 24 12 14 16 22 26 24 24 29 94 100 100
100 100 100 99 100 100 100 100 100 100 100 100 100 100 100 100 98 98 96 75 33 24 24 22 21 20 21 23 35 45 35 16 14 16 17 21 25 23 24 74 100 100 100
100 100 100 100 100 100 100 100 100 100 100 100 100 100 100 100 98 90 58 27 25 24 23 23 23 24 28 38 52 46 24 15 16 18 19 23 24 22 25 100 100 100 100
100 100 100 100 100 100 100 100 100 100 100 100 100 100 98 97 78 41 24 23 24 26 27 28 31 36 44 57 54 37 19 18 18 18 20 25 24 27 47 62 100 100 100
100 100 100 100 100 100 100 100 100 100 100 100 100 98 84 44 24 23 22 23 27 33 40 46 53 59 68 64 48 29 19 21 20 20 21 27 26 68 99 100 100 100 100
100 100 100 100 100 100 100 100 100 100 100 99 83 45 22 22 21 22 24 28 35 42 54 71 83 84 79 55 37 24 22 23 21 22 23 29 45 100 100 100 100 100 100
100 100 100 100 100 100 100 100 100 98 79 39 18 19 18 18 20 21 21 22 24 42 78 98 97 90 66 46 32 24 25 24 23 25 27 73 98 100 100 100 100 100 100
100 100 100 100 100 100 99 94 67 28 16 16 15 15 16 15 14 14 14 16 20 40 70 93 87 66 54 42 28 28 28 26 26 27 30 100 100 100 100 100 100 100 100

GFSGL_500_rhum_042.txt.gz
RH
82 97 94 98 98 86 96 78 86 91 98 97 96 96 98 97 81 60 34 14 15 30 23 14 14 14 17 22 31 38 45 50 40 40 43 47 47 52 57 60 63 61 57
91 93 96 88 99 71 97 99 97 97 98 97 92 89 66 78 66 32 30 11 16 15 14 15 16 21 25 30 35 48 50 44 37 39 42 46 51 58 65 62 59 60 58
51 87 97 99 96 99 96 90 84 88 97 94 60 60 72 62 34 23 12 16 14 15 17 18 23 26 33 37 44 40 43 41 42 42 44 50 58 68 65 65 66 67 65
47 51 69 72 93 82 65 71 57 64 53 60 73 70 52 30 26 14 16 15 16 16 17 24 31 35 36 39 45 45 42 47 51 52 56 63 67 74 74 79 76 73 69
14 15 27 46 45 45 51 55 44 50 50 60 75 46 26 28 15 14 15 16 15 17 26 33 38 39 42 45 42 47 57 61 64 68 70 69 74 82 88 83 79 79 66
15 32 44 40 40 40 51 58 63 65 46 34 36 30 27 15 14 16 16 15 16 22 34 44 45 44 47 46 53 62 66 69 72 74 76 77 84 93 88 79 78 72 62
25 39 41 39 52 58 58 59 57 27 20 26 28 20 15 14 16 18 15 14 16 36 53 54 48 49 51 55 70 71 78 86 85 78 84 94 89 89 87 85 78 65 41
39 53 48 43 46 46 57 35 18 20 30 31 18 17 15 17 18 15 15 17 35 59 61 52 54 61 64 71 73 94 98 100 94 95 96 92 94 96 95 86 69 41 15
38 45 51 45 50 50 22 19 16 23 31 22 17 16 17 17 16 17 20 35 65 75 64 60 69 74 85 88 94 100 95 86 90 91 85 85 92 94 91 70 38 15 12
25 25 34 34 34 27 24 22 18 27 26 16 15 17 18 18 19 24 35 63 84 83 72 68 78 97 91 83 88 91 82 81 82 87 84 92 96 93 73 33 15 13 14
14 15 17 26 32 33 28 19 21 26 16 15 16 19 21 22 27 40 67 89 95 80 70 73 96 94 83 87 95 92 88 87 85 81 86 90 88 76 33 14 14 14 16
13 13 13 15 24 27 21 22 23 16 15 16 20 23 24 28 49 73 82 89 92 91 97 98 92 91 95 99 100 100 98 88 86 86 89 88 80 32 12 13 14 17 20
12 13 14 18 21 23 23 18 16 16 18 21 24 27 29 46 84 89 92 98 97 99 100 100 99 100 100 100 100 98 92 91 91 91 89 80 28 11 12 12 14 20 24
11 12 13 16 19 17 16 17 18 20 23 28 32 30 37 68 99 100 100 100 100 100 98 96 100 100 100 100 96 96 98 96 96 94 77 19 11 11 11 12 15 24 31
13 13 15 16 16 17 18 19 21 25 30 37 42 51 81 99 100 100 99 92 82 88 93 99 100 100 100 97 99 100 100 100 97 64 15 12 11 11 11 17 25 36 21
16 16 17 18 19 21 23 25 29 34 39 70 99 100 100 100 100 93 84 92 100 100 100 100 100 100 100 100 100 100 100 97 51 14 13 12 10 10 13 28 38 36 14
21 22 24 25 28 30 33 38 50 80 98 100 100 99 100 95 94 93 97 100 100 100 100 100 99 99 100 100 100 100 90 36 14 13 12 11 10 11 19 43 48 19 17
41 39 41 54 70 80 92 99 100 100 100 100 99 100 100 100 100 100 98 100 100 100 99 98 99 100 99 99 98 72 17 13 13 12 11 12 12 14 36 60 42 18 24
100 100 100 100 100 100 100 100 100 100 100 100 100 100 100 100 100 100 100 100 100 100 100 100 100 100 100 90 30 13 13 12 11 11 12 13 15 22 61 56 24 20 28
100 100 100 100 99 98 100 100 100 100 100 100 100 100 100 100 100 100 100 100 100 100 100 100 100 95 42 13 12 12 11 11 12 13 14 16 19 44 72 41 20 22 29
100 100 100 100 100 100 100 100 100 100 100 100 100 100 100 100 100 100 100 100 100 100 100 93 39 13 12 11 11 10 11 12 14 15 15 19 35 78 71 26 21 24 31
85 96 100 100 100 100 100 100 100 100 100 100 100 100 100 100 100 100 100 100 100 78 26 13 11 11 11 11 11 12 13 16 16 17 20 28 78 80 40 23 23 29 29
40 90 100 100 100 100 100 100 100 100 100 100 100 100 100 100 100 100 92 47 15 11 10 10 11 11 11 12 14 14 16 18 19 22 26 64 72 50 27 25 25 30 30
99 99 100 100 100 100 100 100 100 100 100 100 100 100 100 95 57 16 12 10 10 10 11 11 12 13 14 16 17 18 18 19 24 29 47 62 55 31 29 27 31 31 34
100 100 100 100 100 100 100 100 100 100 100 99 88 56 19 12 10 9 9 10 11 11 12 14 15 15 16 18 19 19 20 25 31 50 62 57 36 32 31 34 40 84 100
100 100 100 100 100 100 100 100 94 78 52 24 10 8 9 9 9 10 11 12 13 14 15 15 17 18 18 17 16 20 26 38 58 66 56 37 35 34 32 43 92 100 100

GFSGL_500_rhum_045.txt.gz
RH
95 100 99 100 98 97 98 91 93 86 79 96 97 97 94 98 99 97 95 94 78 32 27 38 29 16 13 12 13 20 27 32 35 35 32 42 52 56 60 59 66 73 77
70 87 96 98 96 98 98 98 98 98 97 98 96 97 96 97 96 96 91 70 31 22 29 19 14 13 12 12 20 29 38 40 42 40 40 51 59 72 77 81 82 74 76
43 38 46 60 94 96 97 91 98 93 93 92 94 90 71 87 84 83 59 28 25 20 14 13 13 14 14 22 35 46 48 49 51 46 49 70 76 84 86 83 74 77 84
24 19 26 40 47 57 88 48 40 75 77 80 51 49 64 85 92 84 35 29 18 15 15 16 14 16 23 38 55 59 54 49 58 60 67 70 82 97 83 79 77 91 84
25 24 18 20 25 44 75 57 48 48 65 93 84 90 90 64 81 78 33 20 15 16 18 18 18 19 32 56 67 60 52 59 65 68 78 86 89 94 91 85 80 72 73
30 22 17 23 37 56 68 64 67 68 70 69 62 82 47 69 63 30 20 17 18 20 21 19 19 25 41 66 77 69 64 68 77 87 88 77 82 97 88 84 83 78 66
18 15 16 34 45 53 56 60 59 60 73 72 69 68 57 34 34 20 19 19 21 22 20 20 24 33 55 81 80 73 70 77 82 89 85 85 90 90 84 88 88 81 74
18 16 16 32 46 59 64 62 58 71 84 44 24 18 26 33 26 18 18 18 21 22 21 22 30 57 82 91 91 88 84 84 88 90 89 91 89 92 94 90 86 82 80
12 13 19 36 44 51 68 72 66 52 41 24 24 21 21 30 22 19 20 21 22 23 24 31 61 80 88 91 92 96 94 98 98 98 100 100 100 100 97 95 99 99 93
14 17 26 33 27 26 31 44 61 39 34 32 30 21 20 28 21 19 19 22 25 26 28 48 83 92 92 92 89 89 87 93 99 100 100 100 100 100 100 100 100 100 85
15 28 25 17 14 15 16 17 24 36 39 34 26 20 24 24 18 18 19 22 25 30 33 56 64 95 97 96 99 97 90 93 100 100 98 100 100 100 100 100 100 88 36
21 20 17 11 11 12 13 15 21 29 29 23 21 23 20 17 17 18 20 24 32 39 48 73 97 100 100 100 98 93 97 99 99 94 94 100 99 100 100 100 87 33 9
22 24 23 12 11 12 13 14 17 19 19 18 18 17 16 17 19 22 27 35 45 67 99 100 100 100 100 99 100 100 100 100 100 100 100 100 100 100 100 90 44 9 8
31 39 43 33 16 12 13 14 16 16 15 15 16 16 18 20 25 30 36 46 56 97 100 99 100 100 100 100 99 100 100 100 100 100 98 96 98 98 92 41 9 8 7
41 45 45 43 32 17 14 16 16 17 18 18 19 21 24 28 34 43 61 94 100 99 99 100 100 100 100 100 100 100 100 100 99 98 98 98 99 90 29 10 9 9 9
49 43 39 34 27 20 18 19 20 22 23 25 28 31 36 56 92 100 100 94 98 100 100 100 100 100 100 100 100 100 100 100 100 100 100 99 79 21 10 9 9 10 10
80 74 48 36 35 31 29 27 27 30 34 44 74 94 100 100 100 100 100 100 100 100 99 100 100 100 100 100 100 100 100 100 100 100 98 46 12 10 10 10 10 12 14
95 96 97 99 100 100 100 99 96 100 100 99 94 90 94 94 100 100 100 100 100 100 100 100 100 100 99 98 99 100 100 100 99 68 15 12 10 10 11 12 13 14 17
100 100 100 100 97 91 89 92 98 100 100 100 100 100 100 100 100 100 100 100 100 99 99 99 98 97 98 99 100 100 100 74 19 12 11 11 11 12 13 14 16 17 30
100 100 100 100 100 100 100 100 100 100 100 100 100 100 100 100 100 100 100 100 100 100 100 100 100 100 100 100 100 77 16 12 11 11 12 12 14 15 15 16 19 21 64
100 100 100 100 100 100 100 100 100 95 96 78 83 91 100 100 100 100 100 100 100 100 100 100 100 100 100 74 17 12 11 11 12 13 15 15 16 18 18 19 23 52 68
95 99 100 99 96 89 88 100 100 100 100 100 100 100 100 100 100 100 100 100 100 100 100 100 90 49 13 11 11 11 12 14 16 16 16 18 20 20 19 24 40 73 37
100 100 100 100 83 87 99 100 100 100 99 100 100 100 100 100 100 100 100 100 99 87 51 18 10 10 10 11 12 14 15 16 16 18 19 21 20 21 25 40 64 47 28
95 100 99 100 100 100 100 100 100 100 100 100 100 100 100 100 100 97 78 42 16 9 9 9 10 11 12 13 14 16 17 18 19 20 19 18 24 28 45 60 54 31 30
100 100 100 100 100 100 100 100 100 100 100 100 98 90 73 46 19 10 8 9 9 9 10 10 11 12 12 14 16 18 19 19 17 14 15 24 37 59 65 57 35 33 36
100 100 100 100 100 99 96 88 72 48 25 13 9 8 9 9 9 9 9 9 10 10 10 11 12 15 16 17 16 14 10 8 9 15 30 52 68 69 52 38 37 39 56

GFSGL_500_rhum_048.txt.gz
RH
68 78 84 76 71 72 85 95 97 98 99 89 76 85 90 92 96 98 97 92 98 99 98 97 76 57 53 49 30 21 16 16 15 19 40 52 53 50 54 54 55 61 75
58 68 79 98 96 89 93 95 99 92 89 95 98 94 99 98 97 89 98 97 98 97 96 67 31 21 30 38 18 16 15 14 18 23 47 61 56 55 56 60 74 87 84
66 75 74 65 62 65 68 90 95 95 86 97 99 97 97 91 55 75 84 80 74 71 73 35 26 24 24 17 15 16 15 20 23 41 64 74 70 68 63 71 78 86 87
46 36 35 36 36 40 44 51 56 90 91 53 86 97 99 96 77 73 77 85 89 85 60 35 25 18 16 17 16 19 21 25 40 64 76 79 76 76 75 76 78 89 91
38 47 47 36 27 24 22 33 45 72 91 88 58 86 90 89 100 97 61 64 77 76 57 27 18 15 18 20 21 22 28 37 60 65 73 79 84 87 88 89 79 68 86
61 53 35 35 34 22 17 33 45 63 76 72 79 72 80 86 82 74 79 85 76 39 27 20 15 16 20 23 24 24 27 39 69 86 93 89 91 90 89 91 87 86 80
57 40 34 35 24 16 20 37 50 62 75 81 80 82 93 95 67 56 65 36 28 27 23 16 17 19 23 26 27 30 45 79 86 92 99 99 97 100 92 89 90 82 86
54 41 31 14 14 15 18 32 52 68 81 93 83 78 80 77 76 70 24 20 21 30 22 17 17 19 25 27 30 36 45 78 95 100 100 100 100 98 94 90 88 86 87
53 38 21 16 13 13 26 32 38 44 42 55 77 74 54 49 53 31 30 23 21 27 25 21 23 25 29 33 39 44 53 77 90 98 100 100 97 97 96 94 95 88 75
69 40 24 16 14 23 33 26 20 18 17 20 41 51 46 54 37 36 31 24 29 38 28 22 24 26 30 36 41 48 66 97 100 100 100 100 98 98 96 96 92 91 91
70 51 32 23 21 22 26 17 12 13 17 18 20 31 22 26 34 33 28 28 34 31 24 24 26 29 32 38 51 63 92 100 100 100 100 100 100 100 100 100 100 100 100
61 52 49 53 39 25 17 25 18 14 12 13 14 17 21 27 28 28 29 32 28 25 26 27 30 37 44 54 62 90 100 100 100 100 100 100 100 100 100 100 100 100 100
77 73 63 70 50 34 24 30 40 30 23 18 15 16 22 25 27 30 28 25 25 26 29 33 41 56 66 74 100 100 100 100 100 100 100 100 100 100 100 100 100 100 100
93 77 69 54 46 41 38 38 44 44 39 30 21 18 20 22 22 22 22 24 27 34 42 51 61 75 100 100 100 99 100 100 100 100 100 100 100 100 100 100 100 100 100
82 69 54 42 40 44 44 46 44 39 32 27 24 23 22 22 23 25 27 33 43 51 82 98 100 100 100 100 100 100 100 100 100 100 100 100 100 100 100 100 100 100 84
79 78 78 86 86 76 72 72 76 80 57 53 59 59 61 58 54 52 56 67 87 100 100 100 100 100 100 100 100 100 100 100 100 100 100 100 100 100 100 100 99 60 12
96 99 98 97 98 97 93 89 91 95 99 97 94 93 92 96 100 100 100 100 100 100 100 100 100 100 100 100 100 100 100 100 100 100 100 100 100 100 100 85 19 11 10
100 100 91 94 98 96 87 93 100 100 100 100 100 100 100 100 100 100 100 99 99 100 100 100 100 100 100 100 100 100 100 100 100 100 100 100 100 84 26 12 11 12 13
100 100 98 100 99 100 99 96 98 100 100 100 100 100 100 100 100 100 100 100 100 100 100 100 100 100 100 100 99 99 100 100 100 100 99 68 17 12 12 12 13 15 15
99 100 100 97 98 100 100 100 100 100 100 100 100 100 100 100 98 100 100 100 100 100 100 100 100 100 100 100 100 100 100 100 85 30 12 12 12 12 14 15 16 16 18
99 100 100 100 100 100 100 99 100 100 100 100 100 100 100 100 100 100 100 100 100 100 100 100 100 100 100 100 100 88 32 10 10 12 12 13 14 15 16 17 19 19 20
99 97 93 96 94 98 100 100 100 94 81 87 96 99 100 100 99 99 99 98 98 98 100 100 98 86 44 17 10 10 10 11 11 12 13 14 15 17 18 20 21 20 18
96 94 46 44 91 100 97 94 96 99 100 100 100 99 98 98 99 99 96 89 71 45 24 11 9 9 10 10 10 10 10 11 11 12 14 17 20 21 21 20 18 19 24
46 46 76 99 100 100 100 100 100 98 97 91 77 56 33 15 12 10 10 9 10 9 9 9 9 9 9 9 9 10 10 13 15 16 18 18 17 14 12 13 18 30 48
100 100 100 100 100 98 91 74 52 28 14 9 9 9 8 8 9 9 9 9 10 10 10 9 9 9 9 10 12 14 15 15 13 12 9 7 6 8 13 26 45 63 63
98 85 59 31 14 9 9 9 9 9 9 9 8 8 9 9 10 10 10 10 11 11 11 11 11 12 13 13 12 10 8 6 5 4 4 7 14 28 53 67 70 62 47

GFSGL_500_rhum_051.txt.gz
RH
57 54 52 62 71 63 61 87 92 97 98 98 99 100 89 52 49 56 74 83 94 99 99 97 99 97 100 99 97 88 74 80 52 42 18 15 17 18 18 35 54 62 76
36 33 50 56 60 80 96 93 82 72 83 98 96 88 97 88 98 99 100 97 97 100 99 97 99 98 98 97 85 69 44 51 26 18 21 16 18 19 25 53 74 82 82
51 53 42 41 64 73 59 56 56 62 68 76 92 68 89 88 96 97 93 92 81 96 96 95 95 94 95 61 43 34 33 21 20 21 17 18 21 23 31 50 73 81 84
51 52 53 46 42 37 37 33 33 36 45 41 72 92 84 76 97 98 98 95 86 88 88 82 78 81 87 82 60 47 27 19 18 19 19 20 24 29 43 39 48 74 92
53 48 59 48 61 52 40 37 36 28 23 36 46 82 92 97 87 84 76 84 100 98 71 54 79 73 74 43 29 23 20 18 18 21 22 24 29 38 41 51 71 92 100
66 59 59 47 61 50 31 29 33 28 18 28 42 64 84 97 90 82 73 99 96 76 76 62 77 45 33 34 28 20 19 19 21 27 27 33 38 44 52 62 92 100 96
72 71 63 58 58 46 30 33 22 18 16 21 29 49 66 86 97 92 91 91 92 90 78 65 29 23 22 33 31 23 22 22 24 26 34 41 53 67 64 96 100 98 91
94 91 88 83 59 38 35 20 14 13 18 32 38 48 66 78 96 97 74 80 74 62 65 38 32 30 24 28 37 32 25 26 27 36 46 52 60 72 86 92 92 88 92
99 96 95 90 78 50 30 15 14 12 22 38 35 31 38 60 53 69 70 84 62 48 49 41 39 32 28 29 43 40 31 30 33 42 55 62 65 77 90 95 92 92 89
77 87 97 90 78 52 32 37 15 14 25 27 18 13 13 13 15 18 23 29 53 43 54 43 36 33 35 46 47 34 32 35 44 49 48 58 80 96 97 94 95 96 98
90 86 64 58 57 62 82 76 43 33 24 20 19 19 18 15 16 19 32 29 28 32 33 34 33 41 52 48 38 37 43 47 48 62 91 100 100 100 100 99 99 96 95
91 90 80 76 70 87 95 85 84 78 50 38 36 35 36 37 35 30 23 26 28 31 36 40 44 47 42 46 48 51 51 61 94 100 100 100 100 100 100 100 100 99 98
91 84 91 100 98 98 98 89 72 65 47 37 33 36 43 47 42 35 31 27 28 32 37 45 50 55 62 64 68 74 93 100 100 100 100 100 100 100 100 100 100 100 100
93 82 99 95 98 100 97 91 85 69 58 48 42 47 50 46 40 39 50 34 33 38 48 55 68 76 74 84 96 100 100 100 100 100 100 99 100 100 100 100 100 100 100
94 99 88 97 99 98 100 99 96 82 96 97 93 90 91 94 92 83 68 73 82 93 99 100 100 100 100 100 100 100 100 100 100 100 100 100 100 100 100 100 100 100 100
93 94 95 100 100 99 100 100 100 99 97 100 100 100 100 100 100 100 100 100 100 100 100 100 100 100 100 100 100 100 100 100 100 100 100 98 98 98 100 100 100 100 100
88 100 100 100 100 100 98 97 87 90 98 99 100 100 100 100 100 100 100 100 100 100 100 100 100 100 98 98 99 99 100 100 100 98 95 100 100 100 100 100 100 100 78
96 98 100 100 100 100 99 100 98 100 100 100 100 100 100 100 100 100 100 100 100 100 100 100 100 100 100 100 100 98 96 94 93 99 100 100 100 100 100 93 46 14 12
100 99 100 100 100 100 100 100 100 100 100 100 100 100 100 100 100 99 99 100 100 100 100 99 96 96 93 87 84 86 94 100 100 100 100 100 85 36 12 11 11 12 12
100 100 100 100 93 97 100 100 100 100 100 100 100 100 100 100 100 100 100 100 100 96 92 88 84 83 80 78 79 81 76 74 56 30 14 10 10 10 10 10 11 11 14
100 100 100 100 100 99 99 97 99 100 98 96 95 75 74 93 98 96 95 91 89 88 85 77 63 48 31 17 10 9 9 9 10 9 10 10 10 10 10 10 13 16 19
100 99 82 82 97 100 100 100 99 99 100 88 50 64 83 84 83 85 84 76 61 39 19 10 9 9 9 9 9 9 9 9 9 9 10 10 10 10 12 15 17 18 18
89 86 82 82 84 80 76 68 64 64 75 86 86 83 83 83 68 38 16 11 9 9 8 8 8 8 8 9 9 9 10 10 10 10 10 11 12 13 12 12 11 10 10
95 94 92 94 95 96 98 96 94 93 96 95 80 48 20 10 9 9 9 8 8 7 7 8 9 10 10 10 10 11 12 11 11 12 12 11 9 8 7 6 6 7 12
100 98 97 96 95 97 98 93 77 51 27 15 13 10 10 10 9 8 7 7 8 9 10 11 11 11 12 13 13 13 14 14 12 9 8 7 6 5 5 6 10 20 33
99 99 96 85 64 40 22 14 11 11 11 10 10 9 7 7 8 9 10 11 11 11 10 11 12 15 16 17 17 16 12 10 10 9 8 7 7 11 20 31 49 61 66

GFSGL_500_rhum_054.txt.gz
RH
28 27 32 37 38 40 48 57 49 64 87 86 86 88 94 98 94 90 87 49 29 42 66 81 80 93 90 95 99 98 98 100 99 98 96 85 84 56 28 20 18 17 19
32 27 29 32 36 31 42 52 59 65 64 62 62 64 72 87 74 83 97 97 77 48 79 83 91 100 98 95 99 99 98 98 96 88 75 64 35 41 24 19 19 19 20
34 32 37 46 44 43 47 57 61 58 47 52 34 39 51 48 83 79 88 93 85 94 100 90 94 96 99 98 98 97 97 100 97 89 78 60 43 22 20 21 21 22 22
42 44 52 49 50 55 69 64 48 42 39 35 32 28 25 42 51 88 84 67 87 89 99 88 86 88 91 94 93 79 84 79 69 60 36 26 24 22 22 22 20 24 29
68 69 66 63 57 51 56 52 60 52 37 33 34 32 27 22 32 67 83 87 77 86 80 91 90 97 96 93 80 76 75 50 37 32 31 29 24 22 22 21 23 28 34
98 85 80 69 67 69 56 52 55 56 41 30 32 28 22 20 27 40 57 87 95 97 96 97 99 99 94 84 83 73 63 38 28 25 32 38 31 25 25 24 27 27 28
96 73 62 55 71 83 72 66 69 67 43 35 27 15 18 21 32 54 70 82 98 98 98 95 87 100 99 82 73 75 44 40 38 31 27 36 41 34 29 28 30 36 44
92 78 79 71 66 80 86 76 73 65 44 43 20 21 22 43 46 51 58 60 69 72 74 84 89 84 78 59 51 57 48 43 40 32 30 38 46 39 34 37 44 53 79
74 64 80 72 84 98 98 90 75 81 64 50 31 15 20 34 48 35 24 31 46 45 41 36 40 57 44 51 99 75 98 64 40 37 42 52 56 50 52 56 68 93 100
90 97 100 88 96 96 86 77 79 83 65 49 39 33 18 27 30 23 23 20 26 22 22 25 27 30 41 44 45 69 64 36 41 45 67 61 59 57 76 100 100 100 100
77 94 98 97 96 99 94 81 48 67 83 91 85 68 43 28 28 32 29 23 21 28 35 36 38 43 66 39 45 34 38 49 50 79 71 72 85 100 100 100 100 100 100
97 98 98 95 99 89 91 89 100 99 97 98 100 95 90 79 64 45 50 57 54 51 48 44 39 87 91 47 55 58 54 58 74 94 100 100 97 99 100 100 100 100 100
96 98 95 94 93 95 99 100 100 100 99 97 98 100 96 90 70 60 57 50 65 96 100 89 43 76 83 49 55 84 99 100 100 100 99 100 100 100 100 100 100 100 100
100 94 92 100 100 100 99 98 90 88 91 92 99 98 94 82 69 74 72 100 100 71 82 95 94 96 98 100 100 100 100 100 100 100 100 100 100 100 100 100 100 100 100
94 100 100 100 100 98 97 100 99 94 93 96 100 94 90 92 97 97 97 94 97 100 100 100 100 100 100 100 100 100 100 100 100 100 100 100 100 100 100 100 100 99 100
100 100 100 100 100 79 72 89 92 83 85 100 98 95 97 100 100 100 99 97 100 100 100 100 100 100 100 100 100 100 100 100 100 100 100 99 99 98 92 90 97 99 99
94 88 88 84 81 81 96 100 100 91 98 91 90 98 100 99 100 100 100 100 100 100 100 100 100 100 100 100 100 100 100 100 99 97 95 87 85 74 61 56 47 41 31
98 100 98 100 100 98 96 94 100 100 99 100 100 100 100 100 100 100 100 100 100 100 100 100 100 100 100 100 99 99 98 97 91 78 58 35 20 14 11 10 10 10 10
100 100 99 98 100 100 99 100 100 100 100 100 100 100 100 100 100 100 100 100 100 100 100 89 59 66 87 94 95 95 78 50 25 16 11 9 9 9 9 8 8 9 9
100 100 100 100 100 100 99 100 100 100 100 100 100 100 100 100 100 100 100 99 98 98 85 71 85 89 94 84 54 30 15 13 11 9 9 8 7 7 7 8 8 9 10
100 100 100 100 100 100 100 100 100 100 100 98 98 100 100 99 98 95 73 74 83 91 95 92 90 71 47 29 20 14 11 9 8 7 6 7 8 8 8 9 11 11 11
94 88 96 99 100 100 100 100 100 100 100 94 83 78 81 81 89 93 92 94 95 85 69 49 27 17 13 11 10 8 7 6 7 7 7 8 8 9 10 11 12 11 10
93 91 81 80 85 89 90 90 92 95 96 96 96 90 86 87 89 88 80 55 32 17 12 11 11 10 8 7 7 7 7 7 7 8 9 11 12 13 12 11 9 7 6
92 98 100 100 100 100 100 100 98 95 92 90 89 85 77 61 37 17 13 12 12 11 10 9 7 7 7 6 7 7 8 11 13 14 14 14 12 10 8 7 6 5 5
98 100 95 91 92 95 93 94 92 87 80 65 42 21 12 12 12 12 11 10 8 8 7 7 7 7 8 10 12 15 16 17 18 16 13 11 11 10 9 7 6 7 10
100 100 98 94 91 82 66 44 22 16 14 13 13 13 13 11 9 8 8 8 8 8 8 9 10 12 16 19 20 20 21 19 15 14 13 16 17 17 19 24 32 38 48

GFSGL_500_rhum_057.txt.gz
RH
30 32 31 24 26 30 36 42 42 38 26 36 55 71 70 69 75 74 78 83 72 75 82 85 56 49 54 68 73 80 90 98 83 81 93 91 94 97 99 85 74 71 47
32 34 40 27 25 24 30 35 32 40 51 60 59 56 58 55 53 56 57 73 74 70 92 100 96 93 79 58 93 88 99 99 95 96 98 96 95 97 88 85 80 58 43
34 39 41 36 30 36 44 44 38 38 44 50 51 46 49 33 26 26 34 44 52 68 67 77 89 96 88 90 94 87 97 98 98 96 85 68 73 65 53 44 37 28 27
49 52 48 43 38 40 46 44 40 49 58 49 41 37 35 33 31 29 28 25 25 31 53 67 62 73 86 96 82 91 95 91 85 79 73 71 75 58 30 30 26 26 29
50 56 62 51 55 58 56 57 57 52 56 50 53 49 43 39 36 30 30 25 24 23 22 48 74 92 85 88 100 100 100 99 97 94 87 84 84 81 50 38 35 31 25
69 60 72 63 60 64 68 68 66 60 57 51 50 52 52 38 31 29 31 30 29 28 30 51 77 94 98 98 98 99 100 96 98 92 84 64 64 58 53 46 40 35 30
58 64 62 75 66 61 69 63 70 74 76 64 62 68 64 44 37 26 16 31 41 49 62 71 84 94 97 99 100 99 93 88 98 93 95 83 88 95 100 100 85 37 40
61 67 70 73 77 72 78 62 74 68 63 72 79 81 78 72 49 44 38 31 37 48 60 59 53 53 61 74 72 82 77 57 73 99 76 100 100 88 97 100 58 43 54
68 72 84 89 98 86 67 65 78 68 61 87 84 85 81 78 65 58 58 47 36 53 55 40 52 49 53 47 55 69 63 45 82 37 46 42 42 91 63 42 55 63 84
86 82 81 76 76 76 72 87 89 88 77 89 66 75 94 95 78 57 60 70 62 34 32 35 33 24 23 23 22 26 33 38 42 47 100 99 81 56 80 76 66 89 87
87 97 93 97 97 94 91 85 92 96 85 70 78 92 86 67 69 76 85 83 74 60 53 56 47 43 45 46 46 49 50 47 47 94 100 100 98 70 71 96 97 100 100
78 97 100 100 98 95 97 93 100 100 96 100 91 99 98 98 96 83 81 98 99 92 89 91 75 58 51 53 60 85 99 83 100 99 94 90 92 96 99 100 100 100 100
91 100 100 100 100 96 94 100 100 92 93 96 100 96 97 98 100 99 98 98 99 97 97 93 78 81 85 95 100 100 100 96 97 100 100 100 100 100 100 100 100 100 100
75 100 100 100 100 100 100 100 100 100 100 98 97 99 99 97 82 89 100 100 99 100 96 93 94 100 100 100 100 98 99 100 100 99 100 100 100 100 100 100 100 100 100
85 92 100 100 100 98 98 96 98 98 95 99 100 95 98 100 86 90 99 96 97 99 99 100 98 100 100 99 100 100 98 100 100 100 100 100 100 100 100 100 100 100 100
62 81 85 98 99 96 85 92 98 99 98 100 100 100 98 91 100 99 100 100 99 100 100 100 100 100 100 100 100 100 100 100 100 100 100 99 96 97 99 100 100 93 67
77 74 69 62 100 100 92 99 99 96 100 100 100 100 100 100 100 99 99 97 100 100 100 100 100 100 100 99 99 100 98 95 99 100 97 97 100 98 90 79 55 30 18
100 97 96 99 97 87 96 96 97 100 99 99 100 100 100 99 100 100 100 100 100 100 100 100 100 100 100 100 100 100 99 96 87 84 87 86 79 62 34 18 13 11 10
99 100 100 96 99 100 99 99 100 99 100 98 100 100 100 100 100 100 100 100 100 100 100 100 100 100 100 97 89 87 91 88 82 73 55 28 15 11 11 10 9 7 6
100 100 100 100 100 98 100 98 99 100 100 100 100 100 100 100 100 100 100 100 100 100 97 90 87 83 82 86 86 82 70 43 22 13 12 12 11 9 7 6 6 6 6
99 100 100 100 100 100 100 100 100 100 100 100 100 100 100 100 100 100 100 99 99 99 100 98 88 86 84 68 47 21 12 12 12 11 9 7 6 5 6 6 6 7 9
100 100 100 100 100 100 100 100 98 100 97 95 97 99 100 99 100 100 100 99 98 95 91 81 68 48 25 14 12 12 12 10 7 6 6 6 6 7 8 10 10 10 11
100 100 98 97 99 100 94 82 81 85 96 99 99 99 99 100 99 97 95 91 81 62 36 19 14 13 13 12 10 8 7 6 7 7 7 8 10 11 12 13 12 10 9
96 97 88 84 85 83 81 80 83 83 88 89 90 92 95 96 87 67 41 22 15 14 14 13 12 9 8 7 7 7 7 8 8 10 12 12 14 14 13 12 11 11 10
89 91 94 94 98 94 93 94 96 96 96 94 86 61 29 16 15 15 14 14 12 10 8 7 8 8 8 8 8 8 9 11 13 14 15 16 16 14 14 13 16 17 18
94 98 99 100 98 93 86 76 60 38 21 16 16 16 15 14 12 10 8 8 8 9 9 9 9 9 9 9 10 12 14 16 18 21 18 19 22 22 22 31 45 51 54

GFSGL_500_rhum_060.txt.gz
RH
39 38 33 31 30 25 28 33 36 36 32 32 24 26 33 62 64 61 61 72 75 73 85 86 84 82 88 93 94 82 67 73 63 66 67 88 90 97 95 97 73 86 87
39 36 33 33 38 28 29 27 26 30 29 37 49 58 62 60 56 53 54 48 47 50 51 60 76 76 73 91 99 100 100 99 84 74 85 99 94 100 98 93 77 78 86
33 32 30 29 36 38 32 31 34 36 37 38 38 44 55 50 48 49 42 26 26 26 28 32 34 41 62 85 82 72 88 99 97 91 74 82 91 96 91 98 80 75 72
44 37 36 34 43 46 41 39 34 40 45 45 42 47 50 43 40 39 37 34 33 32 31 28 25 24 32 71 90 86 94 86 95 88 77 88 98 99 96 90 90 97 71
55 50 52 52 47 48 52 50 49 50 49 53 45 51 49 44 44 46 48 47 39 35 32 29 24 26 30 41 70 67 96 100 99 95 97 92 86 92 89 88 75 98 100
36 40 63 66 69 63 56 55 59 60 57 48 51 61 63 60 52 48 50 54 40 29 28 24 26 33 38 46 54 75 93 99 88 92 97 89 87 94 88 64 77 100 64
66 52 52 55 58 68 72 69 66 67 69 68 49 47 53 62 64 62 66 60 58 38 36 30 37 40 50 62 69 74 80 78 77 92 90 67 99 91 52 74 100 79 45
80 79 74 67 61 58 58 71 78 69 68 85 84 55 58 59 66 81 87 75 67 62 56 43 46 35 39 53 68 64 56 65 62 65 55 46 36 48 85 55 37 43 78
68 64 74 82 74 65 63 71 100 97 94 97 63 60 59 70 73 93 89 82 84 72 74 68 48 53 58 55 32 33 36 42 37 37 34 25 30 54 46 41 48 50 80
30 33 38 39 47 68 69 71 79 73 67 63 64 53 62 82 79 69 67 71 72 82 67 52 70 75 69 70 72 60 65 63 61 60 94 80 76 60 63 77 54 84 100
9 9 20 22 28 44 67 72 73 73 83 93 99 81 77 84 77 73 75 85 85 90 84 76 68 61 73 99 92 95 98 82 78 100 67 85 78 99 88 100 99 99 100
12 14 14 24 29 33 64 87 80 94 100 100 100 95 100 100 90 87 87 95 96 90 85 88 98 97 96 90 96 91 93 100 84 85 88 96 86 100 100 100 100 100 100
8 18 21 27 55 79 89 100 100 100 100 100 100 100 99 87 100 100 90 82 79 86 99 98 100 99 91 100 98 95 97 97 96 98 100 100 100 100 100 99 100 100 100
4 7 32 38 49 81 100 99 100 100 99 99 97 99 98 95 100 78 96 98 88 99 98 96 96 89 96 100 99 100 99 98 100 100 100 100 100 100 100 100 100 100 100
6 4 11 44 61 82 100 100 100 100 100 92 84 99 85 81 91 98 78 96 100 100 99 96 92 100 100 99 100 97 98 100 100 100 100 100 99 99 98 98 98 97 90
43 22 7 17 44 68 87 96 94 95 98 98 92 96 88 92 95 98 94 100 96 98 100 92 100 100 100 99 100 100 100 100 98 99 100 97 97 96 95 98 95 79 76
96 79 47 33 44 48 55 85 96 100 100 89 100 87 100 98 97 100 89 100 100 100 100 99 98 99 100 100 100 99 100 100 98 99 100 100 100 100 91 80 78 59 42
100 92 98 48 66 64 100 100 100 88 95 93 100 99 100 100 100 99 99 99 100 100 100 99 100 100 100 100 99 98 98 98 100 100 99 91 82 81 71 55 33 14 11
100 100 100 100 100 100 100 100 100 100 100 100 100 99 100 98 100 100 100 100 100 99 98 100 100 100 96 97 97 98 95 95 93 92 86 76 60 34 16 12 11 10 9
99 99 100 100 100 100 95 100 100 98 100 100 100 100 100 100 97 100 100 100 100 100 100 100 100 99 96 93 92 94 94 93 80 55 27 15 13 12 11 9 7 6 5
100 100 100 100 98 98 100 100 99 97 100 100 100 100 100 100 100 100 100 98 98 96 97 99 100 99 98 96 94 83 58 28 15 14 13 11 8 7 5 5 5 5 6
100 100 100 100 100 100 100 100 100 99 100 100 100 100 100 97 97 98 96 93 93 95 99 96 91 86 73 46 24 15 14 13 10 8 7 6 6 6 6 6 7 8 9
100 100 98 96 96 90 92 92 93 93 96 96 96 98 100 100 100 97 97 100 99 91 72 49 28 18 15 14 13 11 9 7 6 6 6 6 7 7 8 10 10 11 11
99 98 98 100 100 99 91 88 91 91 94 96 96 96 95 97 92 88 69 48 31 19 16 15 14 12 11 9 7 6 6 6 7 7 7 8 10 11 12 13 14 13 13
100 100 100 100 100 99 98 96 95 91 85 77 65 46 32 22 20 18 17 15 14 13 12 10 8 7 6 6 6 7 7 7 8 10 11 12 13 15 16 15 18 20 20
98 96 92 86 78 64 49 40 35 28 21 19 18 18 17 16 14 13 12 10 9 8 7 7 7 7 8 8 8 9 10 11 13 14 15 16 18 17 19 29 36 46 57

GFSGL_500_rhum_063.txt.gz
RH
35 37 36 37 31 30 26 26 28 30 31 32 32 31 26 29 33 49 61 52 64 73 82 87 84 91 95 94 94 89 96 100 88 94 99 100 100 100 98 95 95 94 99
38 35 28 27 33 36 34 25 26 26 26 28 28 30 41 53 59 62 59 56 55 56 53 52 56 54 60 76 81 90 93 100 94 72 71 88 98 98 99 98 95 97 100
49 42 34 34 30 35 43 40 34 31 32 37 38 41 41 40 40 48 50 49 50 44 29 29 30 28 29 33 34 38 54 84 98 93 84 89 99 100 97 93 98 97 93
58 71 53 43 40 38 35 40 46 44 41 36 42 47 45 46 53 55 52 45 42 41 39 40 40 38 34 32 29 26 30 41 48 89 83 80 90 84 99 99 100 95 97
66 76 74 75 57 50 46 43 45 51 56 52 54 57 61 53 50 60 53 46 45 45 44 39 43 38 26 26 26 29 29 29 34 39 47 60 82 99 90 93 98 99 91
76 65 69 50 56 63 63 68 61 61 56 60 60 67 72 64 58 65 73 70 65 61 56 61 65 59 37 32 29 30 36 40 47 58 58 60 73 82 86 79 82 72 100
58 69 78 71 64 55 61 67 76 84 80 72 69 74 76 77 81 75 82 82 81 78 79 83 83 79 74 69 55 45 45 33 24 28 37 43 42 40 46 48 35 31 32
36 36 42 65 70 74 72 73 81 76 65 74 66 61 67 67 78 83 81 75 69 68 66 74 76 59 74 75 77 67 50 47 50 56 57 52 53 52 48 51 56 71 91
34 28 25 29 52 64 62 62 75 76 64 61 66 73 66 71 85 89 76 88 98 84 75 70 60 59 68 80 96 76 66 64 59 60 73 82 80 92 92 86 80 72 100
9 10 12 12 16 33 41 40 40 52 61 70 67 64 65 84 71 80 90 93 96 90 85 79 78 69 66 72 87 88 90 93 85 89 87 80 99 95 99 85 81 100 99
12 12 14 14 13 11 9 11 23 29 24 40 73 75 90 88 83 92 100 100 99 84 92 81 75 80 73 80 92 100 85 89 85 83 92 82 99 96 84 100 98 92 87
8 9 10 12 13 10 10 10 9 11 33 42 64 81 100 100 100 92 99 100 98 100 99 96 92 92 98 100 95 92 100 94 97 99 93 89 90 100 100 100 100 97 97
4 4 4 4 4 6 7 10 12 13 19 62 92 100 100 94 92 93 100 100 90 87 85 86 82 97 97 63 69 100 87 100 94 98 98 96 100 100 100 100 99 100 100
4 4 3 3 3 4 3 5 13 20 24 44 71 100 100 100 100 99 98 96 94 100 98 84 100 92 81 89 79 86 100 99 100 95 100 100 98 94 89 97 100 100 100
6 5 4 4 4 4 4 6 6 12 38 53 68 89 100 92 97 77 62 81 92 100 98 97 98 97 98 75 98 98 98 99 100 99 100 100 100 100 100 100 98 95 88
7 7 5 4 4 4 18 73 45 10 7 28 55 65 70 70 98 81 54 99 95 92 98 99 99 95 98 98 95 84 99 100 100 98 100 100 100 100 100 94 88 86 87
8 7 6 6 5 7 33 61 84 37 20 20 36 72 72 81 68 99 83 78 65 94 99 98 100 100 100 100 100 100 100 100 100 97 98 100 100 92 88 88 91 88 87
14 14 14 17 12 21 84 86 100 100 100 77 72 84 75 87 100 95 73 89 83 100 100 100 100 100 100 99 99 98 99 100 99 97 97 98 94 89 86 88 86 73 47
52 84 95 94 85 98 100 100 100 100 100 100 100 96 100 100 100 100 100 100 97 100 100 100 99 99 100 100 100 99 100 99 97 92 89 86 85 79 73 55 27 15 13
85 91 100 100 100 100 100 100 100 100 100 100 100 99 100 100 100 100 100 100 100 100 100 100 100 99 99 100 100 94 82 76 76 80 79 78 59 28 18 14 12 10 7
97 100 100 100 100 100 100 100 100 100 100 100 100 100 100 100 100 100 100 96 97 100 100 98 95 92 92 89 87 88 85 83 82 58 28 17 15 12 10 8 6 5 4
98 100 100 100 100 100 100 100 100 100 100 100 100 100 100 100 100 100 99 94 95 97 93 92 92 94 94 90 81 67 40 22 17 15 12 10 8 6 5 4 4 5 6
100 100 97 97 100 100 100 100 100 100 100 98 94 96 98 99 100 99 94 91 92 91 76 62 47 37 26 18 17 16 14 12 10 8 7 5 5 5 5 6 7 8 9
100 100 100 100 100 100 100 99 98 97 97 99 98 95 92 90 80 67 48 33 26 22 19 19 18 16 15 14 12 10 8 7 6 6 6 5 6 7 8 9 10 12 13
100 99 98 97 96 92 82 69 59 55 50 43 33 26 22 22 20 20 19 17 16 15 14 12 10 9 8 7 7 7 6 7 6 7 7 8 9 10 12 13 15 16 16
39 35 31 26 24 23 22 22 22 21 20 20 18 16 15 14 13 12 11 10 9 8 8 7 7 7 8 8 8 7 8 8 9 9 11 13 14 15 16 19 19 20 26

GFSGL_500_rhum_066.txt.gz
RH
28 29 34 38 33 31 30 25 22 25 26 23 23 24 25 24 23 23 23 24 26 28 32 53 65 64 58 70 82 88 91 92 73 76 81 96 89 97 93 93 93 94 95
27 28 30 38 35 34 31 30 25 24 24 23 23 25 32 39 38 43 43 58 63 61 63 60 63 64 64 65 64 66 66 71 60 54 60 67 81 90 93 86 96 95 92
29 32 35 30 35 38 34 30 35 34 29 27 28 32 34 36 36 37 36 43 50 55 55 53 49 40 34 31 32 30 30 30 28 26 26 26 27 39 60 55 74 93 91
70 65 54 41 38 38 38 35 32 40 43 46 42 35 35 39 44 42 44 53 59 59 51 44 42 41 40 45 43 41 38 34 31 30 29 28 27 28 32 40 54 78 94
98 88 75 76 64 73 62 45 40 39 43 50 51 52 48 48 53 57 56 47 44 47 48 45 45 47 48 46 46 52 50 42 28 24 26 32 33 35 46 58 56 67 74
73 83 100 90 96 98 95 92 76 58 56 50 54 55 58 58 64 70 72 60 52 56 51 54 62 63 64 71 74 77 76 67 68 58 36 34 42 30 29 30 33 39 37
55 63 65 69 82 100 96 96 92 78 72 74 76 69 69 62 68 71 75 66 68 69 72 81 81 88 91 92 98 99 94 75 67 74 64 55 40 46 52 58 68 68 68
54 49 40 38 50 71 78 76 87 80 75 80 76 73 66 68 81 80 88 83 80 84 84 78 76 87 89 100 98 94 81 62 67 80 92 72 73 78 85 92 87 72 80
27 26 27 36 38 40 43 38 40 59 79 82 80 86 84 81 79 84 89 99 98 96 94 82 77 86 96 100 100 94 80 81 66 71 81 92 90 87 87 89 78 97 96
16 15 14 13 14 12 10 11 23 42 58 72 72 84 82 78 81 96 94 94 88 92 93 83 80 72 78 100 100 100 100 91 73 67 78 83 88 85 88 81 98 89 100
9 12 12 10 10 13 7 5 4 5 7 28 62 69 67 70 79 84 86 96 98 91 98 89 89 89 95 99 100 100 100 100 93 69 68 79 78 57 75 98 99 98 99
9 10 12 15 19 20 16 14 14 15 17 19 18 12 25 44 59 60 76 93 100 94 85 80 76 69 77 92 99 93 90 84 98 92 83 97 68 63 71 78 98 99 100
7 7 6 5 5 5 5 5 5 4 4 4 6 7 8 14 20 32 60 71 100 100 99 91 96 86 83 78 79 98 98 94 88 83 87 81 98 100 95 96 100 99 99
8 7 6 6 5 5 4 4 4 4 3 3 3 3 3 5 15 29 37 50 66 100 97 99 79 97 76 54 62 78 91 98 91 82 100 91 88 96 99 97 99 98 99
10 8 7 6 6 5 5 4 4 4 3 3 3 3 3 4 5 7 15 50 100 85 97 98 98 97 77 98 97 96 93 100 96 96 99 100 99 100 100 99 100 100 99
12 10 8 7 7 6 5 5 4 4 4 4 4 5 19 48 58 41 30 96 48 91 87 40 96 99 98 100 99 100 98 97 93 98 100 100 100 100 100 99 100 100 100
11 10 9 9 8 7 6 5 5 4 5 5 4 26 80 84 68 45 46 99 87 25 30 100 90 100 85 96 99 100 100 100 97 100 100 100 99 100 100 100 100 100 100
13 13 12 16 19 21 20 22 41 72 48 32 18 36 98 100 100 100 74 24 42 31 100 99 82 87 93 96 100 100 100 100 100 100 100 100 100 98 99 99 100 91 68
26 24 25 38 43 42 56 70 100 100 100 100 100 99 100 100 100 100 100 100 100 100 100 100 100 100 100 100 100 100 98 100 100 100 100 99 96 93 92 89 85 76 67
42 45 49 48 48 48 71 71 99 98 98 100 100 100 100 100 100 100 100 100 100 100 100 100 100 100 100 100 100 100 100 100 100 95 89 87 88 83 74 66 49 29 20
59 66 69 70 58 64 84 69 76 84 91 92 98 100 100 100 100 100 100 100 100 100 100 100 100 100 100 100 97 98 98 100 99 91 83 72 49 29 19 16 13 11 8
75 76 73 73 80 87 94 98 95 92 84 96 98 99 100 100 100 100 100 100 100 100 100 100 100 100 98 95 90 84 74 60 39 27 22 19 16 13 10 8 6 5 4
85 82 79 83 90 93 94 96 96 95 93 92 94 97 99 97 97 98 100 98 93 88 81 67 51 45 39 30 26 23 18 16 14 12 11 8 7 6 5 5 5 6 6
95 92 89 90 92 94 95 95 93 91 90 87 84 77 66 55 46 44 39 34 28 24 20 19 18 17 16 15 14 12 10 8 7 7 6 6 6 6 7 7 7 7 7
89 86 80 72 65 55 46 41 36 31 29 26 25 24 24 24 23 21 20 18 17 15 13 11 10 10 9 8 7 7 7 8 8 8 8 8 8 8 8 8 9 11 14
42 34 30 30 30 30 29 28 27 25 23 21 18 15 13 11 10 9 8 8 8 8 8 8 8 8 8 8 9 10 10 10 9 9 9 9 10 10 12 15 18 18 18

GFSGL_500_rhum_069.txt.gz
RH
24 21 23 23 26 34 33 28 26 22 20 20 20 18 17 16 17 20 25 31 33 42 57 64 75 69 56 50 44 38 33 39 54 68 82 95 87 91 91 83 76 75 80
37 30 30 27 28 28 29 31 30 26 24 27 27 27 26 27 26 24 24 25 24 24 24 27 30 33 45 65 68 66 64 76 67 49 59 65 74 73 57 46 47 46 58
61 54 43 44 38 29 24 26 27 29 26 24 23 25 26 26 25 27 29 32 36 49 62 66 64 66 66 61 59 58 53 44 37 32 29 31 32 33 33 32 30 29 29
98 91 86 79 66 57 51 42 34 30 30 35 33 31 31 31 33 33 34 36 38 38 40 44 51 51 52 49 48 45 40 37 36 33 32 32 32 35 26 24 27 34 32
95 95 100 92 80 79 80 76 69 48 40 38 39 43 44 43 41 40 42 47 50 50 47 43 45 45 47 45 40 39 39 36 36 36 37 47 60 59 61 49 31 38 36
83 83 87 98 94 88 84 99 93 96 96 87 60 55 51 49 49 51 50 52 54 56 57 57 49 52 54 51 49 51 53 56 60 52 51 48 55 47 48 61 57 44 52
89 85 86 90 97 97 94 90 96 94 92 97 98 96 97 98 90 82 70 64 60 56 56 61 67 70 69 67 69 72 71 76 70 63 55 59 66 62 64 67 76 74 77
83 76 74 78 70 75 85 91 91 90 90 96 92 96 94 93 100 98 98 95 95 92 84 78 79 84 92 99 100 91 95 94 89 81 75 67 69 69 78 76 72 74 76
83 72 61 63 64 60 57 46 46 59 92 100 98 86 75 86 100 95 95 100 96 93 99 99 98 98 100 99 95 94 93 88 80 85 85 77 73 69 74 82 76 84 82
65 60 58 58 51 37 35 41 38 33 41 53 54 51 55 55 80 92 100 100 97 100 100 98 88 70 78 89 100 98 100 94 84 78 82 96 79 73 75 75 85 96 95
73 66 58 56 48 31 15 8 11 11 15 12 14 8 12 28 51 74 99 100 98 95 86 90 97 92 83 75 89 100 100 100 100 96 84 79 78 73 87 75 66 67 80
79 56 37 24 19 14 11 10 9 11 12 13 25 27 17 10 11 13 19 27 44 69 81 76 69 72 100 100 100 100 91 99 99 96 100 97 99 96 94 77 98 100 90
73 52 30 13 10 9 8 7 7 6 6 6 6 7 7 9 14 14 6 4 4 4 9 16 22 43 83 51 56 78 91 98 97 99 96 91 93 95 80 64 99 93 97
18 13 11 10 10 9 8 7 7 6 6 6 5 5 5 4 4 3 3 3 3 3 3 4 6 5 28 94 95 77 69 63 80 100 99 100 97 92 98 93 99 99 97
18 16 14 12 12 11 10 9 8 7 6 6 5 5 4 4 4 4 4 3 3 3 4 12 20 100 81 98 87 92 99 97 96 98 95 98 98 100 98 99 100 100 100
22 18 16 14 12 11 10 9 8 6 6 5 5 4 4 4 4 3 3 3 3 4 42 60 55 99 100 100 100 100 100 73 68 76 100 99 100 100 100 99 100 100 100
19 17 14 12 11 10 8 7 7 8 7 6 6 6 6 6 8 9 6 5 6 5 13 71 85 89 99 75 85 100 100 100 94 93 73 89 97 99 100 100 100 100 100
17 16 15 14 13 12 10 10 11 14 18 16 24 28 64 90 99 100 100 94 88 86 96 100 100 100 94 97 100 85 95 58 100 100 100 100 100 100 100 100 99 100 100
19 15 13 12 12 13 20 24 30 32 26 25 34 34 42 61 67 77 98 100 100 100 100 100 100 100 100 100 100 100 92 99 100 100 100 100 100 100 100 100 100 100 100
13 14 16 24 26 29 38 48 52 50 49 50 45 49 59 75 72 61 78 92 99 100 100 100 100 100 100 100 100 100 100 100 100 100 100 100 100 100 100 100 96 83 62
44 47 39 31 30 27 30 48 61 62 61 63 72 74 84 87 92 87 66 77 94 98 100 100 100 100 100 100 100 100 100 100 100 100 100 99 98 79 56 37 24 18 16
63 63 62 70 78 72 70 68 68 67 75 80 77 76 80 83 90 92 91 85 84 84 87 91 94 96 98 97 94 93 89 81 65 46 32 24 21 18 15 13 10 9 8
78 74 68 71 84 86 83 81 81 80 82 82 79 77 78 78 79 79 74 64 55 47 41 35 31 29 28 25 23 22 20 19 17 16 14 12 11 10 8 7 7 7 7
79 76 73 73 75 77 77 74 72 67 62 56 49 38 30 28 27 27 27 27 26 25 24 23 22 20 19 17 15 13 11 10 9 9 8 8 8 8 8 8 9 9 9
91 85 82 78 70 60 50 43 36 31 30 30 30 30 29 28 25 22 20 18 17 15 13 11 9 8 8 7 7 7 7 8 8 9 9 10 10 10 10 10 10 10 10
55 43 37 34 33 32 31 29 26 22 18 15 12 10 10 8 8 7 7 7 7 7 7 7 7 8 8 9 10 10 11 11 11 11 11 11 11 11 10 11 12 13 15

GFSGL_500_rhum_072.txt.gz
RH
33 23 26 24 23 19 23 24 22 18 15 17 18 16 17 26 42 69 83 86 76 67 62 53 58 78 96 99 98 93 77 69 55 99 100 100 91 76 77 84 87 89 89
67 61 42 44 38 29 28 31 27 22 17 19 20 19 20 20 20 19 18 18 19 20 22 24 28 31 45 70 83 69 47 57 63 64 62 60 74 85 74 63 51 34 32
76 76 68 58 48 45 41 40 41 36 27 22 20 21 21 21 22 23 24 27 29 28 28 28 28 34 42 36 41 57 66 64 58 53 51 52 46 38 33 33 38 38 35
91 99 94 87 80 73 65 50 48 47 45 38 34 32 26 23 24 25 25 24 24 27 28 29 30 33 46 55 56 54 52 48 45 39 38 40 39 40 38 38 40 49 53
97 94 95 99 100 98 96 87 74 76 63 54 46 40 40 41 40 40 40 40 38 35 37 40 42 41 38 36 34 41 44 41 41 37 31 29 34 41 46 60 54 65 68
96 86 89 87 81 83 94 97 90 90 93 81 84 96 95 71 50 47 46 45 46 48 49 48 49 51 54 55 48 41 39 36 36 34 31 33 38 51 65 74 79 74 68
93 90 86 81 81 84 84 85 85 90 87 84 87 91 97 100 97 94 90 79 79 79 71 62 58 60 63 64 67 68 68 66 57 50 45 49 56 67 69 68 72 77 81
95 98 99 89 84 87 86 91 88 80 75 76 77 75 80 80 83 96 98 98 96 100 100 99 97 96 92 84 79 76 75 85 81 76 77 74 66 63 72 69 64 71 75
88 89 100 100 93 86 84 85 82 78 69 68 62 59 54 50 50 71 94 98 90 87 95 99 97 90 95 100 98 97 98 97 95 99 100 92 70 73 90 97 89 88 87
100 100 100 94 91 84 75 66 65 60 72 77 72 53 38 37 41 54 60 60 53 47 67 80 87 76 74 86 98 98 97 97 99 97 95 96 79 73 89 99 100 99 95
100 100 99 100 96 92 78 70 64 61 57 55 50 27 18 16 28 23 13 15 17 18 23 25 31 38 64 88 92 86 95 96 95 92 92 99 99 99 86 97 100 92 96
97 97 91 86 85 80 75 61 42 28 22 21 19 19 22 30 23 17 11 8 6 7 7 6 6 9 12 15 17 21 29 80 94 75 85 65 68 84 97 97 67 91 99
60 53 42 30 28 30 34 30 22 14 11 10 10 9 9 8 7 7 6 6 6 5 5 5 5 5 5 5 4 4 4 6 24 20 100 96 93 98 84 98 100 100 96
24 24 24 25 24 22 19 14 14 13 12 12 11 10 10 9 8 8 7 6 6 6 5 5 5 4 4 4 4 4 3 3 4 98 99 48 70 100 100 100 98 93 96
80 76 53 42 35 27 24 19 17 15 14 13 11 10 9 8 7 6 6 5 5 4 4 4 4 4 4 4 4 4 4 4 6 18 62 79 98 100 100 98 99 98 95
29 39 40 38 36 30 24 19 17 14 12 10 9 9 8 7 7 6 6 5 5 4 4 5 8 12 11 9 8 6 7 26 75 60 50 100 100 100 98 91 98 100 87
46 39 30 25 22 20 17 15 13 12 11 10 9 8 7 6 7 10 12 16 15 14 26 48 61 75 86 98 92 100 100 99 100 100 100 95 88 77 100 100 93 89 92
26 26 24 23 21 20 18 17 14 12 10 9 9 11 14 20 27 21 22 29 35 30 33 51 44 55 74 92 100 100 100 100 100 100 100 100 100 100 100 100 100 100 100
32 32 30 26 22 18 16 14 13 12 11 14 21 22 27 35 34 33 36 40 43 52 56 66 78 69 58 87 100 100 100 100 100 100 100 100 100 100 100 100 100 100 100
36 31 27 22 19 17 18 23 28 38 36 23 23 22 23 33 40 45 52 59 63 58 61 69 78 86 94 81 89 92 96 98 99 100 100 100 100 100 100 100 100 100 100
31 26 22 21 25 30 38 42 47 50 47 54 66 66 67 62 56 56 64 69 70 70 72 76 83 90 89 89 81 78 72 68 69 75 81 84 86 85 87 78 62 47 34
29 30 32 35 37 44 62 62 64 64 60 57 64 75 77 74 70 68 67 67 66 63 59 56 51 48 45 39 33 30 27 26 26 25 24 23 22 20 19 18 17 15 13
42 44 50 60 74 82 81 76 73 73 73 71 71 73 74 71 66 56 47 39 33 30 29 28 28 28 27 26 24 22 20 18 16 14 12 12 11 10 9 8 7 7 7
66 71 80 96 100 100 98 96 90 83 78 71 56 41 34 31 31 30 28 27 25 23 21 19 17 15 14 12 11 9 8 8 7 7 7 8 8 8 8 8 9 9 10
98 97 95 92 90 88 79 65 48 39 34 33 31 27 23 21 18 16 13 11 10 8 7 6 6 6 6 6 7 7 8 8 9 10 10 10 11 11 11 11 11 11 11
70 62 54 49 42 38 35 32 27 23 20 16 14 11 10 9 8 8 7 7 7 7 7 8 8 9 10 12 12 12 12 12 12 12 11 10 10 10 10 10 10 12 14

GFSGL_500_rhum_075.txt.gz
RH
47 27 23 26 30 29 22 20 27 25 20 17 18 17 35 74 83 94 97 95 91 83 90 94 80 78 69 64 68 81 96 95 80 97 92 94 86 78 73 69 78 77 82
62 55 42 35 32 30 30 28 32 37 29 25 18 18 19 19 18 17 17 20 27 33 37 33 24 26 31 34 42 53 50 76 58 57 84 94 73 79 71 64 66 72 80
72 66 61 52 41 38 33 36 36 39 38 30 28 24 20 21 24 24 25 24 23 22 22 23 24 23 24 25 25 24 26 26 27 29 43 61 72 75 67 65 65 55 37
82 76 78 76 77 74 62 46 38 41 40 39 33 28 29 26 22 22 22 23 23 23 23 21 22 24 24 24 25 26 28 33 41 38 45 59 54 50 43 43 42 39 38
94 92 88 94 89 81 82 86 88 83 64 55 52 42 35 32 31 31 30 31 33 35 35 36 35 34 35 37 37 41 40 33 31 30 28 30 42 47 44 42 36 41 44
97 98 97 95 93 92 90 81 75 83 87 86 84 84 88 80 78 77 90 84 47 42 42 43 44 45 46 46 47 49 50 50 49 46 40 36 37 38 41 41 42 37 36
97 98 98 95 82 81 81 76 77 78 77 74 73 69 68 66 74 78 82 91 88 92 96 90 82 87 82 61 56 59 59 60 65 68 66 63 62 58 54 55 62 68 73
98 95 97 97 94 83 85 80 76 74 72 71 70 68 70 70 67 64 64 64 67 70 70 74 77 82 85 87 93 99 100 100 94 94 89 88 87 81 85 88 92 85 90
92 96 97 100 93 85 84 88 84 84 80 81 84 74 71 70 66 61 60 61 51 49 49 53 53 52 61 73 64 71 92 98 91 99 100 97 90 85 97 100 98 98 96
96 98 97 92 100 95 80 81 96 90 93 88 80 79 75 71 70 67 54 37 32 27 24 29 34 34 26 24 26 26 28 39 52 65 75 86 91 91 86 88 95 98 99
80 91 88 99 99 99 97 100 98 100 96 88 83 70 65 61 57 52 41 32 21 14 13 10 10 12 12 10 11 13 12 12 12 13 15 19 48 31 74 98 89 52 84
100 99 100 100 100 97 98 98 95 94 87 74 72 69 65 57 47 36 27 20 15 11 10 8 8 8 8 7 6 6 6 6 6 5 5 6 6 6 7 9 10 29 60
98 98 98 98 99 96 89 70 44 34 28 25 23 20 19 15 15 14 12 12 11 10 10 9 9 8 7 7 6 6 6 5 5 5 5 5 5 4 4 4 4 4 12
99 98 97 95 86 67 56 59 52 44 39 30 22 19 17 16 14 14 13 12 10 9 8 8 7 6 6 6 5 5 5 5 4 4 5 5 5 5 5 5 5 4 5
94 96 94 94 83 77 75 66 43 38 33 29 28 23 20 18 15 12 11 10 9 8 7 6 6 7 7 6 5 5 4 5 6 5 6 7 8 8 10 7 31 86 70
56 44 36 28 25 26 31 34 32 30 27 24 21 18 16 14 13 12 10 8 7 6 7 13 18 16 16 19 25 26 25 28 29 35 44 59 64 86 100 100 100 100 100
35 30 26 26 27 27 27 25 23 22 21 19 19 17 16 13 11 9 8 7 9 12 20 29 24 22 24 30 33 34 40 49 53 42 60 79 76 81 86 98 100 100 100
30 27 26 25 24 23 23 24 24 23 23 21 18 16 14 13 13 15 14 12 14 17 22 28 26 27 33 39 47 45 48 58 69 71 64 59 87 98 99 94 97 100 100
33 32 30 30 31 31 31 31 29 27 24 20 17 15 14 16 19 25 33 34 33 30 27 31 36 39 43 51 52 49 52 58 67 74 77 84 98 100 100 100 100 100 100
42 34 32 30 33 36 39 38 32 28 23 20 20 20 24 35 38 44 46 39 44 57 62 62 59 57 56 57 57 58 59 62 63 65 64 61 59 55 48 40 37 36 41
54 53 49 52 52 47 39 32 29 28 28 26 28 33 46 53 52 54 54 55 58 62 67 66 64 63 60 54 48 37 32 30 28 28 27 27 27 26 25 24 22 20 19
73 68 59 50 42 37 35 36 38 39 42 50 65 85 87 85 80 75 71 70 70 65 56 44 35 30 29 28 26 25 24 22 20 18 16 15 13 11 10 9 8 8 8
70 62 53 47 44 45 51 56 64 70 80 96 100 99 97 91 86 78 69 57 47 37 31 29 26 23 21 18 16 14 12 10 9 7 6 6 6 7 7 8 9 9 9
75 68 69 72 79 85 91 95 95 93 88 84 80 77 69 57 46 37 32 29 26 23 20 16 14 12 10 8 8 7 7 7 7 7 8 9 10 10 11 12 12 12 11
95 95 94 93 90 84 75 66 58 51 48 46 43 39 35 30 26 22 19 16 13 11 10 9 8 8 8 8 8 9 9 10 12 13 13 13 13 12 12 11 10 10 10
87 77 66 62 61 60 56 50 44 38 34 31 28 25 20 17 14 12 11 9 9 8 8 8 8 9 11 12 14 16 16 16 15 14 12 12 11 11 10 10 12 14 15

GFSGL_500_rhum_078.txt.gz
RH
28 21 20 25 26 22 21 20 19 26 31 23 17 16 40 77 86 98 97 92 92 97 98 97 97 96 97 96 95 81 79 80 82 98 96 96 82 78 83 75 69 66 72
55 57 42 21 23 25 24 24 20 23 28 21 16 16 16 17 18 18 18 18 22 36 48 54 73 83 60 31 20 20 21 25 25 52 70 81 76 77 67 56 41 54 58
83 68 59 44 30 33 33 31 28 27 24 22 16 15 16 17 18 19 20 20 21 22 23 24 24 23 22 22 22 22 23 23 22 21 25 22 25 34 37 45 51 52 57
94 92 81 72 62 52 43 41 35 33 34 31 25 20 16 15 17 16 18 18 17 18 18 20 22 22 23 24 24 26 28 30 30 29 32 36 44 55 54 56 58 58 53
97 100 92 84 79 74 81 84 81 79 66 44 43 41 39 31 31 29 29 28 27 29 29 31 32 34 35 36 37 38 38 38 38 38 38 44 46 44 42 40 30 37 40
92 96 98 82 87 90 94 86 80 78 71 78 86 86 85 82 86 82 81 76 67 60 80 86 72 62 58 52 51 53 58 64 61 56 58 62 60 58 62 71 67 65 68
97 90 93 97 97 95 96 92 87 82 74 71 68 66 63 66 70 72 76 78 80 83 78 75 87 90 85 81 91 96 99 94 86 84 77 79 78 82 93 100 100 96 95
97 97 97 97 98 97 97 84 83 82 74 68 65 60 59 61 65 66 69 69 64 61 60 60 62 61 59 60 64 69 79 77 77 86 94 89 88 82 87 88 91 92 93
91 94 96 98 98 95 97 98 92 84 78 72 68 70 66 67 68 70 72 68 65 57 49 46 50 48 43 37 32 31 33 34 37 41 42 43 41 37 90 78 87 98 89
90 89 92 91 98 96 92 93 93 95 90 71 66 69 76 78 82 81 76 73 67 61 60 53 50 42 36 30 24 16 12 10 10 12 12 14 14 16 17 18 17 44 53
99 93 98 96 97 94 90 98 97 94 99 96 98 90 87 84 90 87 80 84 68 62 60 58 54 46 39 32 21 13 12 10 8 8 8 7 8 8 6 6 7 7 9
100 98 90 92 93 99 99 98 94 96 96 98 98 99 100 100 97 91 81 75 68 62 53 48 42 34 27 22 19 15 12 10 9 9 8 8 7 7 7 7 7 7 7
98 99 98 98 98 99 98 100 100 100 100 100 100 96 78 54 40 33 33 32 31 29 26 22 19 18 16 14 14 13 12 11 10 9 9 8 7 6 6 5 5 4 5
99 100 99 98 96 97 97 98 99 95 89 90 77 64 57 48 44 38 34 31 26 20 17 17 17 16 13 11 10 9 8 7 6 5 5 5 5 6 6 6 5 6 8
98 96 93 88 85 90 87 79 70 44 35 45 47 47 42 37 32 28 25 24 22 20 17 14 12 11 9 8 6 6 6 6 10 13 12 16 17 16 16 16 16 20 29
90 79 66 57 48 42 40 32 26 24 22 22 24 27 28 27 25 23 21 18 16 15 14 12 10 9 8 8 8 10 13 24 22 20 23 27 30 32 35 46 52 54 51
89 68 48 40 36 33 29 27 24 22 22 20 18 18 19 19 18 18 18 18 17 15 13 12 11 11 13 15 15 16 17 20 17 21 32 36 38 38 40 45 47 55 61
56 48 43 38 33 29 28 26 25 24 23 23 21 21 21 22 23 24 24 21 18 16 15 14 13 16 20 25 29 36 41 45 47 46 47 46 46 47 47 48 51 53 55
40 37 35 33 29 30 32 31 30 28 26 24 22 23 26 28 32 30 26 22 20 19 18 19 24 28 34 42 40 40 46 53 58 58 54 52 52 45 36 30 28 27 26
44 40 41 42 47 48 44 41 38 34 31 34 36 40 43 40 36 31 27 25 25 24 26 36 43 48 51 53 54 55 54 52 49 40 31 28 26 25 23 22 20 19 17
57 54 53 51 52 51 47 49 50 53 49 52 53 49 42 38 34 32 32 30 32 38 55 68 75 73 70 66 62 57 49 39 31 29 28 26 24 22 18 15 12 10 9
61 72 74 71 74 77 74 74 71 66 62 55 49 42 39 35 34 36 40 45 54 63 72 77 74 69 63 53 41 34 32 29 26 23 18 15 13 10 9 8 7 7 7
83 82 82 84 84 82 82 81 77 70 62 58 56 57 62 65 67 71 73 71 68 62 57 52 46 40 36 30 25 22 17 14 12 10 9 8 8 8 8 8 9 10 10
89 89 87 85 84 85 87 89 87 82 80 79 79 78 73 66 62 58 55 51 46 39 32 29 26 22 19 16 14 11 9 8 8 8 8 9 10 12 13 14 14 13 12
86 89 89 89 92 95 94 88 78 74 74 72 70 67 63 55 46 40 36 33 29 25 21 18 14 12 10 10 9 8 8 8 10 12 14 15 16 16 14 13 12 12 11
93 93 93 92 90 85 82 81 80 77 72 67 61 55 48 40 34 29 23 19 16 13 11 10 9 9 8 9 10 12 15 17 20 20 18 16 15 15 15 14 13 13 15

GFSGL_500_rhum_081.txt.gz
RH
62 80 28 23 30 30 30 20 18 18 21 13 14 61 88 86 89 95 92 95 97 97 97 97 97 97 98 97 98 97 96 90 75 75 75 94 82 92 91 85 72 69 57
79 86 52 22 22 27 30 29 21 20 19 19 11 13 21 61 85 90 97 93 86 88 93 94 94 92 86 83 77 55 36 31 27 29 43 49 51 72 79 78 70 61 50
85 84 71 57 39 23 25 26 26 26 23 23 21 12 13 14 16 19 25 19 19 19 19 20 20 20 21 21 22 22 22 21 17 16 20 18 19 23 22 26 35 40 44
82 96 89 67 61 50 30 30 29 30 30 29 25 25 21 18 18 20 21 21 20 19 20 20 20 21 20 19 20 21 21 23 25 26 30 33 32 37 32 35 35 36 34
87 99 95 89 83 66 60 55 45 42 38 35 34 33 31 30 28 25 26 27 25 25 24 24 26 29 31 31 34 37 39 42 45 51 57 63 69 70 62 54 55 52 56
98 100 97 96 100 88 76 74 70 76 83 80 82 65 60 64 62 63 66 62 52 51 59 55 60 63 76 88 87 81 77 75 72 75 80 82 91 90 92 91 87 84 81
98 98 95 94 97 97 92 83 82 85 76 77 77 79 88 91 86 83 79 72 75 77 77 79 80 80 82 84 90 93 82 75 68 66 55 51 57 74 88 99 99 77 83
94 97 90 95 97 94 98 97 97 96 92 84 78 68 69 69 65 62 59 60 62 65 69 70 68 65 63 62 63 64 62 57 52 48 46 39 36 40 47 51 52 50 64
93 98 84 97 96 97 97 97 98 97 96 93 81 71 67 67 70 67 66 64 64 61 57 61 66 68 65 59 58 52 50 48 42 36 35 34 32 30 27 22 22 18 16
93 99 98 98 90 95 98 98 98 97 97 96 90 82 78 74 76 72 69 65 59 58 57 63 65 71 72 64 62 56 54 52 50 43 34 33 31 28 26 23 17 16 14
92 86 77 77 83 85 90 95 98 96 92 97 97 91 84 82 81 78 88 85 71 66 64 63 70 76 75 66 61 56 47 43 42 35 28 25 22 20 19 16 15 13 11
94 85 82 85 88 80 87 99 96 99 96 89 87 94 88 89 97 99 97 98 96 92 93 90 88 83 70 58 43 32 24 22 21 21 21 20 19 16 15 13 12 11 9
97 97 98 98 99 98 99 98 98 98 98 96 96 100 98 100 100 100 100 100 100 98 70 44 34 35 33 29 26 22 20 17 16 16 14 12 12 10 9 7 6 5 5
96 96 96 93 95 90 87 96 97 98 98 99 99 99 98 97 97 91 81 78 83 69 56 50 45 39 35 32 27 22 20 17 15 12 11 9 7 6 6 6 6 7 10
100 99 99 99 100 98 96 97 96 95 96 96 95 88 81 71 59 43 39 35 30 28 26 23 21 19 18 18 17 15 14 13 12 10 9 8 8 8 7 8 14 19 18
100 100 100 98 96 95 95 93 84 70 59 46 38 30 25 23 22 20 19 18 17 16 16 17 17 17 16 16 16 16 15 14 12 11 10 10 12 17 23 25 21 26 31
99 99 99 99 99 98 84 63 48 41 37 33 30 27 25 23 22 21 21 21 21 19 18 18 18 20 20 22 22 20 18 16 14 13 12 14 22 28 33 37 46 52 53
63 58 57 56 59 57 50 45 40 37 34 30 28 26 26 26 26 25 24 22 21 20 20 23 25 24 26 27 28 25 21 19 17 17 23 33 39 44 46 46 46 46 45
66 66 61 58 53 49 45 42 37 34 30 30 31 31 33 32 32 33 32 27 26 25 28 33 38 38 36 32 28 26 24 25 26 31 44 54 55 58 55 51 46 40 34
73 66 58 54 49 42 38 36 33 32 33 37 42 42 40 38 34 35 43 49 49 44 48 47 44 41 35 32 30 28 30 34 46 57 63 65 63 62 53 43 37 34 32
54 54 59 62 61 58 60 58 59 56 52 53 53 51 54 53 54 52 56 58 57 53 50 44 41 38 35 36 39 44 48 51 58 59 56 51 45 37 31 28 22 17 15
56 56 58 57 58 61 64 65 69 70 70 68 67 70 69 70 72 72 70 66 59 52 48 46 47 51 60 61 60 58 55 53 46 38 31 27 23 20 17 13 11 9 8
48 53 58 62 63 65 70 75 80 82 83 84 82 78 74 71 70 72 70 64 60 59 60 61 61 60 58 52 44 39 34 31 27 24 20 17 14 11 9 8 8 7 8
77 73 69 68 67 64 60 58 55 56 60 63 68 72 75 78 79 75 68 64 64 64 64 61 56 51 47 41 35 30 25 21 16 13 11 9 8 8 8 9 12 14 15
67 69 70 70 71 73 76 78 77 75 74 74 75 78 78 74 71 70 68 66 64 61 58 52 44 36 30 24 18 14 11 10 10 8 8 9 10 14 16 17 16 15 16
95 95 95 95 94 93 89 85 82 81 79 77 73 70 68 66 64 61 56 49 42 35 28 21 16 13 12 11 10 9 8 9 10 11 14 18 20 20 18 17 18 18 18

GFSGL_500_rhum_084.txt.gz
RH
75 78 77 70 45 35 33 26 18 18 17 17 13 36 81 98 96 97 97 97 97 97 96 97 98 97 97 96 95 99 96 92 91 96 93 74 59 67 90 79 71 85 71
71 80 84 96 41 32 34 30 27 21 19 19 17 12 62 90 96 97 96 92 97 96 97 97 97 97 98 98 97 96 96 94 67 28 23 22 21 22 24 23 24 24 24
66 84 97 100 88 42 27 27 24 26 23 20 23 16 12 22 73 75 85 94 97 93 95 92 93 93 95 81 45 35 26 21 18 19 23 20 19 19 19 21 25 30 32
67 85 96 95 96 92 65 30 24 25 24 22 23 27 22 14 16 24 46 62 56 20 20 20 21 21 21 21 21 21 19 19 18 19 25 29 32 37 41 46 51 56 60
77 74 99 90 99 90 83 71 52 34 30 31 28 28 28 27 19 14 13 14 16 17 19 18 17 18 19 20 21 26 28 31 36 40 40 42 47 50 60 71 72 75 74
97 76 92 99 98 99 100 90 90 76 68 60 48 44 36 37 35 33 30 26 25 27 27 28 31 33 34 36 46 52 74 88 86 80 77 74 77 66 68 76 90 84 98
96 82 87 99 95 97 98 94 100 95 87 83 79 88 81 72 52 58 65 67 74 79 80 84 82 83 83 79 70 73 70 67 66 67 68 65 58 48 47 50 50 39 36
96 83 85 91 90 96 96 91 96 97 96 95 93 92 91 88 87 92 94 88 78 73 70 69 70 70 72 73 70 69 66 62 60 59 55 52 49 47 45 42 41 38 37
99 95 86 96 80 86 91 95 94 94 98 87 94 96 93 87 82 80 74 68 65 63 65 67 72 72 70 70 69 69 64 64 64 63 62 59 54 52 48 41 38 41 40
90 98 88 85 69 63 74 85 96 95 96 91 94 84 97 96 88 79 75 73 71 71 71 76 75 71 74 75 73 68 68 73 77 76 69 60 53 48 44 42 37 30 28
84 82 96 97 72 96 65 62 83 95 87 92 98 97 97 97 96 90 85 76 77 80 74 74 81 86 88 82 79 80 86 87 85 80 68 52 40 36 34 30 26 22 19
98 100 97 95 83 91 96 97 97 71 87 96 97 99 98 99 99 95 96 96 94 94 95 93 98 95 100 95 98 99 93 67 50 36 34 32 31 31 31 29 25 19 16
99 100 98 98 97 99 99 99 92 87 89 93 93 100 97 97 100 96 97 92 93 98 98 99 100 100 91 72 58 45 44 46 49 46 39 30 24 20 17 14 12 11 11
98 98 98 99 99 98 98 98 97 98 98 98 99 99 99 99 100 100 98 99 98 99 97 97 87 78 72 67 62 50 44 31 19 15 14 14 14 13 13 13 13 13 12
97 98 97 98 96 94 96 96 96 97 97 98 98 98 99 98 98 98 97 92 82 74 65 61 47 41 33 26 21 18 16 15 15 14 14 15 15 16 17 18 17 16 15
100 100 96 94 98 99 100 99 99 100 99 98 98 97 94 93 94 92 84 65 39 27 23 21 18 17 16 16 16 15 15 15 15 16 17 18 19 20 23 24 22 20 19
100 100 100 100 97 100 100 100 100 98 93 84 70 62 57 52 43 34 30 27 24 22 21 20 20 19 20 20 20 19 20 20 21 22 26 22 24 29 28 27 26 24 24
98 98 82 74 72 62 59 58 57 56 58 54 50 46 41 37 35 32 29 27 25 24 24 25 26 25 24 25 25 24 24 25 22 27 35 37 37 35 32 30 27 27 28
100 100 72 57 62 56 57 58 56 54 55 51 48 46 43 39 35 31 27 26 30 32 34 35 34 33 30 28 29 32 34 36 38 41 42 41 37 34 32 34 39 48 51
96 77 75 84 78 75 74 67 59 56 52 48 45 41 37 36 41 42 42 44 47 47 45 40 38 36 34 33 38 40 42 49 47 45 41 39 42 47 50 53 54 50 44
78 81 83 78 72 69 65 65 66 66 65 65 64 63 63 63 60 58 55 51 48 44 40 38 40 45 51 57 56 55 51 46 43 46 50 55 56 58 50 42 38 37 32
44 46 49 51 52 53 54 53 54 50 48 48 45 40 41 40 40 43 50 55 60 62 63 61 58 55 55 55 55 56 54 55 56 58 58 55 51 48 44 38 32 25 19
42 43 45 47 45 49 49 50 52 55 55 57 61 67 68 65 60 56 53 54 55 57 58 61 66 67 66 64 60 60 58 58 57 55 55 50 44 35 27 20 14 11 9
56 58 58 59 59 61 59 60 57 56 54 54 56 58 62 67 69 69 70 69 66 68 69 69 70 68 64 60 57 56 55 51 46 39 32 24 17 13 11 9 8 9 10
57 61 63 64 65 65 63 64 70 77 76 75 78 83 86 85 84 79 77 77 75 67 62 57 56 53 49 42 38 34 26 19 15 12 11 10 9 9 9 10 12 16 18
100 99 99 99 98 97 95 93 91 90 89 87 87 85 81 77 71 67 63 59 53 46 39 33 26 20 17 14 12 10 10 10 10 10 11 12 13 15 18 20 23 24 20

GFSGL_500_rhum_087.txt.gz
RH
32 65 74 90 76 47 38 31 32 25 19 18 19 18 26 92 96 96 97 97 96 97 96 96 96 96 97 98 100 99 88 80 81 82 83 86 88 96 96 92 72 81 93
42 79 86 100 90 90 50 38 34 34 26 20 19 19 16 86 97 97 97 97 97 97 97 97 97 98 97 98 98 96 93 82 80 81 92 98 90 61 47 41 33 36 36
86 82 89 100 95 96 57 36 34 35 34 31 25 21 19 20 86 95 96 97 96 97 97 97 97 97 97 94 94 94 92 88 87 91 83 39 26 24 23 23 24 30 32
89 95 91 97 100 100 98 64 29 27 30 28 26 24 22 16 18 81 94 97 97 97 96 95 96 95 95 97 97 97 90 50 31 24 24 24 24 26 28 32 37 42 56
93 98 96 100 100 99 98 80 79 61 37 28 29 29 28 27 18 16 44 90 97 95 87 67 55 34 30 36 32 23 21 19 18 20 25 30 35 38 40 44 50 55 69
95 96 92 98 98 99 97 97 77 80 78 60 49 45 41 37 34 28 19 18 19 21 19 18 16 17 17 17 18 19 24 31 39 48 61 78 84 83 84 85 84 81 74
98 98 98 99 97 97 98 97 90 73 86 90 86 82 80 57 54 44 37 33 28 24 23 21 22 23 24 29 32 41 54 64 72 75 72 69 67 66 64 59 55 54 51
99 95 95 97 91 98 91 93 96 95 82 88 99 96 95 91 86 85 70 51 40 41 43 47 52 62 73 82 79 75 70 68 67 68 66 64 62 61 60 59 60 61 59
100 98 95 94 99 94 81 83 84 91 90 84 95 98 99 98 92 92 88 82 77 77 86 89 87 83 76 73 73 71 72 70 69 70 66 63 61 61 67 74 72 66 63
78 99 92 98 95 94 84 76 74 76 81 85 89 98 100 98 96 99 96 96 91 88 95 98 91 82 79 77 76 81 84 85 85 80 75 70 71 76 78 76 76 71 55
68 91 98 81 96 96 95 88 78 71 80 80 85 99 99 100 97 98 98 99 98 99 94 88 86 86 82 83 86 83 84 94 93 92 91 86 86 85 82 66 50 45 45
72 96 83 98 91 93 98 85 93 92 100 75 88 97 97 99 99 99 98 100 100 98 100 94 89 91 97 98 99 91 86 87 95 94 92 88 73 54 49 52 54 52 40
98 99 99 99 92 97 96 97 100 100 98 100 90 92 98 97 92 95 99 100 100 96 98 100 100 100 98 97 98 99 98 98 97 96 96 82 70 59 49 34 22 18 15
99 98 98 99 99 99 98 98 98 98 98 97 98 99 99 97 99 100 98 98 99 98 100 100 98 98 99 98 99 99 99 98 96 74 54 38 25 20 17 14 13 12 11
100 100 100 100 99 100 100 100 99 98 98 98 97 98 97 97 98 97 98 100 99 98 98 98 98 100 98 98 89 59 46 39 29 22 18 16 14 14 14 14 14 14 14
100 100 99 99 100 99 100 99 99 98 99 98 98 98 98 100 100 99 100 100 98 97 97 95 94 90 79 56 44 32 19 18 18 17 16 16 17 17 17 17 18 18 18
100 100 98 99 99 99 100 99 100 100 100 100 99 100 100 100 90 83 79 78 76 67 56 44 38 35 32 28 26 24 22 21 22 21 20 21 21 23 24 24 23 22 22
99 100 98 99 100 100 93 82 84 84 82 82 82 83 80 74 62 54 49 47 43 39 37 36 34 32 29 26 24 23 23 25 30 32 33 32 32 29 26 25 25 27 32
96 93 97 93 85 94 93 89 63 64 58 56 62 68 60 56 55 54 50 46 44 44 42 39 35 35 36 34 32 36 40 41 42 40 33 27 26 26 30 36 44 42 38
96 100 100 96 100 96 89 95 67 72 73 68 67 69 66 60 60 58 55 53 51 50 48 48 50 48 48 50 46 41 38 32 28 28 34 40 45 45 39 36 39 42 43
65 67 77 83 93 75 81 91 90 89 88 83 78 76 75 72 68 64 62 60 58 56 52 46 41 40 36 32 32 31 36 43 41 37 34 36 38 44 45 46 50 52 50
31 38 42 45 47 49 52 53 55 55 53 50 46 44 44 42 40 38 37 36 34 34 31 35 40 42 43 39 36 35 37 41 42 44 46 48 53 54 52 48 46 46 43
27 30 30 29 29 31 34 34 35 37 43 44 37 33 31 35 44 45 46 44 42 40 40 39 40 42 44 48 53 53 55 57 58 60 55 50 47 44 39 34 28 23 18
37 44 48 51 51 51 49 47 44 44 44 46 48 46 48 48 52 54 51 50 56 59 61 66 65 66 67 70 70 66 59 54 49 44 38 30 24 20 14 11 9 9 10
75 75 82 86 87 85 91 95 96 94 96 98 100 100 100 100 98 95 94 88 83 83 81 79 75 69 61 56 50 43 36 29 22 17 12 9 8 8 9 11 13 14 16
62 61 61 63 67 75 82 87 92 92 93 93 92 92 89 87 86 85 84 80 74 69 63 55 47 40 32 24 18 14 10 8 8 8 8 10 14 18 20 22 23 25 26

GFSGL_500_rhum_090.txt.gz
RH
99 98 71 51 65 94 76 50 45 22 27 22 18 19 20 25 72 97 97 97 97 96 98 96 96 96 97 95 95 97 98 97 97 97 98 96 96 100 99 97 94 94 98
96 98 77 65 77 94 93 56 42 27 33 29 27 22 21 24 55 97 97 97 97 98 97 97 96 96 97 96 97 97 98 99 96 96 97 94 93 91 94 100 99 94 78
98 97 57 62 92 92 99 86 56 44 38 35 31 33 25 23 21 96 97 97 98 97 98 97 97 97 97 97 98 98 98 96 96 95 96 94 95 93 100 76 40 28 26
96 95 67 83 100 95 99 97 69 35 31 30 28 34 31 24 22 29 94 97 97 97 97 96 97 98 98 94 92 88 86 92 91 89 98 97 83 59 36 25 21 19 20
93 82 93 94 97 97 95 97 90 73 36 28 25 30 32 32 29 23 35 97 97 96 96 96 97 97 97 97 97 97 98 98 98 98 71 32 23 19 20 23 28 34 38
80 85 96 97 87 91 97 100 95 85 73 59 47 37 37 38 40 36 31 18 84 98 96 94 97 98 97 96 85 82 66 59 39 24 20 20 22 28 39 58 81 88 86
88 92 84 97 97 91 95 98 100 93 89 82 66 63 62 67 67 62 46 37 28 20 35 32 36 37 30 24 21 20 19 19 18 21 28 33 42 61 80 85 81 78 80
100 88 86 87 95 97 94 94 98 98 97 97 87 76 72 83 86 82 77 73 78 53 35 31 25 22 22 22 22 24 26 28 32 45 64 78 82 83 78 71 68 67 65
72 88 88 83 79 77 96 92 90 81 91 90 89 84 89 90 97 96 90 97 91 93 86 68 44 42 45 45 53 60 90 91 78 79 79 76 73 71 71 71 69 67 67
48 64 71 81 94 99 76 89 98 78 75 86 82 84 82 87 89 94 96 95 97 94 90 99 92 80 78 85 88 90 88 84 79 75 75 72 74 78 79 80 79 78 76
89 77 68 65 98 90 95 99 94 98 96 86 80 81 80 81 88 93 96 79 82 92 92 93 92 92 88 92 97 93 89 81 74 75 75 79 78 79 81 88 93 93 94
100 100 97 84 76 99 96 99 100 98 98 99 91 87 74 94 97 92 96 98 96 97 85 89 95 91 100 100 85 88 83 79 78 76 75 86 84 86 90 94 97 98 96
97 97 100 98 99 92 62 90 100 96 99 94 100 98 99 96 100 98 89 97 98 98 99 99 95 94 89 100 94 96 94 92 88 93 97 98 96 90 94 96 98 95 78
100 100 100 100 100 100 99 97 100 100 98 99 99 99 99 100 100 98 99 100 94 98 98 98 98 99 98 96 95 98 100 98 97 98 98 97 97 96 86 75 60 54 44
99 98 98 99 100 100 99 99 99 95 97 98 98 98 99 99 99 99 99 98 99 99 98 97 98 98 96 98 99 99 100 100 99 99 98 91 74 54 41 31 23 20 19
100 100 100 100 100 100 100 100 100 100 100 99 100 99 98 99 98 98 97 97 99 98 98 98 99 100 100 100 100 100 99 98 96 97 92 75 52 35 26 23 22 21 22
100 100 100 100 100 100 100 100 100 100 99 100 100 100 100 100 100 100 99 99 100 100 100 100 100 100 97 95 95 84 67 49 41 37 33 30 29 27 26 24 23 24 24
100 100 100 100 100 100 100 100 100 100 100 100 100 100 100 100 99 98 98 99 98 99 98 85 73 62 52 46 42 40 38 38 37 36 34 32 29 28 28 28 28 27 28
100 100 100 100 95 96 99 97 97 98 99 97 97 96 93 91 83 84 92 94 93 89 79 63 55 51 50 49 49 48 46 44 42 39 38 38 38 36 35 33 27 23 24
83 93 100 100 100 100 99 98 91 88 98 98 86 82 65 52 66 73 73 76 77 75 70 68 65 62 60 57 56 54 52 50 46 43 40 34 28 25 26 26 26 25 24
38 40 42 47 53 61 65 67 80 91 92 94 86 84 88 85 84 82 83 81 77 74 71 67 64 60 56 52 49 42 34 29 26 30 31 29 27 25 26 28 30 30 36
29 28 26 26 25 27 30 33 37 41 45 48 50 50 51 51 51 50 48 46 44 40 36 32 31 31 30 30 32 34 36 31 29 29 31 34 34 35 39 45 48 48 46
41 39 36 32 32 35 35 35 35 36 39 40 41 46 49 46 43 42 41 42 41 41 41 38 34 37 40 38 38 41 43 44 47 48 49 53 54 54 50 46 39 32 24
62 59 51 43 39 40 42 46 47 47 48 49 47 49 56 57 57 59 59 57 56 54 54 52 52 62 71 73 72 67 62 64 65 61 56 50 42 32 23 15 10 8 7
52 53 53 56 62 66 70 72 74 78 80 81 84 85 86 87 88 84 81 81 81 80 79 78 77 76 74 73 70 66 61 51 44 36 26 17 11 9 8 8 9 11 11
57 57 57 57 55 53 53 53 54 57 60 63 64 65 66 66 67 67 66 64 66 68 70 69 66 60 54 48 42 35 26 19 14 11 10 9 10 11 12 14 14 14 16

GFSGL_500_rhum_096.txt.gz
RH
85 98 88 77 78 82 98 94 96 71 45 57 68 27 21 21 19 17 18 20 41 56 97 86 82 78 76 88 95 96 97 97 96 97 95 96 97 97 96 96 98 91 88
90 88 88 62 82 96 98 97 94 60 67 79 68 34 23 24 19 19 21 24 33 97 92 80 91 82 77 70 98 97 96 95 96 97 96 96 96 96 94 97 95 95 91
91 98 95 96 94 98 96 94 75 59 59 84 71 42 30 24 21 27 28 26 70 97 96 91 98 90 89 94 98 97 97 96 97 97 96 97 96 96 97 97 95 95 97
98 98 98 97 98 97 98 94 69 69 72 71 85 46 30 23 23 31 31 30 75 97 99 93 85 88 91 97 97 97 98 97 97 96 97 97 100 100 100 97 96 98 98
96 99 99 93 96 99 97 95 80 70 78 75 72 55 40 26 25 30 30 38 80 96 91 96 97 97 98 97 98 98 97 97 97 97 96 96 99 97 97 98 97 97 94
86 97 98 96 95 97 97 95 58 65 77 75 70 80 46 25 25 27 30 29 57 76 97 97 97 97 97 97 97 96 97 97 99 98 97 97 96 97 97 97 97 94 86
79 89 98 96 82 88 95 97 74 74 77 80 83 95 55 33 25 24 30 32 31 28 43 93 96 97 98 98 98 98 98 98 98 98 98 95 97 97 97 98 98 98 88
64 72 96 97 98 98 97 97 91 82 87 90 97 100 100 94 83 58 51 42 44 40 31 24 90 96 98 98 98 98 97 98 98 98 98 98 98 77 73 58 43 34 27
47 53 57 97 96 97 97 98 97 95 84 91 92 91 97 100 99 94 69 64 69 65 63 50 40 41 51 65 76 63 89 97 98 98 98 79 29 27 26 25 26 30 30
73 72 60 49 54 97 98 98 98 96 98 94 94 94 91 94 100 96 100 93 85 74 74 82 85 84 89 89 89 74 48 42 32 28 24 25 27 30 35 39 47 56 78
84 75 81 94 72 98 98 96 97 93 89 91 96 95 98 98 98 96 91 94 95 94 95 94 89 87 91 99 97 98 100 97 90 79 66 60 62 66 97 100 100 100 100
77 89 95 85 82 74 74 94 99 95 99 99 100 95 99 92 91 96 89 86 84 80 91 89 89 86 83 86 86 91 97 98 100 100 100 100 100 100 100 100 100 100 100
63 65 77 83 84 80 87 80 65 93 80 92 73 76 97 96 98 96 94 97 98 100 95 97 91 86 78 81 86 86 90 98 98 99 100 100 100 100 100 100 100 100 100
28 52 69 77 84 84 90 96 92 89 91 95 94 89 94 99 100 92 97 94 98 97 99 99 96 92 97 93 88 82 83 91 100 99 98 99 100 100 100 100 100 99 98
24 28 36 56 74 83 89 94 92 99 99 100 100 86 87 86 94 94 91 92 87 97 99 99 99 100 98 99 100 100 100 100 98 100 100 100 99 98 98 99 100 100 99
21 26 48 69 81 90 93 97 99 100 99 97 91 92 93 89 84 88 89 87 87 76 78 85 97 100 100 99 100 100 100 100 100 100 98 97 95 97 99 100 100 100 100
46 51 53 90 100 100 100 99 97 95 98 96 94 92 90 93 97 99 98 100 100 100 100 100 100 100 100 100 100 99 99 99 99 99 100 100 100 100 100 100 100 100 100
89 96 98 96 100 100 100 100 100 100 100 99 94 96 95 94 94 97 100 100 100 100 100 100 100 100 100 100 100 100 100 100 100 100 100 100 100 100 100 100 99 96 91
66 67 68 70 77 89 93 99 100 100 100 100 100 100 100 100 100 100 100 100 100 100 100 100 100 100 100 100 100 100 100 100 100 100 100 99 98 96 95 94 95 94 84
29 28 31 35 44 53 65 72 80 92 98 99 100 100 100 100 100 100 100 100 100 100 100 100 100 100 100 100 100 100 100 99 99 100 100 99 98 95 91 85 74 64 54
25 24 25 25 25 24 26 27 32 41 51 67 79 93 97 96 99 100 100 100 99 98 98 99 99 99 100 100 100 100 99 94 91 92 89 83 73 64 55 47 40 34 30
23 24 23 23 22 22 22 22 25 30 33 35 36 34 42 55 48 42 44 48 55 57 54 54 58 60 59 60 60 57 54 54 53 51 48 45 41 37 34 32 32 31 31
28 27 25 23 21 20 20 19 19 19 19 20 29 39 40 40 40 40 39 39 39 37 35 35 37 39 39 38 39 42 44 44 43 42 42 40 38 37 36 35 36 40 46
31 28 26 23 21 20 19 18 18 20 22 23 25 28 36 52 58 57 55 55 56 58 58 57 57 56 54 56 57 56 54 50 50 50 48 49 52 53 54 56 55 50 43
32 28 25 22 20 19 19 19 22 26 28 31 33 36 44 52 56 58 64 70 74 77 78 78 77 76 73 71 69 66 64 60 60 60 59 57 54 50 44 40 36 31 25
27 25 24 23 23 24 24 26 27 30 32 32 33 38 42 47 54 60 63 64 64 63 62 61 60 60 59 58 56 54 53 52 50 47 44 40 36 32 28 24 21 19 17

GFSGL_500_rhum_099.txt.gz
RH
91 91 98 93 100 85 70 53 91 97 97 95 94 71 34 66 44 18 19 18 21 20 21 22 36 56 92 88 54 48 42 95 97 96 96 97 96 95 94 96 96 93 94
100 97 95 92 99 86 75 83 93 96 96 98 75 62 58 76 37 20 19 18 19 19 20 25 31 72 86 82 82 90 63 95 97 96 98 97 96 97 97 96 100 100 98
99 93 97 85 98 98 74 95 81 85 98 95 40 44 65 82 38 20 22 24 21 19 23 24 75 89 90 98 89 70 56 92 97 99 96 97 96 96 88 85 88 84 92
98 98 98 96 98 92 80 83 83 95 94 93 41 57 62 69 35 27 24 27 21 22 28 50 94 97 95 96 87 80 98 95 98 96 97 97 94 88 88 91 87 87 91
97 96 97 98 98 98 97 92 97 98 98 87 46 58 67 64 48 36 27 24 23 31 29 89 91 99 98 95 83 93 94 96 98 96 96 97 92 85 82 83 86 94 95
94 96 97 97 97 88 97 97 96 96 98 83 48 60 61 66 58 39 30 23 23 33 32 91 94 95 98 92 98 90 96 98 97 97 97 96 98 99 98 96 94 94 96
92 98 90 90 99 100 100 97 95 97 98 84 51 57 66 78 83 49 38 25 22 32 36 51 89 97 97 97 96 98 97 98 97 97 97 97 97 98 97 97 97 97 97
70 62 85 92 98 92 97 98 96 98 97 94 50 54 66 85 100 67 44 33 27 30 39 36 33 62 94 96 98 98 98 97 98 98 98 98 98 98 98 98 97 98 96
72 76 88 100 97 99 98 92 98 98 97 97 63 58 72 82 92 96 90 63 65 56 44 49 49 32 36 93 97 98 98 98 98 98 98 98 99 98 98 97 100 90 58
81 79 66 62 78 97 97 98 98 99 98 98 95 73 76 83 91 98 98 95 86 80 68 59 53 68 62 41 44 66 87 95 95 97 98 98 96 96 96 96 91 44 29
95 91 90 75 71 81 92 99 99 97 98 98 97 96 92 92 98 96 100 99 89 86 83 80 78 66 58 83 92 81 77 77 88 95 95 91 98 59 41 37 37 42 46
61 85 88 91 88 100 97 98 98 98 98 98 99 98 99 98 98 99 99 99 99 98 93 89 83 84 86 82 83 89 94 94 96 100 99 98 98 98 97 98 98 97 97
29 32 62 92 84 89 94 86 84 96 97 98 98 98 100 98 100 99 97 98 98 90 97 98 94 95 78 80 99 96 95 99 98 99 98 98 98 99 98 99 99 99 99
22 26 28 30 51 64 77 88 92 94 89 96 97 89 96 100 99 96 95 100 98 93 100 90 85 90 94 99 98 98 98 98 99 99 100 100 99 100 99 99 99 98 100
23 19 20 22 25 28 40 62 73 93 92 93 95 94 86 89 100 99 93 92 100 96 100 100 93 91 87 85 96 92 97 98 98 96 96 96 96 97 98 98 99 98 99
20 26 24 20 19 18 21 34 36 51 64 75 82 84 86 89 90 91 95 99 95 92 93 98 99 100 97 85 98 98 100 100 100 100 100 100 100 100 99 100 100 100 100
25 29 29 37 40 35 25 27 39 63 75 84 89 90 92 95 95 95 100 100 100 99 97 93 91 95 100 100 89 92 98 96 100 100 100 100 100 100 100 100 100 99 99
57 60 64 64 69 71 79 78 77 78 89 92 91 91 95 96 97 100 99 99 100 100 100 100 100 100 100 100 100 100 99 100 100 100 100 100 100 100 100 100 100 100 100
20 22 28 37 48 58 62 64 67 72 79 86 98 100 100 97 96 98 99 100 98 99 100 100 100 100 99 98 98 98 98 99 99 100 99 100 100 100 100 100 100 100 100
24 25 24 23 22 22 22 22 25 26 29 40 52 63 77 93 100 100 100 100 100 100 100 100 100 100 100 100 100 100 100 100 100 100 100 100 100 100 100 100 100 100 100
26 25 24 24 23 21 20 20 20 21 24 25 25 27 31 38 47 60 78 94 98 99 100 100 100 100 100 100 100 100 100 100 98 97 97 97 97 97 98 98 97 97 93
29 28 28 28 29 28 26 25 24 23 23 22 22 22 22 22 24 31 36 40 46 56 76 92 96 96 96 97 98 99 98 96 94 93 92 89 84 79 75 69 59 49 45
44 44 43 42 39 37 34 32 30 28 25 23 21 20 18 18 18 18 19 20 27 36 42 45 52 64 64 59 59 59 60 61 61 57 56 55 52 50 47 44 43 44 42
48 46 43 40 37 35 33 31 29 28 26 24 23 21 20 18 17 16 18 20 22 23 27 38 47 50 52 55 57 58 58 58 56 58 58 57 56 56 54 53 52 51 50
44 41 37 34 31 29 26 24 22 21 20 20 20 19 19 18 17 17 18 21 25 30 35 40 47 61 76 84 86 84 83 81 81 81 77 73 70 67 65 64 62 58 54
33 28 23 20 16 14 14 13 14 15 17 19 20 21 22 23 25 26 28 30 32 36 42 52 62 67 72 75 77 78 80 81 80 78 74 70 66 62 58 54 50 46 41

GFSGL_500_rhum_102.txt.gz
RH
99 97 100 94 92 95 90 98 98 80 66 73 51 86 95 92 97 98 88 52 22 20 24 24 21 20 22 29 34 45 64 49 57 41 31 75 89 79 85 96 98 94 94
95 99 98 100 94 100 100 98 98 97 97 97 85 91 95 98 94 44 74 41 22 23 22 22 20 18 21 22 30 32 83 81 60 23 60 97 96 97 97 97 95 82 100
94 98 98 98 100 98 98 96 99 98 97 97 97 97 98 97 85 52 74 39 21 21 22 19 18 19 21 24 47 74 80 95 86 46 41 97 96 96 96 90 100 93 95
85 88 97 97 97 98 92 97 98 98 97 96 99 99 98 92 51 53 62 38 20 21 23 21 22 24 28 36 97 88 96 93 94 97 59 99 91 96 98 97 96 93 98
92 99 92 99 94 96 96 97 98 87 65 72 76 90 96 71 56 56 54 34 28 22 21 23 28 22 45 96 98 92 84 92 96 87 69 100 94 97 95 97 95 98 93
96 99 98 97 96 92 96 96 97 98 93 92 93 95 97 85 51 50 59 57 32 26 22 29 25 21 79 86 88 100 100 94 93 80 93 89 96 97 97 91 87 93 99
95 91 93 98 96 94 98 98 97 96 98 93 94 97 98 80 51 48 65 59 37 30 28 27 24 27 39 97 98 99 100 90 87 97 96 94 97 97 97 96 86 84 84
99 96 97 98 98 99 98 94 92 98 95 96 87 93 97 68 49 56 65 69 47 34 34 26 25 35 34 60 96 98 98 97 97 98 97 97 96 97 97 98 98 100 97
100 100 97 91 97 98 99 97 87 93 96 97 98 100 96 76 60 63 69 77 61 36 29 28 30 36 44 40 68 92 97 98 98 97 96 98 98 99 97 98 97 98 97
99 99 99 95 99 98 97 98 100 100 97 98 98 97 98 95 65 63 65 80 84 73 57 49 43 46 55 67 74 66 90 96 97 97 98 97 97 97 97 98 98 98 98
94 99 100 100 99 86 80 95 98 99 99 98 98 98 97 97 93 90 66 76 86 92 96 88 74 63 65 65 71 77 82 56 46 79 92 97 98 97 98 98 96 93 94
37 78 94 98 99 99 100 98 98 98 99 99 99 99 98 100 99 98 90 89 86 86 90 93 91 96 92 87 84 78 79 92 100 90 76 79 88 95 97 97 98 99 99
24 30 37 53 86 98 97 96 99 99 98 99 99 98 99 99 99 97 96 97 98 96 94 93 88 90 91 96 94 93 93 90 91 90 95 99 100 100 100 98 99 98 98
21 20 22 24 28 32 67 96 96 98 96 98 98 98 98 98 100 99 99 100 100 100 99 99 99 100 100 98 99 97 92 95 97 93 100 100 100 96 97 100 99 99 99
18 21 21 18 18 20 23 26 35 83 96 97 99 98 99 99 99 99 98 98 98 99 99 100 99 100 100 97 98 98 99 96 98 98 100 99 99 100 100 100 100 97 97
6 7 8 11 13 18 18 16 16 16 20 36 53 70 85 97 99 98 99 99 97 98 98 96 98 98 100 99 100 100 100 100 94 92 98 100 100 100 97 96 97 98 99
14 14 12 9 8 9 7 12 19 22 21 19 16 16 30 47 66 85 99 99 98 98 97 96 99 96 96 98 100 100 100 100 100 100 94 91 98 100 100 100 100 97 98
15 16 16 17 20 22 25 28 28 31 38 37 34 32 34 41 60 71 79 82 89 96 94 91 95 97 96 99 100 100 100 100 100 99 97 100 100 100 100 100 100 100 100
20 19 20 20 20 18 17 15 22 33 39 42 50 55 59 61 63 66 76 85 88 91 92 94 96 98 98 100 100 100 100 100 100 100 100 100 99 100 100 100 100 100 100
24 25 24 23 22 21 21 21 20 19 19 19 21 22 24 26 36 51 66 77 91 92 90 86 87 94 96 97 97 94 96 97 98 99 100 100 100 100 100 100 100 100 100
26 26 26 26 28 29 31 32 28 25 25 24 23 21 19 19 19 20 21 23 34 52 76 96 100 100 100 100 100 100 100 100 100 100 100 100 100 100 100 100 100 100 100
28 27 27 29 30 32 35 36 39 39 39 36 34 33 30 26 24 23 23 22 22 23 26 34 44 61 83 95 99 100 100 100 100 100 100 100 100 100 100 100 100 100 100
35 33 32 33 35 38 40 40 40 40 39 39 38 37 36 34 32 29 27 25 23 21 20 20 20 22 28 36 44 55 67 79 90 96 97 99 98 98 98 99 98 98 97
43 42 43 43 42 40 38 36 34 32 31 30 30 29 29 29 28 27 26 26 25 24 23 21 19 18 18 19 20 26 39 46 49 53 61 73 85 93 94 92 91 88 84
48 48 42 32 23 17 14 12 12 11 11 11 10 10 11 12 14 15 16 18 18 19 20 20 20 19 18 18 19 22 27 32 52 80 89 90 91 91 92 93 96 97 98
42 24 12 8 8 9 9 9 10 10 9 9 10 10 10 10 11 11 12 14 17 19 20 21 21 21 21 20 21 23 28 37 46 55 70 88 98 100 100 100 100 100 98

GFSGL_500_rhum_105.txt.gz
RH
66 71 74 79 94 97 98 97 86 97 94 100 96 98 85 79 75 98 100 96 100 98 67 38 18 17 29 21 22 22 21 34 46 73 84 82 65 57 44 38 30 46 93
62 69 76 83 92 95 86 97 90 90 100 100 80 76 74 73 76 98 98 96 97 80 51 24 19 26 28 28 22 18 19 26 33 51 80 72 53 65 54 40 60 75 56
67 79 85 77 98 98 90 81 91 98 94 98 78 69 74 73 97 96 96 97 95 94 47 21 18 21 23 21 20 17 18 19 26 56 56 72 64 58 50 80 89 90 100
67 84 90 84 94 91 96 98 98 97 88 96 96 89 78 94 84 100 98 97 91 76 34 19 19 18 17 16 18 18 22 26 37 77 69 94 99 72 51 84 97 96 97
60 89 97 98 95 98 97 98 99 93 95 97 97 99 91 87 99 100 100 98 53 54 38 20 20 20 19 22 23 27 33 66 94 94 86 96 78 86 82 89 97 98 97
76 94 93 98 98 94 96 98 98 90 98 94 92 91 89 89 97 92 97 72 52 53 44 28 25 19 20 20 27 34 78 92 98 92 98 100 86 100 88 93 100 97 96
94 97 97 94 96 97 93 89 97 99 98 98 96 90 92 72 78 93 88 55 56 60 54 34 27 25 22 26 28 33 98 87 97 88 89 98 98 97 96 86 97 96 98
99 98 98 95 98 99 99 97 96 96 93 94 96 90 85 82 91 94 99 90 51 74 72 55 31 26 23 28 34 35 95 98 98 95 94 93 97 100 92 99 98 96 97
100 100 99 98 98 98 98 99 96 91 84 98 91 96 91 95 98 96 100 100 57 77 83 74 46 29 25 27 37 40 58 95 98 98 100 100 99 97 99 98 97 98 97
99 100 100 99 99 98 98 98 99 88 82 90 98 93 98 98 97 83 97 94 62 73 76 83 51 38 34 32 36 44 61 64 92 97 98 98 98 98 97 98 98 96 96
90 99 100 100 100 98 98 98 98 99 100 100 99 98 97 97 98 98 95 98 67 71 81 86 66 62 55 61 71 57 62 77 82 82 98 97 97 98 98 97 97 98 97
32 38 75 98 98 100 100 97 99 98 97 97 98 98 98 98 98 98 99 98 99 85 94 93 94 89 84 82 77 84 76 70 71 76 75 74 87 94 96 97 96 96 97
25 24 26 30 64 93 95 100 100 99 100 100 99 99 99 99 99 98 99 99 99 99 97 97 100 98 96 96 97 84 90 88 95 93 92 90 100 93 77 79 96 96 96
23 24 25 23 21 21 24 32 72 95 98 100 99 99 100 99 99 99 99 99 100 99 98 94 97 100 96 97 97 99 95 93 84 88 94 94 96 96 96 97 100 100 100
7 8 9 9 10 14 16 17 19 20 29 64 93 98 99 100 100 99 98 99 98 98 100 100 96 98 98 98 99 100 100 100 100 98 93 93 95 97 97 98 98 100 100
8 7 6 6 6 6 6 6 5 6 11 16 18 25 34 66 94 99 100 100 99 99 99 99 100 100 100 100 99 99 99 98 100 100 100 99 94 99 100 99 100 100 99
9 8 7 7 7 7 7 7 6 6 6 6 5 8 15 20 21 26 45 65 85 96 100 100 99 99 99 99 99 98 100 100 100 100 100 100 100 100 100 100 99 100 100
14 14 13 13 12 12 12 11 10 10 10 10 10 12 13 10 13 19 23 26 28 38 55 73 89 96 99 99 100 99 99 98 99 99 98 100 100 100 100 100 100 99 98
20 19 19 18 18 18 17 17 17 16 16 14 12 12 13 12 14 21 29 32 33 38 41 48 73 81 78 76 85 97 100 100 100 100 100 100 100 99 99 100 99 100 100
27 27 26 26 25 24 22 21 21 20 19 20 21 21 19 16 14 14 14 16 23 31 39 50 58 63 81 89 94 94 94 96 98 99 97 93 95 98 100 100 100 100 100
30 28 25 22 24 26 27 26 25 24 23 21 22 22 24 26 26 24 20 18 16 16 17 18 21 25 40 62 77 94 100 100 100 100 100 100 100 100 100 100 100 100 100
35 32 28 28 30 31 30 29 29 30 28 28 26 28 30 28 28 30 32 32 28 24 22 20 18 17 18 19 22 29 45 69 93 100 100 100 100 100 100 100 100 100 100
35 31 31 34 38 34 32 32 32 32 31 31 31 30 32 34 36 36 35 36 36 37 36 33 30 26 23 21 20 20 21 22 24 32 45 66 88 100 100 100 100 100 100
32 37 40 36 33 32 27 21 16 13 11 10 10 11 12 13 16 19 23 27 30 32 33 34 35 35 33 31 28 26 23 22 21 20 20 21 23 29 40 52 69 85 95
40 40 34 31 23 13 8 8 9 9 10 11 11 11 10 9 8 7 7 8 9 11 14 17 20 24 26 28 28 27 26 26 25 23 21 20 20 21 22 26 36 52 64
41 32 23 10 9 12 14 17 18 19 19 19 18 18 19 20 20 18 14 11 10 9 8 8 8 9 11 14 16 18 20 21 22 22 22 22 21 21 22 27 32 41 55

GFSGL_500_rhum_108.txt.gz
RH
8 4 4 3 32 55 60 73 88 82 84 57 87 67 46 61 77 78 91 96 96 74 86 83 98 96 94 98 55 29 21 13 26 32 39 70 93 95 98 93 93 81 53
7 5 3 2 41 70 67 69 97 96 98 95 95 90 75 68 67 77 87 84 94 98 90 95 96 98 91 79 35 22 28 17 23 16 21 50 63 98 95 95 77 78 65
7 6 4 3 25 70 79 80 84 95 98 97 98 98 98 100 87 84 78 97 94 92 97 96 96 99 83 43 31 22 28 25 24 18 17 24 35 56 70 82 66 58 56
8 5 3 3 21 51 75 78 100 88 95 88 89 98 96 97 76 59 63 67 95 99 98 98 97 91 78 29 17 25 23 20 18 16 16 19 25 45 58 58 58 52 60
6 3 3 3 33 50 76 85 93 95 95 96 95 89 95 96 84 73 57 83 92 97 75 92 78 54 38 18 17 22 21 19 16 17 20 21 42 59 68 68 91 100 76
5 3 3 11 75 67 83 75 89 98 92 98 97 97 98 93 91 80 81 87 85 90 96 89 65 46 24 18 17 18 17 19 20 18 22 32 73 99 90 69 97 99 76
4 3 6 43 75 89 96 95 93 97 96 97 98 98 95 97 97 89 98 83 83 88 100 93 48 49 27 20 19 20 21 20 20 31 47 74 95 100 80 95 98 98 95
2 6 51 82 83 96 98 98 89 93 97 98 98 97 98 98 97 98 91 83 85 90 93 72 51 56 44 35 33 25 23 20 32 56 100 88 97 78 81 98 97 95 98
59 83 97 100 100 98 98 99 100 97 95 95 95 96 98 96 100 98 92 84 94 98 81 58 56 62 61 60 36 30 27 25 36 56 94 99 97 94 93 100 98 98 96
100 100 100 100 100 100 98 98 98 98 99 99 96 97 97 98 98 99 91 90 94 93 95 100 66 60 67 64 43 39 29 25 32 41 60 88 97 98 95 94 99 98 92
99 100 100 100 100 100 100 100 99 99 99 100 97 92 96 98 99 99 97 99 94 98 100 100 99 69 66 72 56 39 30 24 32 41 52 82 95 97 98 98 99 98 98
91 80 77 77 93 97 99 99 100 100 100 100 98 99 100 98 97 98 98 99 98 98 99 100 100 94 67 80 67 47 54 28 38 49 62 68 75 89 97 97 98 97 97
37 37 40 29 27 28 35 61 86 98 99 100 100 100 98 99 99 99 98 99 98 99 98 98 98 100 85 95 95 80 71 80 75 67 69 76 72 72 83 92 92 90 98
15 12 11 10 10 7 7 10 15 26 42 66 95 99 100 99 99 100 100 100 100 99 98 98 97 98 95 100 99 89 85 84 86 96 93 96 96 100 98 91 94 83 76
12 10 9 8 6 6 5 5 5 5 6 10 22 45 83 97 99 100 100 100 100 100 100 100 99 99 100 99 97 98 99 98 99 97 95 100 98 100 100 100 99 100 99
10 8 8 6 5 5 4 4 4 4 4 4 4 4 7 26 44 75 96 98 99 100 99 100 100 100 99 99 100 99 98 99 99 99 98 97 99 100 98 97 100 98 98
12 12 12 11 11 10 10 10 9 9 7 6 5 5 4 4 5 5 12 34 63 93 97 98 99 100 99 99 100 100 100 99 100 98 99 100 100 98 100 100 100 100 100
19 20 18 17 16 16 15 14 14 14 13 13 11 10 8 8 7 7 6 6 7 7 22 47 69 86 94 98 99 100 100 99 100 100 100 100 100 100 99 99 100 100 100
21 21 22 23 22 21 20 18 17 16 15 14 14 13 13 13 13 12 10 9 9 8 8 8 10 14 28 49 66 76 74 80 88 97 99 100 100 100 100 100 100 100 100
28 30 28 26 24 21 17 16 16 16 15 15 16 17 18 16 15 16 16 14 13 11 11 12 10 9 11 18 22 26 33 43 56 65 72 80 88 91 96 100 100 100 100
36 33 30 27 25 23 22 20 19 18 18 17 16 19 20 19 18 18 19 19 19 17 15 13 14 16 15 12 12 13 23 33 43 50 54 69 80 84 87 87 90 91 97
34 30 28 28 26 23 23 21 19 19 18 18 19 18 18 17 18 19 20 21 22 22 22 20 19 19 20 21 21 18 15 14 16 21 29 43 58 70 84 92 94 96 100
28 29 28 28 30 28 26 24 20 15 13 12 11 10 9 9 9 10 12 15 18 19 22 25 28 28 26 24 27 31 31 27 23 20 17 17 18 20 28 41 61 83 98
36 34 31 34 33 30 24 17 12 8 8 9 9 10 10 10 10 9 8 7 6 7 8 12 16 21 27 32 35 32 33 36 37 37 34 28 24 22 22 22 22 22 25
40 37 38 37 31 22 14 8 10 14 15 16 17 17 17 18 18 18 17 16 14 12 11 9 8 8 9 12 16 23 31 35 36 36 37 38 36 34 31 28 26 24 23
43 43 40 31 20 10 10 13 14 16 18 22 24 26 26 27 27 26 25 22 23 21 18 17 17 14 11 9 8 8 9 12 18 24 28 30 31 31 31 30 30 29 27

GFSGL_500_rhum_111.txt.gz
RH
52 47 37 28 13 7 6 5 4 6 31 42 82 94 60 76 97 93 60 40 44 70 98 78 92 75 95 91 99 88 95 89 56 38 19 18 28 53 88 98 88 89 93
56 40 33 15 11 7 7 6 4 9 44 60 91 99 94 93 96 77 71 50 57 99 86 89 87 90 99 83 99 99 98 90 72 28 16 34 45 38 51 64 87 88 97
46 38 23 14 10 9 7 5 6 8 48 63 83 86 94 97 99 66 68 64 70 74 90 99 96 96 93 98 97 96 99 84 64 26 24 18 28 29 28 40 69 96 98
49 37 18 14 11 10 6 6 4 7 55 66 70 79 89 98 98 98 93 94 79 78 97 98 95 76 63 93 93 94 94 96 47 23 24 19 25 24 22 27 36 58 64
50 28 18 14 12 7 6 5 2 30 54 74 74 76 89 97 95 98 98 98 79 79 88 85 83 76 81 94 94 99 98 56 29 38 22 24 20 18 18 20 22 28 46
24 17 16 14 11 6 5 3 16 54 58 75 82 88 90 91 82 94 96 96 79 78 70 88 81 96 98 98 96 94 66 41 24 30 27 24 22 18 17 21 24 46 99
9 10 10 9 7 6 3 4 62 77 75 73 82 92 90 90 96 97 94 89 77 88 87 79 93 88 91 91 81 63 39 21 18 22 20 18 19 22 22 26 40 71 89
2 2 2 2 3 2 5 29 84 96 86 91 91 91 88 97 95 96 96 93 91 89 94 88 93 93 86 78 58 47 32 21 20 20 19 21 24 26 34 49 72 92 100
55 62 50 39 57 83 84 90 100 99 95 87 93 99 94 96 95 97 97 94 96 94 96 89 82 98 97 83 54 44 35 23 22 28 24 24 26 39 94 100 96 98 98
100 100 100 100 100 100 100 99 100 99 97 96 97 98 99 100 98 96 97 97 98 95 95 78 80 88 100 80 52 46 48 36 31 31 28 23 26 44 87 93 91 95 95
100 100 100 100 100 100 100 100 100 100 99 100 99 98 96 94 96 100 98 98 98 98 98 95 92 100 99 70 59 56 56 55 44 33 29 22 27 38 69 99 86 97 98
100 100 98 97 97 73 85 97 99 100 100 100 99 99 100 100 97 97 98 99 100 100 98 92 95 97 92 99 100 86 62 68 59 52 29 23 25 35 43 96 98 96 89
92 82 77 65 75 82 39 18 31 53 90 97 98 100 100 99 98 100 99 98 98 98 98 98 98 98 98 98 96 100 97 73 74 72 49 34 33 27 38 51 74 95 98
14 11 10 9 8 6 5 6 19 20 16 36 46 58 76 95 100 100 99 99 98 98 98 98 99 99 99 98 98 99 99 98 82 81 82 67 56 41 46 55 61 86 87
14 14 12 11 11 10 10 9 8 6 4 6 6 15 19 26 40 64 89 98 100 100 100 98 98 98 99 98 98 99 98 99 98 88 92 91 87 91 79 75 76 74 83
17 16 15 15 14 13 13 12 10 9 8 7 6 5 5 4 4 5 9 19 51 91 98 100 100 100 100 99 99 100 100 99 100 97 95 99 100 85 96 97 100 99 96
20 20 20 21 22 23 20 17 13 12 11 10 10 9 8 8 8 6 5 5 5 6 16 52 93 98 99 100 100 100 100 100 100 100 100 100 100 99 100 100 100 100 94
26 28 31 30 26 21 20 17 15 14 13 13 11 10 9 9 8 8 9 9 8 7 6 6 10 31 63 86 96 97 99 100 100 100 99 99 100 100 100 100 100 100 100
27 29 28 24 22 22 20 17 16 15 15 15 14 12 10 10 11 10 10 11 10 10 10 10 9 7 6 10 20 48 85 96 98 98 100 100 100 100 100 100 98 99 100
27 26 23 21 19 16 15 15 14 14 13 14 15 13 12 13 14 12 11 11 11 11 11 11 12 11 10 9 7 6 6 9 37 80 93 94 95 96 98 98 100 100 100
32 28 23 19 18 19 18 16 15 15 14 15 15 13 13 12 11 10 9 8 8 8 9 10 10 10 11 11 10 10 10 8 7 5 9 26 57 74 78 84 82 84 92
33 30 29 27 27 24 22 20 18 19 20 18 16 16 14 11 8 6 5 4 4 4 5 6 8 9 10 11 12 11 12 12 11 10 9 8 9 10 15 26 40 51 62
32 33 35 34 32 29 27 26 26 25 23 20 16 11 7 5 7 8 9 8 8 8 7 6 6 6 7 9 12 16 18 19 18 16 15 14 15 16 14 13 14 17 23
36 40 39 36 35 34 33 30 27 23 17 10 7 7 9 10 11 11 11 12 14 13 13 13 12 11 8 7 7 9 14 20 23 26 26 25 24 25 29 28 24 20 18
41 43 40 38 38 34 31 28 21 11 8 10 13 13 12 12 13 13 14 16 19 23 22 20 19 18 16 14 12 9 8 8 11 16 24 32 36 39 39 38 41 39 36
45 43 40 38 34 32 28 18 9 10 14 15 14 15 16 18 19 21 21 21 22 25 30 32 31 27 25 22 20 17 15 13 10 8 9 12 18 26 34 40 41 42 43

GFSGL_500_rhum_114.txt.gz
RH
58 60 69 72 60 53 44 41 37 23 10 7 6 5 3 14 44 54 71 51 57 96 93 87 89 95 100 83 85 80 76 74 59 54 68 80 69 48 30 50 46 39 48
55 45 43 56 55 54 48 38 29 15 8 9 8 5 3 37 50 81 84 78 82 98 78 63 75 90 97 97 77 86 64 80 85 74 95 86 51 42 24 21 31 58 86
45 39 40 52 56 52 40 32 17 11 9 10 8 4 3 38 62 75 97 97 97 97 82 49 70 94 81 90 90 80 84 100 98 97 98 97 60 48 19 24 27 46 93
33 38 46 53 52 47 40 22 15 12 12 10 8 3 4 58 70 74 92 98 97 96 84 74 76 97 100 85 97 97 96 93 98 96 97 96 77 32 21 23 31 30 34
34 54 59 61 61 58 41 21 15 13 11 8 7 5 24 60 78 76 90 94 96 95 91 84 87 97 98 98 98 93 97 98 99 97 92 96 66 28 26 20 23 22 21
43 45 41 46 66 60 35 21 17 15 8 8 5 22 63 77 82 81 83 96 94 97 97 97 96 97 96 96 92 72 74 82 92 93 91 97 54 26 23 21 21 18 18
8 8 12 17 20 23 23 21 18 12 8 6 7 49 85 93 88 98 96 97 98 100 97 97 93 91 80 93 96 100 99 97 97 92 98 90 36 35 28 27 24 20 16
3 3 3 3 4 4 7 9 7 5 5 10 29 79 93 86 88 89 95 95 93 97 97 97 95 83 93 87 95 97 98 97 98 98 93 52 27 24 25 21 18 16 17
30 33 20 24 38 36 41 42 20 12 40 57 75 92 98 94 96 97 94 95 93 97 91 84 91 93 99 87 91 98 97 98 82 71 42 30 22 19 18 15 18 20 24
98 100 100 100 100 100 100 100 100 100 100 100 100 99 99 99 99 98 98 98 98 96 96 99 97 100 98 96 98 98 99 75 64 41 36 37 21 19 19 20 20 25 50
100 100 95 99 97 97 97 95 98 100 100 100 100 100 99 99 99 98 99 98 98 98 97 98 97 93 98 96 98 97 92 89 66 45 40 36 29 27 29 24 23 26 46
100 99 96 100 98 98 99 100 98 96 95 100 100 100 100 100 100 98 99 100 98 99 98 98 98 99 97 97 98 99 99 99 83 55 54 44 50 46 28 24 22 25 36
77 49 32 18 12 11 10 11 12 30 63 45 47 84 90 97 100 100 99 98 99 99 98 98 98 98 98 99 98 99 100 99 90 68 65 55 53 57 44 32 23 26 33
15 14 15 16 16 16 14 13 13 14 13 12 18 29 25 50 62 87 97 100 100 99 99 98 99 97 98 97 99 99 98 98 98 98 98 97 90 73 55 53 33 30 40
20 21 21 20 21 22 22 19 14 12 10 9 8 7 6 6 6 8 18 53 86 96 99 100 100 99 99 99 98 98 98 99 99 99 99 100 100 100 87 64 62 47 40
24 24 26 29 29 24 19 16 14 13 12 11 10 10 8 7 6 5 5 5 6 16 46 72 81 95 100 100 100 99 98 99 99 99 99 98 100 100 98 90 88 94 87
26 26 27 28 24 21 20 18 16 14 13 12 11 11 10 9 8 7 7 6 6 5 5 5 9 15 34 82 96 98 100 100 99 100 99 97 100 100 100 100 95 99 100
30 32 31 31 28 26 23 20 19 16 14 12 9 8 8 7 7 7 7 8 7 7 7 7 7 6 5 5 12 46 77 95 100 100 99 100 100 100 100 100 100 100 100
40 37 33 30 27 23 18 14 12 11 10 9 8 8 7 6 6 6 6 6 7 7 7 6 6 6 7 7 6 5 6 16 50 84 96 99 99 99 100 100 100 100 100
41 33 30 26 21 16 14 12 11 10 9 8 7 6 5 5 5 5 4 4 4 5 6 5 5 5 5 6 7 7 6 6 6 8 24 57 83 97 99 100 100 100 100
32 28 24 18 16 14 12 10 9 8 7 6 5 5 5 6 8 9 9 8 8 8 8 7 6 6 5 5 5 6 6 7 7 8 8 8 7 20 46 81 93 97 99
25 23 19 16 13 12 10 9 8 7 6 6 6 7 9 11 12 10 9 7 6 5 5 5 5 4 4 4 4 4 4 5 6 7 8 9 10 9 9 9 13 29 56
27 24 18 16 13 11 10 9 8 7 7 8 9 11 13 11 8 6 6 7 8 8 8 8 8 8 8 8 8 7 5 4 5 6 7 8 10 11 11 12 11 11 11
30 24 19 16 14 11 9 10 10 11 12 15 16 12 8 7 9 10 10 10 10 11 10 10 11 11 11 10 10 11 11 10 7 7 8 11 12 14 15 15 17 17 16
30 22 17 15 14 11 13 14 14 16 21 18 10 8 11 12 12 11 11 12 14 16 16 17 17 17 16 15 15 15 15 16 14 12 9 8 10 18 27 29 27 29 29
24 16 14 14 13 15 20 21 23 27 18 9 10 12 12 13 15 17 18 18 17 16 16 18 20 21 22 22 22 22 24 24 23 19 16 14 11 9 9 16 28 37 40

GFSGL_500_rhum_117.txt.gz
RH
98 92 85 50 47 41 35 65 99 86 49 45 41 36 34 25 13 8 6 6 3 3 24 36 67 64 60 80 97 96 93 89 92 96 94 78 87 70 74 57 62 55 34
83 77 62 50 38 31 28 37 53 64 63 50 44 39 34 16 8 8 8 6 3 11 44 89 57 66 99 91 91 100 95 98 98 96 98 96 85 72 36 35 68 58 34
80 60 55 42 34 32 24 32 41 49 51 50 41 34 24 13 9 9 6 3 2 25 64 96 87 97 98 87 84 80 95 98 86 97 97 96 86 54 62 76 77 50 32
68 51 46 41 34 26 24 32 45 51 50 46 39 35 15 12 12 11 6 2 17 53 64 99 99 96 91 83 74 93 98 93 96 85 86 74 91 83 95 95 79 40 30
53 50 41 39 33 25 22 32 46 55 52 46 34 19 16 14 11 7 3 10 46 67 63 83 92 84 66 57 88 96 98 92 81 70 72 97 99 100 88 92 96 61 23
42 35 41 34 36 33 38 48 51 56 55 47 30 19 16 14 9 4 7 49 62 71 68 80 94 92 91 99 97 95 69 71 97 88 93 94 98 99 83 88 83 52 24
26 28 32 33 33 18 12 18 31 41 45 32 23 20 14 10 6 3 48 74 87 91 96 90 97 87 100 96 98 90 95 98 92 94 94 91 96 98 88 93 87 55 31
10 9 6 6 6 4 4 4 5 10 18 20 15 12 8 5 4 3 62 95 100 98 100 100 91 98 97 100 92 95 93 75 93 98 90 88 96 93 95 98 93 45 27
29 43 60 79 82 78 70 54 31 13 9 7 6 6 5 4 5 26 80 99 98 98 100 96 100 97 97 96 98 89 95 93 99 85 89 98 98 98 96 92 81 44 32
100 100 100 100 100 100 100 100 99 100 95 88 92 84 62 64 72 81 97 98 99 98 99 97 100 99 99 97 93 87 100 95 98 99 86 98 97 97 97 81 46 35 27
100 100 100 100 99 98 98 100 100 99 97 95 97 100 100 100 100 100 100 99 99 99 100 99 98 98 98 97 98 96 96 97 98 98 100 98 99 92 57 40 33 25 19
100 100 100 93 60 33 21 17 23 37 29 67 95 95 97 98 98 99 100 100 100 100 99 100 98 98 98 98 98 98 97 98 98 98 98 97 95 77 54 41 34 28 21
57 22 16 14 15 18 18 19 18 18 41 38 40 50 53 71 76 93 99 98 98 100 100 99 99 99 100 98 98 99 98 99 98 98 99 99 98 90 59 44 39 29 31
19 17 20 22 24 30 28 24 20 17 15 14 14 12 11 11 9 13 22 30 53 81 96 98 100 99 98 99 99 98 98 99 98 98 98 98 98 97 92 61 60 58 54
23 25 27 31 31 28 24 21 20 18 17 16 14 12 11 11 10 9 8 8 8 17 26 48 83 95 97 99 99 99 99 100 98 98 98 98 99 99 98 97 92 73 64
28 31 32 32 28 25 22 20 20 18 16 13 11 9 8 7 7 6 6 5 5 6 6 5 6 16 44 75 94 98 99 98 98 98 99 99 99 99 100 100 98 98 98
32 32 32 29 27 27 27 26 21 15 12 11 9 8 7 6 6 6 5 5 4 4 5 5 5 5 6 6 13 36 73 92 100 100 99 99 99 99 100 99 99 100 100
36 36 34 33 32 30 25 19 15 13 11 9 8 8 7 6 5 5 4 4 4 4 4 4 4 4 4 5 6 5 5 11 33 61 92 100 100 99 99 99 99 96 99
34 34 35 31 27 24 19 14 12 11 10 9 8 7 6 6 5 5 5 4 4 4 3 3 3 3 3 3 4 4 6 6 6 5 11 21 81 100 100 99 99 100 100
41 41 32 26 24 19 16 13 12 11 10 9 9 8 8 7 6 6 6 5 4 4 4 4 4 4 4 4 4 4 4 4 4 5 5 5 4 10 64 98 100 100 100
48 42 32 27 23 19 16 14 12 11 10 10 10 9 8 8 8 7 6 5 5 5 7 8 8 6 6 6 6 6 5 5 4 4 5 5 5 6 5 5 34 85 96
46 39 31 26 21 17 16 14 12 11 12 12 11 10 9 9 8 6 6 10 11 10 8 6 5 5 5 5 5 5 4 5 5 5 6 6 6 6 7 7 7 6 10
41 34 28 22 18 17 15 13 12 13 13 13 12 11 10 8 9 14 15 11 8 7 7 7 7 7 7 7 7 7 7 7 6 6 5 4 4 5 5 6 8 9 9
40 34 26 21 19 16 14 13 14 15 14 14 13 11 10 17 21 14 9 8 9 10 9 8 9 10 11 12 12 11 10 10 9 9 8 8 7 6 5 5 8 10 13
39 30 23 20 17 15 14 15 16 15 15 14 13 18 25 21 12 10 11 13 12 11 11 12 13 15 16 16 15 15 16 16 15 13 13 12 10 10 9 8 7 9 20
40 29 23 19 16 15 16 17 17 17 16 19 29 30 19 11 12 15 16 15 14 14 13 12 12 14 16 18 17 15 14 14 18 19 18 18 17 16 15 13 13 11 9

GFSGL_500_rhum_120.txt.gz
RH
98 100 97 100 99 99 76 58 34 30 25 33 87 88 72 68 69 72 86 55 48 34 31 22 10 12 9 4 3 17 35 52 65 66 61 72 92 93 100 99 88 81 70
100 100 100 100 96 81 62 53 37 24 18 20 38 64 93 92 57 50 44 41 38 26 11 10 9 9 5 3 9 53 75 62 70 89 99 98 94 99 98 98 88 69 69
98 95 90 79 84 68 57 47 40 32 24 19 22 43 53 57 57 50 45 38 35 14 9 10 7 5 4 4 50 76 60 68 98 97 96 98 99 96 97 100 87 75 90
85 96 88 76 69 60 50 44 30 28 28 25 25 32 44 48 49 46 41 28 14 12 11 10 8 3 2 26 63 84 89 97 96 98 96 100 96 98 98 98 90 91 66
36 54 62 62 59 48 43 29 33 24 27 30 33 44 42 46 47 43 27 24 16 13 12 6 3 2 7 62 92 98 95 88 79 68 86 100 98 98 98 95 98 92 61
30 26 25 24 25 27 24 26 25 24 27 28 29 45 52 50 43 34 25 17 16 14 7 2 2 8 48 69 80 99 93 70 64 100 96 92 98 96 97 98 91 85 78
14 20 20 14 15 14 19 25 27 29 30 26 31 21 18 29 27 22 21 17 14 7 4 3 14 57 71 87 94 96 98 81 70 97 94 93 87 78 93 77 94 93 96
9 10 11 14 19 23 18 15 15 17 15 16 12 8 7 7 14 14 12 8 5 4 3 3 47 80 93 100 100 100 97 94 95 97 86 84 82 97 78 84 97 96 97
68 84 98 100 100 100 100 100 100 97 92 61 36 32 23 9 7 6 6 5 4 3 3 19 63 96 100 99 89 98 98 96 98 97 98 82 81 85 96 99 91 98 98
100 100 100 100 100 100 100 100 100 100 100 100 100 100 98 100 97 89 74 42 27 11 8 74 88 98 100 98 98 98 97 97 98 94 100 100 100 98 98 97 99 95 99
100 100 100 86 79 99 60 26 34 48 34 46 82 90 90 97 100 100 100 100 100 92 92 96 97 98 98 99 99 98 99 98 97 92 99 100 97 98 99 97 98 98 100
100 100 89 42 26 22 25 26 24 21 29 60 55 36 38 45 60 63 92 97 95 99 100 100 100 99 98 99 99 98 98 98 98 100 100 98 98 99 96 99 97 98 96
75 40 29 27 27 30 30 27 23 19 16 16 16 16 16 15 18 24 32 57 68 77 90 97 98 100 100 99 99 99 100 98 98 99 100 99 98 99 99 98 100 97 98
32 30 30 29 31 30 27 24 22 21 19 17 16 14 12 10 9 8 7 7 7 8 15 27 42 78 92 96 99 100 98 99 99 99 99 97 98 98 98 98 98 98 89
32 31 28 31 33 30 28 27 24 21 18 17 14 12 11 9 8 7 6 6 5 5 5 4 4 5 13 39 60 93 99 100 99 98 99 99 99 98 99 99 100 99 98
34 31 33 34 32 28 25 23 21 18 15 14 12 10 9 8 7 6 6 5 5 5 4 4 4 4 4 4 4 8 40 87 98 99 99 99 100 99 98 99 98 99 99
37 36 36 35 30 26 25 22 19 16 13 11 11 10 9 8 8 8 7 6 6 5 5 4 4 4 3 3 3 3 3 4 20 85 97 99 99 99 99 99 99 98 99
36 34 35 36 32 28 26 23 19 16 14 13 12 11 10 10 9 8 7 7 6 6 5 4 4 4 3 3 3 3 3 3 3 3 20 62 96 99 99 99 100 99 99
39 38 40 39 33 28 24 22 18 16 15 14 13 12 11 11 10 9 8 7 6 6 5 4 4 3 3 3 3 3 3 3 3 3 3 3 8 53 89 98 100 100 100
41 40 40 39 32 30 27 24 19 17 16 14 13 12 13 13 12 11 10 9 8 6 5 5 4 4 3 3 3 3 3 3 3 3 3 3 3 3 5 36 70 88 100
42 40 43 39 34 33 30 24 20 18 15 14 14 14 14 14 13 13 13 11 9 7 6 5 4 5 6 8 7 7 6 6 5 4 4 4 3 3 3 3 4 6 18
46 51 49 42 39 36 31 24 19 17 16 15 16 17 17 17 16 15 13 10 8 6 6 8 11 11 9 7 6 6 5 5 4 4 4 4 5 5 4 4 4 4 5
52 57 50 46 41 35 27 23 19 18 17 18 19 19 18 18 16 13 10 9 12 14 15 12 9 7 6 7 8 9 9 8 7 6 6 5 5 4 5 6 6 6 6
62 64 62 54 40 31 26 23 20 18 18 21 21 20 19 16 13 13 18 21 18 12 8 9 11 12 13 12 11 10 10 10 10 9 8 7 6 6 6 6 6 6 6
70 73 67 56 37 31 28 23 20 20 22 22 21 19 16 16 23 26 21 13 10 12 16 17 16 15 13 12 11 10 9 8 9 11 14 14 13 11 9 9 8 8 8
81 76 67 46 37 33 26 22 22 24 24 22 19 19 27 32 26 15 11 14 18 21 20 18 16 15 12 10 8 9 10 10 9 10 14 17 16 15 15 14 12 12 11

GFSGL_500_rhum_123.txt.gz
RH
64 59 61 82 100 98 97 94 94 96 84 68 31 25 25 42 72 91 91 95 80 88 56 39 50 59 51 77 62 29 18 19 16 9 4 6 15 33 32 38 47 53 60
89 100 100 100 98 92 100 98 93 87 61 45 32 27 23 19 35 74 88 73 64 62 75 74 82 89 46 27 18 12 13 12 9 7 5 14 50 75 69 67 64 60 72
40 41 90 100 100 100 94 84 82 70 55 38 30 28 23 22 19 29 46 80 97 81 54 47 41 39 30 11 10 12 12 9 3 3 4 48 54 64 78 82 88 84 90
34 31 33 62 64 68 77 71 71 60 55 50 28 24 27 29 26 28 44 50 52 52 48 43 38 28 21 15 13 12 10 6 3 4 16 64 69 79 98 96 94 96 84
42 35 33 33 32 40 48 53 62 66 34 27 22 29 29 27 39 40 44 50 49 47 42 38 38 27 15 14 13 10 5 4 4 35 71 85 94 80 93 100 98 97 98
14 28 35 33 35 32 28 25 25 24 24 24 25 28 30 27 27 25 32 52 49 47 44 42 24 17 16 15 10 3 2 3 16 62 88 97 100 88 94 96 100 97 91
5 4 6 6 8 6 6 6 6 7 8 11 17 19 21 22 23 20 14 9 20 24 24 22 20 18 16 10 5 2 3 20 53 76 89 98 92 84 82 74 94 94 92
31 20 16 18 27 31 53 72 69 67 52 47 50 37 28 24 18 13 9 7 7 6 10 15 16 12 9 6 4 4 15 55 66 83 90 98 65 83 96 92 99 96 88
99 96 98 100 100 100 100 100 100 100 100 100 100 99 99 93 82 76 54 32 17 8 6 5 5 4 4 3 4 12 62 83 86 86 99 96 97 97 92 97 88 88 95
100 100 100 100 100 100 100 99 96 82 53 45 45 92 95 88 92 92 96 94 88 77 67 46 23 11 6 5 16 46 100 92 99 96 98 97 98 98 98 98 86 92 83
100 100 100 100 100 89 48 29 27 38 59 50 69 73 39 52 66 72 74 73 82 92 92 98 100 100 94 79 52 82 79 99 99 99 97 99 98 99 99 97 78 89 94
100 96 56 38 34 34 34 35 34 29 24 21 19 18 16 15 14 12 10 10 9 13 28 31 42 72 95 100 100 100 86 97 99 98 98 98 97 98 99 93 89 94 99
92 76 42 38 38 38 37 32 28 25 24 22 20 18 16 12 11 9 8 7 6 6 5 5 7 9 22 34 84 100 100 99 98 98 99 98 98 98 98 99 97 98 92
48 38 38 38 37 36 33 31 30 28 26 23 20 16 13 11 9 8 8 7 6 6 6 5 5 5 4 4 8 43 77 98 100 99 99 98 99 99 98 98 98 97 98
35 34 35 37 37 36 36 37 34 32 26 22 18 15 11 10 10 9 9 9 8 8 7 6 6 5 5 4 4 3 4 14 69 96 100 99 98 99 99 100 98 97 98
36 38 39 39 39 36 34 33 27 24 20 16 14 12 12 12 11 10 10 10 9 8 8 7 7 6 5 5 4 4 3 3 3 16 58 94 99 98 98 98 99 99 98
37 38 38 39 39 35 31 27 24 21 20 18 17 15 14 13 12 11 10 10 9 8 7 6 6 5 5 4 4 3 3 3 3 3 3 6 45 94 100 99 98 98 99
36 36 39 40 38 37 38 35 29 26 22 20 18 16 15 14 13 13 12 11 10 9 8 8 7 6 5 5 4 4 3 3 3 3 3 2 2 4 44 93 99 99 100
37 39 42 41 38 38 38 34 29 26 24 22 18 17 16 15 14 14 13 12 11 10 9 8 7 6 5 5 4 4 4 3 3 3 2 2 2 2 2 4 50 96 100
44 48 44 42 40 36 39 35 31 29 27 23 20 19 17 17 16 17 16 15 14 12 11 10 8 7 6 5 5 4 4 3 3 3 2 2 2 2 2 2 2 6 59
50 50 46 48 44 42 43 39 37 37 29 24 22 21 19 18 18 18 17 16 16 15 13 11 8 7 6 5 4 4 4 6 6 6 5 4 3 3 3 3 2 2 2
50 42 41 38 42 46 52 53 53 48 33 26 25 23 22 21 21 20 20 19 17 15 12 9 8 7 8 9 9 8 7 6 5 4 5 5 5 5 4 4 4 4 3
39 35 34 33 35 44 55 64 64 48 32 29 27 25 24 24 24 23 22 18 14 12 11 11 12 11 8 6 4 4 5 6 6 6 7 7 6 5 5 4 4 4 5
40 36 34 33 40 58 74 72 61 42 35 32 28 27 26 26 25 22 18 15 15 16 15 10 7 7 8 11 12 13 13 13 12 11 11 10 10 9 9 8 6 5 5
49 47 39 40 54 69 72 64 52 42 37 31 29 28 28 26 22 19 20 21 17 10 8 10 14 15 15 15 15 15 14 13 11 10 9 9 9 9 9 9 9 8 7
72 62 50 59 70 75 69 56 48 40 33 30 30 28 26 23 25 26 22 12 9 13 17 18 17 19 19 18 15 13 11 10 11 10 10 10 9 8 7 7 8 10 10